[[{"header":{"parameterUnit":"m.s-1","parameterCategory":1,"la1":31.0,"la2":29.5877,"lo1":-88.7671,"lo2":-86.6584,"dx":0.0162,"dy":0.0185,"nx":115,"ny":88,"refTime":"2022-12-02T18:00:00:Z","depth":0,"parameterNumber":2,"parameterNumberName":"U-component_of_WINDS"},"data":[0.0,0.0,0.0,0.0,0.0,0.0,0.0,0.0,0.0,0.0,0.0,0.0,0.0,0.0,0.0,0.0,0.0,0.0,0.0,0.0,0.0,0.0,0.0,0.0,0.0,0.0,0.0,0.0,0.0,0.0,0.0,0.0,0.0,0.0,0.0,0.0,0.0,0.0,0.0,0.0,0.0,0.0,0.0,0.0,0.0,0.0,0.0,0.0,0.0,0.0,0.0,0.0,0.0,0.0,0.0,0.0,0.0,0.0,0.0,0.0,0.0,0.0,0.0,0.0,0.0,0.0,0.0,0.0,0.0,0.0,0.0,0.0,0.0,0.0,0.0,0.0,0.0,0.0,0.0,0.0,0.0,0.0,0.0,0.0,0.0,0.0,0.0,0.0,0.0,0.0,0.0,0.0,0.0,0.0,0.0,0.0,0.0,0.0,0.0,0.0,0.0,0.0,0.0,0.0,0.0,0.0,0.0,0.0,0.0,0.0,0.0,0.0,0.0,0.0,0.0,0.0,0.0,0.0,0.0,0.0,0.0,0.0,0.0,0.0,0.0,0.0,0.0,0.0,0.0,0.0,0.0,0.0,0.0,0.0,0.0,0.0,0.0,0.0,0.0,0.0,0.0,0.0,0.0,0.0,0.0,0.0,0.0,0.0,0.0,0.0,0.0,0.0,0.0,0.0,0.0,0.0,0.0,0.0,0.0,0.0,0.0,0.0,0.0,0.0,0.0,0.0,0.0,0.0,0.0,0.0,0.0,0.0,0.0,0.0,0.0,0.0,0.0,0.0,0.0,0.0,0.0,0.0,0.0,0.0,0.0,0.0,0.0,0.0,0.0,0.0,0.0,0.0,0.0,0.0,0.0,0.0,0.0,0.0,0.0,0.0,0.0,0.0,0.0,0.0,0.0,0.0,0.0,0.0,0.0,0.0,0.0,0.0,0.0,0.0,0.0,0.0,0.0,0.0,0.0,0.0,0.0,0.0,0.0,0.0,0.0,0.0,0.0,0.0,0.0,0.0,0.0,0.0,0.0,0.0,0.0,0.0,0.0,0.0,0.0,0.0,0.0,0.0,0.0,0.0,0.0,0.0,0.0,0.0,0.0,0.0,0.0,0.0,0.0,0.0,0.0,0.0,0.0,0.0,0.0,0.0,0.0,0.0,0.0,0.0,0.0,0.0,0.0,0.0,0.0,0.0,0.0,0.0,0.0,0.0,0.0,0.0,0.0,0.0,0.0,0.0,0.0,0.0,0.0,0.0,0.0,0.0,0.0,0.0,0.0,0.0,0.0,0.0,0.0,0.0,0.0,0.0,0.0,0.0,0.0,0.0,0.0,0.0,0.0,0.0,0.0,0.0,0.0,0.0,0.0,0.0,0.0,0.0,0.0,0.0,0.0,0.0,0.0,0.0,0.0,0.0,0.0,0.0,0.0,0.0,0.0,0.0,0.0,0.0,0.0,0.0,0.0,0.0,0.0,0.0,0.0,0.0,0.0,0.0,0.0,0.0,0.0,0.0,0.0,0.0,0.0,0.0,0.0,0.0,0.0,0.0,0.0,0.0,0.0,0.0,0.0,0.0,0.0,0.0,0.0,0.0,0.0,0.0,0.0,0.0,0.0,0.0,0.0,0.0,0.0,0.0,0.0,0.0,0.0,0.0,0.0,0.0,0.0,0.0,0.0,0.0,0.0,0.0,0.0,0.0,0.0,0.0,0.0,0.0,0.0,0.0,0.0,0.0,0.0,0.0,0.0,0.0,0.0,0.0,0.0,0.0,0.0,0.0,0.0,0.0,0.0,0.0,0.0,0.0,0.0,0.0,0.0,0.0,0.0,0.0,0.0,0.0,0.0,0.0,0.0,0.0,0.0,0.0,0.0,0.0,0.0,0.0,0.0,0.0,0.0,0.0,0.0,0.0,0.0,0.0,0.0,0.0,0.0,0.0,0.0,0.0,0.0,0.0,0.0,0.0,0.0,0.0,0.0,0.0,0.0,0.0,0.0,0.0,0.0,0.0,0.0,0.0,0.0,0.0,0.0,0.0,0.0,0.0,0.0,0.0,0.0,0.0,0.0,0.0,0.0,0.0,0.0,0.0,0.0,0.0,0.0,0.0,0.0,0.0,0.0,0.0,0.0,0.0,0.0,0.0,0.0,0.0,0.0,0.0,0.0,0.0,0.0,0.0,0.0,0.0,0.0,0.0,0.0,0.0,0.0,0.0,0.0,0.0,0.0,0.0,0.0,0.0,0.0,0.0,0.0,0.0,0.0,0.0,0.0,0.0,0.0,0.0,0.0,0.0,0.0,0.0,0.0,0.0,0.0,0.0,0.0,0.0,0.0,0.0,0.0,0.0,0.0,0.0,0.0,0.0,0.0,0.0,0.0,0.0,0.0,0.0,0.0,0.0,0.0,0.0,0.0,0.0,0.0,0.0,0.0,0.0,0.0,0.0,0.0,0.0,0.0,0.0,0.0,0.0,0.0,0.0,0.0,0.0,0.0,0.0,0.0,0.0,0.0,0.0,0.0,0.0,0.0,0.0,0.0,0.0,0.0,0.0,0.0,0.0,0.0,0.0,0.0,0.0,0.0,0.0,0.0,0.0,0.0,0.0,0.0,0.0,0.0,0.0,0.0,0.0,0.0,0.0,0.0,0.0,0.0,0.0,0.0,0.0,0.0,0.0,0.0,0.0,0.0,0.0,0.0,0.0,0.0,0.0,0.0,0.0,0.0,0.0,0.0,0.0,0.0,0.0,0.0,0.0,0.0,0.0,0.0,0.0,0.0,0.0,0.0,0.0,0.0,0.0,0.0,0.0,0.0,0.0,0.0,0.0,0.0,0.0,0.0,0.0,0.0,0.0,0.0,0.0,0.0,0.0,0.0,0.0,0.0,0.0,0.0,0.0,0.0,0.0,0.0,0.0,0.0,0.0,0.0,0.0,0.0,0.0,0.0,0.0,0.0,0.0,0.0,0.0,0.0,0.0,0.0,0.0,0.0,0.0,0.0,0.0,0.0,0.0,0.0,0.0,0.0,0.0,0.0,0.0,0.0,0.0,0.0,0.0,0.0,0.0,0.0,0.0,0.0,0.0,0.0,0.0,0.0,0.0,0.0,0.0,0.0,0.0,0.0,0.0,0.0,0.0,0.0,0.0,0.0,0.0,0.0,0.0,0.0,0.0,0.0,0.0,0.0,0.0,0.0,0.0,0.0,0.0,0.0,0.0,0.0,0.0,0.0,0.0,0.0,0.0,0.0,0.0,0.0,0.0,0.0,0.0,0.0,0.0,0.0,0.0,0.0,0.0,0.0,0.0,0.0,0.0,0.0,0.0,0.0,0.0,0.0,0.0,0.0,0.0,0.0,0.0,0.0,0.0,0.0,0.0,0.0,0.0,0.0,0.0,0.0,0.0,0.0,0.0,0.0,0.0,0.0,0.0,0.0,0.0,0.0,0.0,0.0,0.0,0.0,0.0,0.0,0.0,0.0,0.0,0.0,0.0,0.0,0.0,0.0,0.0,0.0,0.0,0.0,0.0,0.0,0.0,0.0,0.0,0.0,0.0,0.0,0.0,0.0,0.0,0.0,0.0,0.0,0.0,0.0,0.0,0.0,0.0,0.0,0.0,0.0,0.0,0.0,0.0,0.0,0.0,0.0,0.0,0.0,0.0,0.0,0.0,0.0,0.0,0.0,0.0,0.0,0.0,0.0,0.0,0.0,0.0,0.0,0.0,0.0,0.0,0.0,0.0,0.0,0.0,0.0,0.0,0.0,0.0,0.0,0.0,0.0,0.0,0.0,0.0,0.0,0.0,0.0,0.0,0.0,0.0,0.0,0.0,0.0,0.0,0.0,0.0,0.0,0.0,0.0,0.0,0.0,0.0,0.0,0.0,0.0,0.0,0.0,0.0,0.0,0.0,0.0,0.0,0.0,0.0,0.0,0.0,0.0,0.0,0.0,0.0,0.0,0.0,0.0,0.0,0.0,0.0,0.0,0.0,0.0,0.0,0.0,0.0,0.0,0.0,0.0,0.0,0.0,0.0,0.0,0.0,0.0,0.0,0.0,0.0,0.0,0.0,0.0,0.0,0.0,0.0,0.0,0.0,0.0,0.0,0.0,0.0,0.0,0.0,0.0,0.0,0.0,0.0,0.0,0.0,0.0,0.0,0.0,0.0,0.0,0.0,0.0,0.0,0.0,0.0,0.0,0.0,0.0,0.0,0.0,0.0,0.0,0.0,0.0,0.0,0.0,0.0,0.0,0.0,0.0,0.0,0.6837,0.0,0.0,0.0,0.5029,0.0,0.0,0.0,0.0,0.0,0.0,0.0,0.0,0.0,0.0,0.0,0.0,0.0,0.0,0.0,0.0,0.0,0.0,0.0,0.0,0.0,0.0,0.0,0.0,0.0,0.0,0.0,0.0,0.0,0.0,0.0,0.0,0.0,0.0,0.0,0.0,0.0,0.0,0.0,0.0,0.0,0.0,0.0,0.0,0.0,0.0,0.0,0.0,0.0,0.0,0.0,0.0,0.0,0.0,0.0,0.0,0.0,0.0,0.0,0.0,0.0,0.0,0.0,0.0,0.0,0.0,0.0,0.0,0.0,0.0,0.0,0.0,0.0,0.0,0.0,0.0,0.0,0.0,0.0,0.0,0.0,0.0,0.0,0.0,0.0,0.0,0.0,0.0,0.0,0.0,0.0,0.0,0.0,0.0,0.0,0.0,0.0,0.0,0.0,0.0,0.0,0.0,0.0,0.0,0.0,0.0,0.0,0.0,0.0,0.0,0.6264,0.5031,0.6446,0.6293,0.4345,0.0,0.0,0.0,0.0,0.0,0.0,0.0,0.0,0.0,0.0,0.0,0.0,0.0,0.0,0.0,0.0,0.0,0.0,0.0,0.0,0.0,0.0,0.0,0.0,0.0,0.0,0.0,0.0,0.0,0.0,0.0,0.0,0.0,0.0,0.0,0.0,0.0,0.0,0.0,0.0,0.0,0.0,0.0,0.0,0.0,0.0,0.0,0.0,0.0,0.0,0.0,0.0,0.0,0.0,0.0,0.0,0.0,0.0,0.0,0.0,0.0,0.0,0.0,0.0,0.0,0.0,0.0,0.0,0.0,0.0,0.0,0.0,0.0,0.0,0.0,0.0,0.0,0.0,0.0,0.0,0.0,0.0,0.0,0.0,0.0,0.0,0.0,0.0,0.0,0.0,0.0,0.0,0.0,0.0,0.0,0.0,0.0,0.0,0.0,0.0,0.0,0.0,0.0,0.0,0.0,0.0,0.0,0.0,0.0,0.0,0.0,0.0,0.651,0.6438,0.4089,0.0,0.0,0.0,0.0,0.0,0.0,0.0,0.0,0.0,0.0,0.0,0.0,0.0,0.0,0.0,0.0,0.0,0.0,0.0,0.0,0.0,0.0,0.0,0.0,0.0,0.0,0.0,0.0,0.0,0.0,0.0,0.0,0.0,0.0,0.0,0.0,0.0,0.0,0.0,0.0,0.0,0.0,0.0,0.0,0.0,0.0,0.0,0.0,0.0,0.0,0.0,0.0,0.0,0.0,0.0,0.0,0.0,0.0,0.0,0.0,0.0,0.0,0.0,0.0,0.0,0.0,0.0,0.0,0.0,0.0,0.0,0.0,0.0,0.0,0.0,0.0,0.0,0.0,0.0,0.0,0.0,0.0,0.0,0.0,0.0,0.0,0.0,0.0,0.0,0.0,0.0,0.0,0.0,0.0,0.0,0.0,0.0,0.0,0.0,0.0,0.0,0.0,0.0,0.0,0.0,0.0,0.0,0.0,0.0,0.0,0.6282,0.7637,0.7218,0.0,0.5045,0.0,0.0,0.0,0.0,0.0,0.0,0.0,0.0,0.0,0.0,0.0,0.0,0.0,0.0,0.0,0.0,0.0,0.0,0.0,0.0,0.0,0.0,0.0,0.0,0.0,0.0,0.0,0.0,0.0,0.0,0.0,0.0,0.0,0.0,0.0,0.0,0.0,0.0,0.0,0.0,0.0,0.0,0.0,0.0,0.0,0.0,0.0,0.0,0.0,0.0,0.0,0.0,0.0,0.0,0.0,0.0,0.0,0.0,0.0,0.0,0.0,0.0,0.0,0.0,0.0,0.0,0.0,0.0,0.0,0.0,0.0,0.0,0.0,0.0,0.0,0.0,0.0,0.0,0.0,0.0,0.0,0.0,0.0,0.0,0.0,0.0,0.0,0.0,0.0,0.0,0.0,0.0,0.0,0.0,0.0,0.0,0.0,0.0,0.0,0.0,0.0,0.0,0.0,0.0,0.0,0.0,0.0,0.0,0.0,0.0,0.5773,0.6944,0.6498,0.5638,0.0,0.0,0.0,0.0,0.0,0.0,0.0,0.0,0.0,0.0,0.0,0.0,0.0,0.0,0.0,0.0,0.0,0.0,0.0,0.0,0.0,0.0,0.0,0.0,0.0,0.0,0.0,0.0,0.0,0.0,0.0,0.0,0.0,0.0,0.0,0.0,0.0,0.0,0.0,0.0,0.0,0.0,0.0,0.0,0.0,0.0,0.0,0.0,0.0,0.0,0.0,0.0,0.0,0.0,0.0,0.0,0.0,0.0,0.0,0.0,0.0,0.0,0.0,0.0,0.0,0.0,0.0,0.0,0.0,0.0,0.0,0.0,0.0,0.0,0.0,0.0,0.0,0.0,0.0,0.0,0.0,0.0,0.0,0.0,0.0,0.0,0.0,0.0,0.0,0.0,0.0,0.0,0.0,0.0,0.0,0.0,0.0,0.0,0.0,0.0,0.0,0.0,0.0,0.0,0.0,0.0,0.0,0.0,0.0,0.0,0.5446,0.5901,0.6552,0.591,0.5,0.3915,0.0,0.0,0.0,0.0,0.0,0.0,0.0,0.0,0.0,0.0,0.0,0.0,0.0,0.0,0.0,0.0,0.0,0.0,0.0,0.0,0.0,0.0,0.0,0.0,0.0,0.0,0.0,0.0,0.0,0.0,0.0,0.0,0.0,0.0,0.0,0.0,0.0,0.0,0.0,0.0,0.0,0.0,0.0,0.0,0.0,0.0,0.0,0.0,0.0,0.0,0.0,0.0,0.0,0.0,0.0,0.0,0.0,0.0,0.0,0.0,0.0,0.0,0.0,0.0,0.0,0.0,0.0,0.0,0.0,0.0,0.0,0.0,0.0,0.0,0.0,0.0,0.0,0.0,0.0,0.0,0.0,0.0,0.0,0.0,0.0,0.0,0.0,0.0,0.0,0.0,0.0,0.0,0.0,0.0,0.0,0.0,0.0,0.0,0.0,0.0,0.0,0.0,0.0,0.0,0.0,0.0,0.0,0.0,0.7298,0.7073,0.7161,0.7591,0.5866,0.4599,0.0,0.0,0.0,0.0,0.0,0.0,0.0,0.0,0.0,0.0,0.0,0.0,0.0,0.0,0.0,0.0,0.0,0.0,0.0,0.0,0.0,0.0,0.0,0.0,0.0,0.0,0.0,0.0,0.0,0.0,0.0,0.0,0.0,0.0,0.0,0.0,0.0,0.0,0.0,0.0,0.0,0.0,0.0,0.0,0.0,0.0,0.0,0.0,0.0,0.0,0.0,0.0,0.0,0.0,0.0,0.0,0.0,0.0,0.0,0.0,0.0,0.0,0.0,0.0,0.0,0.0,0.0,0.0,0.0,0.0,0.0,0.0,0.0,0.0,0.0,0.0,0.0,0.0,0.0,0.0,0.0,0.0,0.0,0.0,0.0,0.0,0.0,0.0,0.0,0.0,0.0,0.0,0.0,0.0,0.0,0.0,0.0,0.0,0.0,0.0,0.0,0.0,0.0,0.0,0.0,0.0,0.0,0.0,0.0,0.5934,0.701,0.6991,0.5864,0.5596,0.4566,0.0,0.0,0.0,0.0,0.0,0.0,0.0,0.0,0.0,0.0,0.0,0.0,0.0,0.0,0.0,0.0,0.0,0.0,0.0,0.0,0.0,0.0,0.0,0.0,0.0,0.0,0.0,0.0,0.0,0.0,0.0,0.0,0.0,0.0,0.0,0.0,0.0,0.0,0.0,0.0,0.0,0.0,0.0,0.0,0.0,0.0,0.0,0.0,0.0,0.0,0.0,0.0,0.0,0.0,0.0,0.0,0.0,0.0,0.0,0.0,0.0,0.0,0.0,0.0,0.0,0.0,0.0,0.0,0.0,0.0,0.0,0.0,0.0,0.0,0.0,0.0,0.0,0.0,0.0,0.0,0.0,0.0,0.0,0.0,0.0,0.0,0.0,0.0,0.0,0.0,0.0,0.0,0.0,0.0,0.0,0.0,0.0,0.0,0.0,0.0,0.0,0.0,0.0,0.0,0.0,0.0,0.0,0.0,0.0,0.4436,0.4253,0.3905,0.3392,0.335,0.2565,0.0,0.0,0.0,0.0,0.0,0.0,0.0,0.0,0.0,0.0,0.0,0.0,0.0,0.0,0.0,0.0,0.0,0.0,0.0,0.0,0.0,0.0,0.0,0.0,0.0,0.0,0.0,0.0,0.0,0.0,0.0,0.0,0.0,0.0,0.0,0.0,0.0,0.0,0.0,0.0,0.0,0.0,0.0,0.0,0.0,0.0,0.0,0.0,0.0,0.0,0.0,0.0,0.0,0.0,0.0,0.0,0.0,0.0,0.0,0.0,0.0,0.0,0.0,0.0,0.0,0.0,0.0,0.0,0.0,0.0,0.0,0.0,0.0,0.0,0.0,0.0,0.0,0.0,0.0,0.0,0.0,0.0,0.0,0.0,0.0,0.0,0.0,0.0,0.0,0.0,0.0,0.0,0.0,0.0,0.0,0.0,0.0,0.0,0.0,0.0,0.0,0.0,0.0,0.0,0.0,0.0,0.0,0.0,0.396,0.3046,-0.1132,-0.2017,0.0298,-0.1011,-0.16,0.0,0.0,0.0,0.0,0.0,0.0,0.0,0.0,0.0,0.0,0.0,0.0,0.0,0.0,0.0,0.0,0.0,0.0,0.0,0.0,0.0,0.0,0.0,0.0,0.0,0.0,0.0,0.0,0.0,0.0,0.0,0.0,0.0,0.0,0.0,0.0,0.0,0.0,0.0,0.0,0.0,0.0,0.0,0.0,0.0,0.0,0.0,0.0,0.0,0.0,0.0,0.0,0.0,0.0,0.0,0.0,0.0,0.0,0.0,0.0,0.0,0.0,0.0,0.0,0.0,0.0,0.0,0.0,0.0,0.0,0.0,0.0,0.0,0.0,0.0,0.0,0.0,0.0,0.0,0.0,0.0,0.0,0.0,0.0,0.0,0.0,0.0,0.0,0.0,0.0,0.0,0.0,0.0,0.0,0.0,0.0,0.0,0.0,0.0,0.0,0.0,0.0,0.0,0.0,0.0,0.0,0.0,0.0,0.0,0.0482,-0.3475,-0.4671,-0.2769,-0.3847,-0.4194,0.0,0.0,0.0,0.0,0.0,0.0,0.0,0.0,0.0,0.0,0.0,0.0,0.0,0.0,0.0,0.0,0.0,0.0,0.0,0.0,0.0,0.0,0.0,0.0,0.0,0.0,0.0,0.0,0.0,0.0,0.0,0.0,0.0,0.0,0.0,0.0,0.0,0.0,0.0,0.0,0.0,0.0,0.0,0.0,0.0,0.0,0.0,0.0,0.0,0.0,0.0,0.0,0.0,0.0,0.0,0.0,0.0,0.0,0.0,0.0,0.0,0.0,0.0,0.0,0.0,0.0,0.0,0.0,0.0,0.0,0.0,0.0,0.0,0.0,0.0,0.0,0.0,0.0,0.0,0.0,0.0,0.0,0.0,0.0,0.0,0.0,0.0,0.0,0.0,0.0,0.0,0.0,0.0,0.0,0.0,0.0,0.0,0.0,0.0,0.0,0.0,0.0,0.0,0.0,0.0,0.0,0.0,0.0,0.0,-0.4353,-0.7482,-0.8436,-0.6803,-0.6392,-0.5881,-0.5244,0.0,0.0,0.0,0.0,0.0,0.0,0.0,0.0,0.0,0.0,0.0,0.0,0.0,0.0,0.0,0.0,0.0,0.0,0.0,0.0,0.0,0.0,0.0,0.0,0.0,0.0,0.0,0.0,0.0,0.0,0.0,0.0,0.0,0.0,0.0,0.0,0.0,0.0,0.0,0.0,0.0,0.0,0.0,0.0,0.0,0.0,0.0,0.0,0.0,0.0,0.0,0.0,0.0,0.0,0.0,0.0,0.0,0.0,0.0,0.0,0.0,0.0,0.0,0.0,0.0,0.0,0.0,0.0,0.0,0.0,0.0,0.0,0.0,0.0,0.0,0.0,0.0,0.0,0.0,0.0,0.0,0.0,0.0,0.0,0.0,0.0,0.0,0.0,0.0,0.0,0.0,0.0,0.0,0.0,0.0,0.0,0.0,0.0,0.0,0.0,0.0,0.0,0.0,0.0,0.0,0.0,0.0,0.0,-1.0419,-1.253,-1.2897,-1.1347,-0.8578,-0.6876,0.0,0.0,0.0,0.0,0.0,0.0,0.0,0.0,0.0,0.0,0.0,0.0,0.0,0.0,0.0,0.0,0.0,0.0,0.0,0.0,0.0,0.0,0.0,0.0,0.0,0.0,0.0,0.0,0.0,0.0,0.0,0.0,0.0,0.0,0.0,0.0,0.0,0.0,0.0,0.0,0.0,0.0,0.0,0.0,0.0,0.0,0.0,0.0,0.0,0.0,0.0,0.0,0.0,0.0,0.0,0.0,0.0,0.0,0.0,0.0,0.0,0.0,0.0,0.0,0.0,0.0,0.0,0.0,0.0,0.0,0.0,0.0,0.0,0.0,0.0,0.0,0.0,0.0,0.0,0.0,0.0,0.0,0.0,0.0,0.0,0.0,0.0,0.0,0.0,0.0,0.0,0.0,0.0,0.0,0.0,0.0,0.0,0.0,0.0,0.0,0.0,0.0,0.0,0.0,0.0,0.0,0.0,0.0,0.0,-1.2255,-1.3703,-1.3552,-1.1718,-0.9453,-0.8039,0.0,0.0,0.0,0.0,0.0,0.0,0.0,0.0,0.0,0.0,0.0,0.0,0.0,0.0,0.0,0.0,0.0,0.0,0.0,0.0,0.0,0.0,0.0,0.0,0.0,0.0,0.0,0.0,0.0,0.0,0.0,0.0,0.0,0.0,0.0,0.0,0.0,0.0,0.0,0.0,0.0,0.0,0.0,0.0,0.0,0.0,0.0,0.0,0.0,0.0,0.0,0.0,0.0,0.0,0.0,0.0,0.0,0.0,0.0,0.0,0.0,0.0,0.0,0.0,0.0,0.0,0.0,0.0,0.0,0.0,0.0,0.0,0.0,0.0,0.0,0.0,0.0,0.0,0.0,0.0,0.0,0.0,0.0,0.0,0.0,0.0,0.0,0.0,0.0,0.0,0.0,0.0,0.0,0.0,0.0,0.0,0.0,0.0,0.0,0.0,0.0,0.0,0.0,0.0,0.0,0.0,0.0,0.0,-0.9475,-1.383,-1.432,-1.3899,-1.2646,-1.0571,-0.912,0.0,0.0,0.0,0.0,0.0,0.0,0.0,0.0,0.0,0.0,0.0,0.0,0.0,0.0,0.0,0.0,0.0,0.0,0.0,0.0,0.0,0.0,0.0,0.0,0.0,0.0,0.0,0.0,0.0,0.0,0.0,0.0,0.0,0.0,0.0,0.0,0.0,0.0,0.0,0.0,0.0,0.0,0.0,0.0,0.0,0.0,0.0,0.0,0.0,0.0,0.0,0.0,0.0,0.0,0.0,0.0,0.0,0.0,0.0,0.0,0.0,0.0,0.0,0.0,0.0,0.0,0.0,0.0,0.0,0.0,0.0,0.0,0.0,0.0,0.0,0.0,0.0,0.0,0.0,0.0,0.0,0.0,0.0,0.0,0.0,0.0,0.0,0.0,0.0,0.0,0.0,0.0,0.0,0.0,0.0,0.0,0.0,0.0,0.0,0.0,0.0,0.0,0.0,0.0,0.0,0.0,0.0,0.0,-0.9642,-1.4964,-1.4688,-1.4213,-1.3762,-1.1785,-1.0059,0.0,0.0,0.0,0.0,0.0,0.0,0.0,0.0,0.0,0.0,0.0,0.0,0.0,0.0,0.0,0.0,0.0,0.0,0.0,0.0,0.0,0.0,0.0,0.0,0.0,0.0,0.0,0.0,0.0,0.0,0.0,0.0,0.0,0.0,0.0,0.0,0.0,0.0,0.0,0.0,0.0,0.0,0.0,0.0,0.0,0.0,0.0,0.0,0.0,0.0,0.0,0.0,0.0,0.0,0.0,0.0,0.0,0.0,0.0,0.0,0.0,0.0,0.0,0.0,0.0,0.0,0.0,0.0,0.0,0.0,0.0,0.0,0.0,0.0,0.0,0.0,0.0,0.0,0.0,0.0,0.0,0.0,0.0,0.0,0.0,0.0,0.0,0.0,0.0,0.0,0.0,0.0,0.0,0.0,0.0,0.0,0.0,0.0,0.0,0.0,0.0,0.0,0.0,0.0,0.0,0.0,0.0,0.0,-1.1901,-1.491,-1.5151,-1.5025,-1.4485,-1.2483,-1.0365,0.0,0.0,0.0,0.0,0.0,0.0,0.0,0.0,0.0,0.0,0.0,0.0,0.0,0.0,0.0,0.0,0.0,0.0,0.0,0.0,0.0,0.0,0.0,0.0,0.0,0.0,0.0,0.0,0.0,0.0,0.0,0.0,0.0,0.0,0.0,0.0,0.0,0.0,0.0,0.0,0.0,0.0,0.0,0.0,0.0,0.0,0.0,0.0,-0.489,0.0,0.0,0.0,0.0,0.0,0.0,0.0,0.0,0.0,0.0,0.0,0.0,0.0,0.0,0.0,0.0,0.0,0.0,0.0,0.0,0.0,0.0,0.0,0.0,0.0,0.0,0.0,0.0,0.0,0.0,0.0,0.0,0.0,0.0,0.0,0.0,0.0,0.0,0.0,0.0,0.0,0.0,0.0,0.0,0.0,0.0,0.0,0.0,0.0,0.0,0.0,0.0,0.0,0.0,0.0,0.0,0.0,0.0,0.0,-1.2791,-1.5078,-1.5133,-1.5085,-1.4948,-1.3557,-1.1314,0.0,0.0,0.0,0.0,0.0,0.0,0.0,0.0,0.0,0.0,0.0,0.0,0.0,0.0,0.0,0.0,0.0,0.0,0.0,0.0,0.0,0.0,0.0,0.0,0.0,0.0,0.0,0.0,0.0,0.0,0.0,0.0,0.0,0.0,0.0,0.0,0.0,0.0,0.0,0.0,0.0,0.0,0.0,0.0,0.0,0.0,0.0,0.0,0.0,0.0,0.0,0.0,0.0,0.0,0.0,0.0,0.0,0.0,0.0,0.0,0.0,0.0,0.0,0.0,0.0,0.0,0.0,0.0,0.0,0.0,0.0,0.0,0.0,0.0,0.0,0.0,0.0,0.0,0.0,0.0,0.0,0.0,0.0,0.0,0.0,0.0,0.0,0.0,0.0,0.0,0.0,0.0,0.0,0.0,0.0,0.0,0.0,0.0,0.0,0.0,0.0,0.0,0.0,0.0,0.0,0.0,0.0,-1.0964,-1.3092,-1.5312,-1.5114,-1.5062,-1.5377,-1.4577,-1.2392,-0.874,0.0,0.0,0.0,0.0,0.0,0.0,0.0,0.0,0.0,0.0,0.0,0.0,0.0,0.0,0.0,0.0,0.0,0.0,0.0,0.0,0.0,0.0,0.0,0.0,0.0,0.0,0.0,0.0,0.0,0.0,0.0,0.0,0.0,0.0,0.0,0.0,0.0,0.0,-0.2358,-0.277,0.0,0.0,0.0,0.0,0.0,0.0,0.0,0.0,-0.6768,0.0,0.0,0.0,0.0,0.0,0.0,0.0,0.0,0.0,0.0,0.0,0.0,0.0,0.0,0.0,0.0,0.0,0.0,0.0,0.0,0.0,0.0,0.0,0.0,0.0,0.0,0.0,0.0,0.0,0.0,0.0,0.0,0.0,0.0,0.0,0.0,0.0,0.0,0.0,0.0,0.0,0.0,0.0,0.0,0.0,0.0,0.0,0.0,0.0,0.0,0.0,0.0,0.0,0.0,0.0,0.0,-1.1362,-1.2388,-1.3746,-1.5502,-1.5886,-1.592,-1.572,-1.4832,-1.278,-0.9601,0.0,0.0,0.0,0.0,0.0,0.0,0.0,0.0,0.0,0.0,0.0,0.0,0.0,0.0,0.0,0.0,0.0,0.0,0.0,0.0,0.0,0.0,0.0,0.0,0.0,0.0,0.0,0.0,0.0,0.0,0.0,0.0,0.0,0.0,0.0,0.0,0.0,0.0,0.0,-0.4379,-0.4617,0.0,0.0,0.0,0.0,0.0,0.0,0.0,0.0,-0.7126,0.0,0.0,0.0,0.0,0.0,0.0,0.0,0.0,0.0,0.0,0.0,0.0,0.0,0.0,0.0,0.0,0.0,0.0,0.0,0.0,0.0,0.0,0.0,0.0,0.0,0.0,0.0,0.0,0.0,0.0,0.0,0.0,0.0,0.0,0.0,0.0,0.0,0.0,0.0,0.0,0.0,0.0,0.0,0.0,0.0,0.0,0.0,0.0,0.0,0.0,0.0,0.0,0.0,0.0,0.0,-1.1073,-1.3389,-1.5038,-1.6016,-1.6008,-1.6098,-1.643,-1.5107,-1.3025,0.0,0.0,0.0,0.0,0.0,0.0,0.0,0.0,0.0,0.0,0.0,0.0,0.0,0.0,0.0,0.0,0.0,0.0,0.0,0.0,0.0,0.0,0.0,0.0,0.0,0.0,0.0,0.0,0.0,0.0,0.0,0.0,0.0,0.0,0.0,0.0,0.0,0.0,0.0,0.0,-0.5583,-0.6118,-0.7695,0.0,0.0,0.0,0.0,0.0,0.0,-0.8477,-0.7899,0.0,0.0,0.0,0.0,0.0,0.0,0.0,0.0,0.0,0.0,0.0,0.0,0.0,0.0,0.0,0.0,0.0,0.0,0.0,0.0,0.0,0.0,0.0,0.0,0.0,0.0,0.0,0.0,0.0,0.0,0.0,0.0,0.0,0.0,0.0,0.0,0.0,0.0,0.0,0.0,0.0,0.0,0.0,0.0,0.0,0.0,0.0,0.0,0.0,0.0,0.0,0.0,0.0,0.0,0.0,-1.0302,-1.3781,-1.5916,-1.6559,-1.6421,-1.6647,-1.7268,-1.5908,-1.3726,0.0,0.0,0.0,0.0,0.0,0.0,0.0,0.0,0.0,0.0,0.0,0.0,0.0,0.0,0.0,0.0,0.0,0.0,0.0,0.0,0.0,0.0,0.0,0.0,0.0,0.0,0.0,0.0,0.0,0.0,0.0,0.0,0.0,0.0,0.0,0.0,0.0,0.0,0.0,0.0,0.0,-0.7481,-0.8536,-0.8288,0.0,0.0,0.0,0.0,-1.0008,-0.9702,0.0,0.0,0.0,0.0,0.0,0.0,0.0,0.0,0.0,0.0,0.0,0.0,0.0,0.0,0.0,0.0,0.0,0.0,0.0,0.0,0.0,0.0,0.0,0.0,0.0,0.0,0.0,0.0,0.0,0.0,0.0,0.0,0.0,0.0,0.0,0.0,0.0,0.0,0.0,0.0,0.0,0.0,0.0,0.0,0.0,0.0,0.0,0.0,0.0,0.0,0.0,0.0,0.0,0.0,0.0,0.0,-0.9955,-1.2953,-1.5274,-1.6888,-1.8171,-1.863,-1.8103,-1.7787,-1.5489,0.0,0.0,0.0,0.0,0.0,0.0,0.0,0.0,0.0,0.0,0.0,0.0,0.0,0.0,0.0,0.0,0.0,0.0,0.0,0.0,0.0,0.0,0.0,0.0,0.0,0.0,0.0,0.0,0.0,0.0,0.0,0.0,0.0,0.0,0.0,0.0,0.0,0.0,0.0,0.0,0.0,-0.8233,-0.8568,-0.8997,-0.9338,0.0,0.0,-1.0163,-1.2582,-1.2588,0.0,0.0,0.0,0.0,0.0,0.0,0.0,0.0,0.0,0.0,0.0,0.0,0.0,0.0,0.0,0.0,0.0,0.0,0.0,0.0,0.0,0.0,0.0,0.0,0.0,0.0,0.0,0.0,0.0,0.0,0.0,0.0,0.0,0.0,0.0,0.0,0.0,0.0,0.0,0.0,0.0,0.0,0.0,0.0,0.0,0.0,0.0,0.0,0.0,0.0,0.0,0.0,0.0,0.0,0.0,-0.8463,-1.0141,-1.302,-1.5265,-1.6666,-1.7452,-1.7946,-1.8119,-1.8119,-1.5837,0.0,0.0,0.0,0.0,0.0,0.0,0.0,0.0,0.0,0.0,0.0,0.0,0.0,0.0,0.0,0.0,0.0,0.0,0.0,0.0,0.0,0.0,0.0,0.0,0.0,0.0,0.0,0.0,0.0,0.0,0.0,0.0,0.0,0.0,0.0,0.0,0.0,0.0,0.0,0.0,0.0,0.0,-1.0504,-1.0747,0.0,0.0,0.0,-1.187,-1.3062,0.0,0.0,0.0,0.0,0.0,0.0,0.0,0.0,0.0,0.0,0.0,0.0,0.0,0.0,0.0,0.0,0.0,0.0,0.0,0.0,0.0,0.0,0.0,0.0,0.0,0.0,0.0,0.0,0.0,0.0,0.0,0.0,0.0,0.0,0.0,0.0,0.0,0.0,0.0,0.0,0.0,0.0,0.0,0.0,0.0,0.0,0.0,0.0,0.0,0.0,0.0,0.0,0.0,0.0,0.0,0.0,0.0,-1.0066,-1.3391,-1.5564,-1.6486,-1.6913,-1.7264,-1.7597,-1.8234,0.0,0.0,0.0,0.0,0.0,0.0,0.0,0.0,0.0,0.0,0.0,0.0,0.0,0.0,0.0,0.0,0.0,0.0,0.0,0.0,0.0,0.0,0.0,0.0,0.0,0.0,0.0,-0.1765,0.0,0.0,0.0,0.0,0.0,0.0,0.0,0.0,0.0,0.0,0.0,0.0,0.0,0.0,-1.026,-1.1567,-1.2298,-1.2677,0.0,0.0,-1.3849,-1.3848,-1.4393,-1.4335,0.0,0.0,0.0,0.0,0.0,0.0,0.0,0.0,0.0,0.0,0.0,0.0,0.0,0.0,0.0,0.0,0.0,0.0,0.0,0.0,0.0,0.0,0.0,0.0,0.0,0.0,0.0,0.0,0.0,0.0,0.0,0.0,0.0,0.0,0.0,0.0,0.0,0.0,0.0,0.0,0.0,0.0,0.0,0.0,0.0,0.0,0.0,0.0,0.0,0.0,0.0,0.0,0.0,0.0,-0.9306,-0.9511,-1.3872,-1.6289,-1.6599,-1.772,-1.7619,-1.622,-1.8672,-1.6167,0.0,0.0,0.0,0.0,0.0,0.0,0.0,0.0,0.0,0.0,0.0,0.0,0.0,0.0,0.0,0.0,0.0,0.0,0.0,0.0,0.0,0.0,0.0,0.0,0.0,0.0,0.0,0.0,0.0,0.0,0.0,0.0,0.0,0.0,0.0,0.0,0.0,0.0,0.0,0.0,0.0,-1.0309,-1.0489,-1.3123,-1.4602,0.0,-1.4977,-1.6275,-1.6022,-1.6222,-1.6407,-1.6249,0.0,0.0,0.0,0.0,0.0,0.0,0.0,0.0,0.0,0.0,0.0,0.0,0.0,0.0,0.0,0.0,0.0,0.0,0.0,0.0,0.0,0.0,0.0,0.0,0.0,0.0,0.0,0.0,0.0,0.0,0.0,0.0,0.0,0.0,0.0,0.0,0.0,0.0,0.0,0.0,0.0,0.0,0.0,0.0,0.0,0.0,0.0,0.0,0.0,0.0,0.0,0.0,0.0,-0.9227,-0.9421,-1.3212,-1.5325,-1.5521,-1.5591,-1.5235,-1.4583,-1.4107,-1.1616,0.0,0.0,0.0,0.0,0.0,0.0,0.0,0.0,0.0,0.0,0.0,0.0,0.0,0.0,0.0,0.0,0.0,0.0,0.0,0.0,0.0,0.0,0.0,0.0,0.0,0.0,0.0,0.0,-0.601,-0.6862,-0.7437,0.0,0.0,0.0,0.0,0.0,0.0,0.0,0.0,0.0,0.0,-1.2664,-1.2881,-1.4559,0.0,0.0,-1.6447,-1.6526,-1.7046,-1.5757,-1.4695,-1.4679,-1.281,0.0,0.0,0.0,0.0,0.0,0.0,0.0,0.0,0.0,0.0,0.0,0.0,0.0,0.0,0.0,0.0,0.0,0.0,0.0,0.0,0.0,0.0,0.0,0.0,0.0,0.0,0.0,0.0,0.0,0.0,0.0,0.0,0.0,0.0,0.0,0.0,0.0,0.0,0.0,0.0,0.0,0.0,0.0,0.0,0.0,0.0,0.0,0.0,0.0,0.0,0.0,0.0,-0.89,-0.9574,-1.2873,-1.4462,-1.4346,-1.3725,-1.3011,-1.2226,-1.0295,-0.8192,0.0,0.0,0.0,0.0,0.0,0.0,0.0,0.0,0.0,0.0,0.0,0.0,0.0,0.0,0.0,0.0,0.0,0.0,0.0,0.0,0.0,0.0,0.0,0.0,0.0,0.0,0.0,0.0,-0.551,-0.622,-0.7152,0.0,0.0,0.0,0.0,0.0,0.0,0.0,0.0,0.0,0.0,-1.4486,-1.5415,-1.6173,-1.6978,-1.794,-1.7077,-1.634,-1.6375,-1.5209,-1.4202,-1.3891,0.0,0.0,0.0,0.0,0.0,0.0,0.0,0.0,0.0,0.0,0.0,0.0,0.0,0.0,0.0,0.0,0.0,0.0,0.0,0.0,0.0,0.0,0.0,0.0,0.0,0.0,0.0,0.4819,0.0,0.0,0.2184,0.0,0.0,0.0,0.0,0.0,0.0,0.0,0.0,0.0,0.0,0.0,0.0,0.0,0.0,0.0,0.0,0.0,0.0,0.0,0.0,0.0,0.0,-0.8248,-0.9863,-1.2928,-1.4114,-1.3024,-1.2613,-1.1227,-0.8919,-0.8166,-0.6983,-0.5121,0.0,0.0,0.0,0.0,0.0,0.0,0.0,0.0,0.0,0.0,0.0,0.0,0.0,0.0,0.0,0.0,0.0,0.0,0.0,0.0,0.0,0.0,0.0,0.0,0.0,0.0,-0.7496,-0.5785,-0.5251,0.0,0.0,0.0,0.0,0.0,0.0,0.0,0.0,0.0,0.0,-1.536,-1.5298,-1.7638,-1.8021,-1.7776,-1.6811,-1.6628,-1.5883,-1.3945,-1.4947,-1.5786,0.0,0.0,0.0,0.0,0.0,0.0,0.0,0.0,0.0,0.0,0.0,0.0,0.0,0.0,0.0,0.0,0.0,0.0,0.0,0.0,0.0,0.0,0.0,0.0,0.0,0.0,0.0,0.2568,0.251,0.0,0.0,0.0,0.0,0.0,0.0,0.0,0.0,0.0,0.0,0.0,-0.5401,-0.5412,0.0,0.0,0.0,0.0,0.0,0.0,0.0,0.0,0.0,0.0,0.0,0.0,-0.7972,-0.8115,-1.0285,-1.1239,-1.0798,-0.9266,-0.8113,-0.7341,-0.6657,-0.6434,-0.6594,0.0,0.0,0.0,0.0,0.0,0.0,0.0,0.0,0.0,0.0,0.0,0.0,0.0,0.0,0.0,0.0,0.0,0.0,0.0,0.0,0.0,0.0,0.0,0.0,0.0,-0.432,0.0,0.0,0.0,0.0,0.0,0.0,0.0,0.0,0.0,0.0,0.0,-1.3403,-1.5191,-1.6226,-1.7212,-1.8115,-1.92,-1.9108,0.0,0.0,0.0,0.0,0.0,0.0,0.0,0.0,0.0,0.0,0.0,0.0,0.0,0.0,-1.3469,-1.2243,-1.0686,-0.8858,-0.653,0.0,0.0,0.0,0.0,0.0,0.0,0.0,0.0,0.0,0.0,0.0,0.0,0.0,0.0,-0.0519,0.0,-0.104,0.0,0.0,0.0,0.0,0.0,0.0,0.0,0.0,-0.7007,-0.7296,-0.6834,-0.7025,-0.6337,0.0,-0.4726,-0.377,0.0,0.0,0.0,0.0,0.0,0.0,0.0,0.0,-0.7078,-0.7764,-0.9234,-0.9859,-0.952,-0.7853,-0.6754,-0.6388,-0.6277,-0.6629,-0.7538,-0.6013,-0.527,0.0,0.0,0.0,0.0,0.0,0.0,0.0,0.0,0.0,0.0,0.0,0.0,0.0,0.0,0.0,0.0,0.0,0.0,0.0,0.0,0.0,0.0,0.0,-0.2164,0.0,0.0,0.0,0.0,0.0,0.0,0.0,0.0,0.0,-1.2135,-1.3779,-1.5328,-1.6203,-1.7631,-1.8733,-1.9123,0.0,0.0,0.0,0.0,0.0,0.0,0.0,-1.4527,-1.6882,-1.4756,-1.3289,-1.4945,-1.5954,-1.6353,-1.5775,0.0,0.0,-1.6221,-1.5648,-1.4301,-1.0847,-1.1909,-1.3331,-1.3077,-1.2205,-1.1951,0.0,0.0,0.0,0.0,0.0,0.0,0.0,0.0,-0.5456,-0.4962,0.0,-0.4829,0.0,0.0,0.0,0.0,0.0,-0.5565,0.0,0.0,-0.9306,-0.9422,-0.8158,-0.8208,-0.7739,-0.6775,-0.6422,-0.5931,-0.5273,-0.3201,0.0,0.0,0.0,0.0,0.0,0.0,-0.5718,-0.8799,-0.9745,-0.9933,-0.9214,-0.8236,-0.7215,-0.615,-0.6997,-0.7629,-0.799,-0.7744,-0.7658,-0.7899,-0.4024,0.0,0.0,0.0,0.0,0.0,0.0,0.0,0.0,0.0,0.0,0.0,0.0,0.0,0.0,0.0,0.0,0.0,0.0,0.0,0.0,-0.3533,0.0,0.0,0.0,0.0,0.0,0.0,0.0,0.0,0.0,0.0,-1.4041,-1.4451,-1.5983,-1.8825,0.0,0.0,0.0,0.0,-2.0794,-2.0747,-2.0778,-1.9593,-1.6396,-1.7033,-1.8048,-1.8359,0.0,0.0,-1.8175,-1.8267,-1.8059,-1.6217,-1.7625,-1.8574,-1.7956,-1.7517,-1.6523,-1.439,-1.5048,-1.532,-1.3712,-1.4004,-1.4637,-0.5874,0.0,0.0,0.0,0.0,-0.3914,-0.4916,-0.6751,-0.753,-0.738,-0.6661,-0.8093,0.0,0.0,0.0,0.0,0.0,0.0,-0.8069,-0.9611,-0.9841,-0.9853,-0.9702,-0.9836,-0.9089,-0.7586,-0.7753,-0.7246,-0.6117,-0.5576,-0.4091,-0.1839,0.0,0.0,0.0,0.0,-0.7101,-0.7493,-0.7978,-0.8084,-0.7751,-0.6785,-0.667,-0.7446,-0.8078,-0.8961,-1.0124,-1.0225,-1.0157,-0.9935,-0.8517,0.0,0.0,0.0,0.0,0.0,0.0,0.0,0.0,0.0,0.0,0.0,0.0,0.0,0.0,0.0,0.0,0.0,0.0,0.0,-0.7935,-0.8874,-0.8797,0.0,0.0,0.0,0.0,0.0,0.0,0.0,0.0,0.0,-1.6383,-1.6712,-1.7547,0.0,0.0,-2.0146,-2.0732,-2.081,-2.081,-2.081,-2.081,0.0,-1.9483,-1.8007,-1.7725,-1.9821,-2.0907,-2.1337,-2.0962,-2.1002,-2.1005,-2.07,-2.0891,-2.1069,-2.1191,-1.9898,-1.8582,-1.7873,-1.782,-1.763,-1.6857,-1.6828,-1.6953,-1.1399,-0.9644,-0.6927,-0.6465,-0.7528,-0.7008,-0.7911,-0.981,-1.0696,-1.0767,-1.0385,-1.1792,-1.1246,-0.9255,-0.8082,0.0,0.0,0.0,-0.9486,-1.0601,-1.0853,-1.0937,-1.0903,-1.1018,-1.0363,-0.9131,-0.8871,-0.8268,-0.7396,-0.7037,-0.5786,-0.3807,0.0,0.0,-0.5097,-0.6799,-0.7741,-0.7884,-0.8066,-0.8196,-0.8388,-0.7727,-0.784,-0.8904,-0.9581,-1.0508,-1.1724,-1.2215,-1.2365,-1.2157,-1.1612,-1.0316,0.0,0.0,0.0,0.0,0.0,0.0,0.0,0.0,0.0,0.0,0.0,-0.1773,-0.5908,0.0,0.0,0.0,-1.0494,-0.9964,-0.9837,-1.121,0.0,0.0,0.0,0.0,0.0,0.0,0.0,-1.8889,-1.9746,-1.9698,-1.8703,-1.8967,-1.9327,-1.9437,-2.005,-2.0731,-2.1306,0.0,-2.081,-2.081,-2.081,-2.081,-2.0778,-1.9388,-1.894,-2.0782,-2.1493,-2.1886,-2.2186,-2.2215,-2.2343,-2.2579,-2.2426,-2.2315,-2.2659,-2.1427,-2.0284,-1.9909,-1.9386,-1.8936,-1.8702,-1.8515,-1.8419,-1.602,-1.5323,-0.9567,-0.861,-1.0796,-1.0101,-1.0877,-1.2823,-1.4203,-1.45,-1.4051,-1.5377,-1.4879,-1.2826,-1.0406,0.0,-0.8802,-1.0597,-1.1267,-1.1114,-1.2322,-1.2537,-1.1872,-1.1868,-1.1514,-1.0907,-0.9792,-0.9126,-0.8908,-0.784,-0.708,-0.6613,-0.6242,-0.6202,-0.6523,-0.6989,-0.8017,-0.9522,-0.943,-0.9712,-1.0409,-1.0142,-1.0128,-1.0426,-1.1405,-1.2241,-1.3004,-1.381,-1.4282,-1.4321,-1.363,-1.2877,-1.2144,0.0,0.0,0.0,0.0,0.0,0.0,0.0,0.0,0.0,0.0,0.0,0.0,0.0,0.0,0.0,-1.272,0.0,-1.2375,-1.1599,0.0,0.0,0.0,-1.4246,-0.5323,-1.3046,-1.9358,-2.0283,0.0,0.0,-2.0781,-2.099,-2.1055,-2.0926,-2.1039,-2.1306,-2.1849,-2.1285,-2.0893,-2.086,-2.0827,-2.0827,-2.086,-2.075,-2.0831,-2.1413,-2.1735,-2.1957,-2.2237,-2.2293,-2.236,-2.247,-2.247,-2.247,-2.2579,-2.2203,-2.1764,-2.095,-2.0229,-1.9735,-1.9591,-1.9308,-1.9225,-1.5793,-1.5875,-1.4816,-1.4343,-1.4281,-1.3872,-1.3769,-1.3972,-1.4862,-1.509,-1.4846,-1.6138,-1.619,-1.5428,-1.5186,-1.4471,-1.3369,-1.3561,-1.3626,-1.358,-1.3676,-1.3669,-1.3541,-1.3223,-1.2565,-1.165,-1.072,-0.9794,-0.9026,-0.8579,-0.849,-0.857,-0.8748,-0.8327,-0.7472,-0.8624,-0.9755,-1.0771,-1.0955,-1.1044,-1.0996,-1.1449,-1.1929,-1.2406,-1.3287,-1.4114,-1.4915,-1.5344,-1.552,-1.5413,-1.506,-1.4625,-1.4169,-1.2751,0.0,0.0,0.0,0.0,0.0,0.0,0.0,0.0,0.0,-0.3941,-1.316,0.0,-1.1127,0.0,-1.4707,-1.4578,-1.2222,-1.3812,0.0,0.0,-1.4826,-1.5384,-1.4573,-1.6115,-1.8213,-2.0783,-2.0782,-2.0767,-2.1135,-2.1119,-2.1135,-2.1214,-2.1277,-2.0622,-1.8825,-2.0388,-2.1573,-2.1246,-2.1103,-2.1039,-2.1087,-2.1246,-2.1432,-2.1735,-2.1853,-2.2003,-2.2254,-2.2135,-2.2073,-2.2349,-2.226,-2.226,-2.2535,-2.2354,-2.2085,-2.1776,-2.1278,-2.0735,-2.0475,-1.9971,-1.9562,-1.5675,-1.588,-1.674,-1.6556,-1.5715,-1.511,-1.4548,-1.407,-1.461,-1.5105,-1.5574,-1.6536,-1.6773,-1.6439,-1.6428,-1.5953,-1.5083,-1.5059,-1.49,-1.4572,-1.4702,-1.4839,-1.4934,-1.4076,-1.3399,-1.2768,-1.1653,-1.0677,-0.9969,-0.9814,-0.9814,-0.9902,-1.0341,-1.0283,-0.9867,-1.0596,-1.1091,-1.136,-1.209,-1.2332,-1.212,-1.2754,-1.2949,-1.2713,-1.4328,-1.5077,-1.4766,-1.5927,-1.6115,-1.52,-1.4761,-1.45,-1.4386,-1.2943,-1.1506,0.0,0.0,0.0,0.0,0.0,0.0,0.0,0.0,0.0,0.0,0.0,-1.4199,-1.4675,-1.5739,-1.5646,-1.3792,-1.5742,-1.7025,-1.6757,-1.6965,-1.7639,-1.8963,-1.8839,-1.9383,-2.1283,-2.1325,-2.1183,-2.1277,-2.1388,-2.1433,-2.1509,-2.154,-2.0983,-1.9577,-2.0739,-2.1827,-2.1631,-2.1432,-2.1324,-2.134,-2.1524,-2.1751,-2.1928,-2.2032,-2.2135,-2.2293,-2.2209,-2.2163,-2.236,-2.2287,-2.226,-2.2525,-2.2544,-2.2392,-2.2096,-2.1866,-2.1524,-2.1103,-2.0719,-2.0336,-1.5693,-1.576,-1.6885,-1.6941,-1.6104,-1.5229,-1.4552,-1.4071,-1.4366,-1.5185,-1.631,-1.6899,-1.7117,-1.6926,-1.6457,-1.5981,-1.5584,-1.5869,-1.5698,-1.5133,-1.5558,-1.5911,-1.6187,-1.475,-1.4068,-1.4029,-1.2494,-1.1528,-1.1124,-1.1023,-1.0947,-1.0981,-1.1386,-1.1887,-1.2452,-1.2498,-1.2267,-1.1939,-1.2933,-1.3387,-1.3179,-1.3903,-1.3695,-1.2681,-1.5171,-1.5878,-1.44,-1.6283,-1.6586,-1.4809,-1.4327,-1.4028,-1.3848,-1.3043,-1.2279,0.0,-1.0861,0.0,0.0,0.0,0.0,0.0,0.0,0.0,0.0,-1.5762,-1.6989,-1.5112,-1.6494,-1.7106,-1.6263,-1.7501,-1.8701,-1.9546,-1.9878,-2.0194,-2.0503,-2.0974,-2.1419,-2.1844,-2.1724,-2.1573,-2.1481,-2.1678,-2.1811,-2.1857,-2.1857,-2.1685,-2.146,-2.1595,-2.1869,-2.1969,-2.1794,-2.1631,-2.1584,-2.1781,-2.2003,-2.2044,-2.2163,-2.2293,-2.2394,-2.2338,-2.2321,-2.2432,-2.2449,-2.246,-2.2596,-2.2738,-2.2668,-2.2281,-2.232,-2.2164,-2.1538,-2.1193,-2.1014,-1.6111,-1.6115,-1.7289,-1.7351,-1.6693,-1.6715,-1.6472,-1.5966,-1.5904,-1.6477,-1.7445,-1.7966,-1.8452,-1.892,-1.9107,-1.8756,-1.7902,-1.7765,-1.7396,-1.677,-1.6518,-1.6673,-1.7124,-1.5572,-1.4734,-1.4463,-1.2909,-1.1819,-1.1276,-1.1183,-1.1375,-1.1765,-1.2094,-1.2464,-1.2975,0.0,0.0,0.0,-1.3235,-1.2936,-1.3054,-1.4418,-1.4993,-1.4764,-1.7038,0.0,-1.7413,-1.7793,-1.7664,-1.6877,-1.7022,0.0,0.0,0.0,0.0,0.0,0.0,0.0,0.0,0.0,0.0,0.0,-1.7462,-1.6407,-1.5599,-1.6424,-1.7124,-1.7405,-1.7941,-1.842,-1.8748,-1.9383,-2.002,-2.0508,-2.0735,-2.0847,-2.0778,-2.1293,-2.1827,-2.2152,-2.1961,-2.1873,-2.2049,-2.2032,-2.2015,-2.2163,-2.2209,-2.2152,-2.1974,-2.1957,-2.194,-2.1869,-2.1882,-2.1911,-2.1823,-2.2032,-2.2237,-2.2321,-2.2293,-2.2338,-2.2366,-2.2338,-2.2327,-2.2338,-2.2466,-2.2603,-2.2729,-2.2868,-2.2927,-2.2902,-2.2927,-2.2634,-2.1628,-2.0931,-2.0448,-1.667,0.0,-1.7345,-1.7331,0.0,-1.7578,-1.764,-1.7288,-1.6827,-1.7009,-1.7645,-1.8104,-1.8666,-1.928,-1.9626,-1.9392,-1.876,-1.8578,-1.8092,-1.7368,-1.7078,-1.7088,-1.7346,-1.6019,-1.5435,-1.5308,-1.3779,-1.2915,-1.2594,-1.2271,-1.2316,-1.2764,-1.3135,-1.354,-1.4,-1.4747,-1.4947,-1.4581,-1.4116,-1.3937,-1.4068,-1.5196,-1.5478,-1.4883,-1.7126,0.0,0.0,0.0,0.0,0.0,0.0,0.0,0.0,0.0,0.0,-1.8588,-1.8464,-1.8425,-1.862,-1.8333,-1.8755,-2.015,-1.9295,-1.8413,-1.7723,-1.7827,-1.8121,-1.8584,-1.8929,-1.9356,-1.9993,-2.0382,-2.0797,-2.1323,-2.1432,-2.1417,-2.1355,-2.1691,-2.2032,-2.2254,-2.2152,-2.2123,-2.2282,-2.2276,-2.2287,-2.2377,-2.2422,-2.2377,-2.2304,-2.2203,-2.2118,-2.2106,-2.2147,-2.2175,-2.2147,-2.2237,-2.231,-2.2338,-2.2338,-2.231,-2.2338,-2.231,-2.231,-2.2349,-2.2432,-2.2542,-2.2703,-2.2842,-2.2944,-2.2919,-2.2893,-2.2721,-2.2056,-2.164,-2.1216,-1.7456,-1.714,-1.7575,-1.7456,-1.7024,-1.8121,-1.855,-1.8511,0.0,0.0,0.0,-1.8061,-1.8568,-1.9179,-1.9392,-1.9268,-1.8896,-1.8828,-1.8329,-1.7479,-1.7379,-1.7278,-1.7245,-1.6373,-1.5986,-1.5921,-1.4769,-1.4175,-1.4043,-1.3501,-1.3476,-1.3917,-1.4356,-1.4774,-1.5268,-1.602,-1.5953,-1.5079,-1.5074,-1.5058,-1.501,-1.5886,-1.5811,-1.4647,-1.6957,-1.7519,-1.6048,-1.7515,-1.7301,-1.5141,-1.5579,-1.6013,-1.6122,-1.6235,-1.7155,-1.8979,-1.8697,-1.8361,-1.8282,-1.85,-1.8999,-1.9818,-1.9737,-1.9566,-1.9347,-1.9213,-1.9161,-1.9244,-1.9551,-2.0015,-2.055,-2.0878,-2.1337,-2.1924,-2.1957,-2.1915,-2.1915,-2.2061,-2.2203,-2.2321,-2.2349,-2.2338,-2.2377,-2.246,-2.2542,-2.2569,-2.2569,-2.2552,-2.2542,-2.2432,-2.2349,-2.2405,-2.2432,-2.2405,-2.2377,-2.2349,-2.231,-2.231,-2.231,-2.2282,-2.2282,-2.2265,-2.2276,-2.2315,-2.2381,-2.248,-2.2579,-2.2816,-2.2919,-2.2842,-2.2703,-2.2565,-2.2435,-2.227,-2.181,-1.8485,-1.8228,-1.8632,-1.8313,-1.7668,-1.8629,-1.9482,-2.0018,-1.9159,-1.8509,-1.803,-1.8518,-1.8963,-1.9436,-1.9336,-1.9167,-1.8896,-1.8497,-1.8,-1.7479,-1.7379,-1.7278,-1.7245,-1.67,-1.6256,-1.5965,-1.5332,-1.4883,-1.4592,-1.4276,-1.4497,-1.5185,-1.5454,-1.5924,-1.6639,-1.7236,-1.7229,-1.6564,-1.5513,-1.4857,-1.4694,-1.5845,-1.6413,-1.6354,-1.8114,-1.8927,-1.8435,-1.874,-1.8641,-1.7935,-1.8318,-1.8467,-1.8292,-1.8651,-1.8907,-1.8793,-1.8319,-1.8175,-1.8439,-1.8204,-1.8086,-1.8307,-1.9486,-2.027,-2.0273,-1.9609,-1.9207,-1.9288,-1.9752,-2.0189,-2.0583,-2.1086,-2.1584,-2.1969,-2.2215,-2.2304,-2.2237,-2.2304,-2.2426,-2.2579,-2.2542,-2.2515,-2.2605,-2.2649,-2.2685,-2.2738,-2.2738,-2.2721,-2.2712,-2.2596,-2.2515,-2.2552,-2.2552,-2.2525,-2.2432,-2.2377,-2.2366,-2.231,-2.2327,-2.2265,-2.222,-2.2192,-2.2147,-2.213,-2.2432,-2.2586,-2.2497,-2.2902,-2.3144,-2.3133,-2.28,-2.2399,-2.2283,-2.1742,-2.1104,-1.8851,-1.8159,-1.8236,-1.7978,-1.7513,-1.8773,-1.9798,-2.0635,-2.0452,-1.9838,-1.8971,-1.9172,-1.9437,-1.9842,-1.9976,-1.9701,-1.9099,-1.8817,-1.8216,-1.7401,-1.7334,-1.7125,-1.6885,-1.6907,-1.6895,-1.6749,-1.6453,-1.6291,-1.6247,-1.6037,-1.6052,-1.6277,-1.6822,-1.7452,-1.8193,-1.86,-1.8619,-1.8338,-1.7171,-1.6532,-1.6442,-1.7567,-1.7908,-1.7529,-1.8625,-1.8936,-1.8358,-1.8489,-1.8503,-1.84,-1.8567,-1.8736,-1.8898,-1.8936,-1.8988,-1.9064,-1.8616,-1.8514,-1.8927,-1.9133,-1.9235,-1.9248,-1.9939,-2.0475,-2.0628,-2.0204,-1.9965,-2.0035,-2.0273,-2.0613,-2.1023,-2.1354,-2.1705,-2.2215,-2.2343,-2.2426,-2.2515,-2.2552,-2.2588,-2.2685,-2.2659,-2.2632,-2.2685,-2.2712,-2.2738,-2.279,-2.2842,-2.285,-2.285,-2.2747,-2.2642,-2.2642,-2.2632,-2.2596,-2.2515,-2.2432,-2.2377,-2.231,-2.2327,-2.2237,-2.2147,-2.2073,-2.2163,-2.222,-2.2521,-2.2684,-2.2624,-2.2884,-2.3126,-2.3253,-2.297,-2.267,-2.2617,-2.1993,-2.1241,-1.9331,-1.8375,-1.8333,-1.8173,-1.808,-1.916,-2.0204,-2.1104,-2.1356,-2.1003,-2.0205,-1.9929,-1.9961,-2.02,-2.0275,-1.9944,-1.9345,-1.908,-1.8439,-1.7557,-1.7368,-1.7114,-1.6782,-1.7102,-1.7269,-1.7358,-1.7353,-1.7514,-1.7662,-1.7599,-1.7423,-1.735,-1.8201,-1.8943,-1.9356,-1.9749,-1.9901,-1.982,-1.9188,-1.8665,-1.8448,-1.9229,-1.9273,-1.8578,-1.8971,-1.8879,-1.8164,-1.8214,-1.8386,-1.8464,-1.84,-1.8567,-1.9116,-1.8889,-1.8889,-1.9302,-1.9011,-1.9011,-1.942,-2.0065,-2.0392,-2.0304,-2.0441,-2.0662,-2.099,-2.1052,-2.0985,-2.0875,-2.0876,-2.1103,-2.1507,-2.1658,-2.1882,-2.2415,-2.248,-2.2535,-2.2685,-2.2712,-2.2712,-2.2712,-2.2712,-2.2712,-2.2712,-2.2738,-2.2816,-2.2893,-2.2919,-2.2919,-2.2919,-2.2884,-2.285,-2.2816,-2.2738,-2.2685,-2.2605,-2.2579,-2.2487,-2.2349,-2.231,-2.222,-2.2101,-2.2073,-2.2175,-2.2304,-2.2569,-2.2781,-2.2876,-2.3052,-2.3175,-2.3277,-2.3018,-2.2729,-2.25,-2.199,-2.1437,-2.0409,-1.9888,-1.994,-2.0191,-2.02,-2.0399,-2.0955,-2.1628,-2.1771,-2.1805,-2.17,-2.0877,-2.0482,-2.0445,-1.985,-1.9559,-1.9389,-1.881,-1.8433,-1.8124,-1.7698,-1.7456,-1.7341,-1.7221,-1.7138,-1.7237,-1.7728,-1.7981,-1.8118,-1.826,-1.8277,-1.8412,-1.9556,-1.9999,-1.9726,-2.0447,-2.0805,-2.0716,-2.1067,-2.0718,-1.9628,-1.9853,-1.9822,-1.9335,-1.9457,-1.9296,-1.874,-1.8898,-1.8988,-1.8988,-1.8683,-1.8774,-1.9265,-1.9339,-1.9302,-1.9339,-1.9384,-1.9573,-1.9914,-2.0342,-2.0509,-2.0373,-2.0728,-2.123,-2.1744,-2.2332,-2.2243,-2.1599,-2.153,-2.1807,-2.1911,-2.2073,-2.2248,-2.247,-2.2605,-2.2685,-2.2685,-2.2712,-2.2712,-2.2712,-2.2712,-2.2712,-2.2738,-2.285,-2.3003,-2.3095,-2.3077,-2.3045,-2.302,-2.3045,-2.3077,-2.3052,-2.3052,-2.2927,-2.2738,-2.2764,-2.2685,-2.246,-2.2321,-2.2265,-2.2175,-2.2101,-2.2113,-2.2409,-2.2642,-2.2842,-2.3095,-2.333,-2.3494,-2.3387,-2.2995,-2.2357,-2.1479,-2.1271,-2.1283,-2.056,-1.9991,-2.0055,-2.0217,-2.0507,-2.0757,-2.1244,-2.1829,-2.203,-2.225,-2.2521,-2.2084,-2.172,-2.146,-2.0963,-2.0498,-1.9986,-1.9361,-1.875,-1.819,-1.7716,-1.7426,-1.7225,-1.7126,-1.7147,-1.7321,-1.7847,-1.8314,-1.8747,-1.9196,-1.9634,-1.9969,-2.0575,-2.0851,-2.0831,-2.1226,-2.1541,-2.1732,-2.203,-2.1995,-2.1648,-2.1516,-2.1086,-2.0381,-2.05,-2.0241,-1.9495,-1.9822,-1.9815,-1.9205,-1.9064,-1.9168,-1.9376,-1.9741,-1.9833,-1.9741,-2.001,-2.0239,-2.0345,-2.0579,-2.0711,-2.0595,-2.1391,-2.2371,-2.357,-2.3846,-2.3712,-2.3354,-2.3212,-2.3109,-2.2883,-2.2885,-2.283,-2.2699,-2.2659,-2.2729,-2.2712,-2.2729,-2.2712,-2.2712,-2.2712,-2.2764,-2.2893,-2.3095,-2.3193,-2.3217,-2.3223,-2.3295,-2.3217,-2.3144,-2.3157,-2.3307,-2.3422,-2.3394,-2.3133,-2.2977,-2.2902,-2.2764,-2.2487,-2.2265,-2.2265,-2.2118,-2.2141,-2.249,-2.2721,-2.2952,-2.3241,-2.3424,-2.3585,-2.3522,-2.3512,-2.2973,-2.2028,-2.2242,-2.2422,-2.0809,-2.0409,-2.0156,-2.0232,-2.0534,-2.0686,-2.0969,-2.1354,-2.1777,-2.2122,-2.2491,-2.2472,-2.2369,-2.2078,-2.1719,-2.1094,-2.0351,-1.9661,-1.8879,-1.8154,-1.7693,-1.734,-1.7075,-1.7062,-1.7134,-1.7339,-1.7814,-1.8601,-1.941,-1.9883,-2.0401,-2.0855,-2.1148,-2.1342,-2.1478,-2.1791,-2.2184,-2.2509,-2.2646,-2.2768,-2.2934,-2.2768,-2.2255,-2.1447,-2.1499,-2.1178,-2.0375,-2.0561,-2.04,-1.9871,-1.9707,-1.9669,-1.9705,-2.0096,-2.027,-2.02,-2.061,-2.0794,-2.0663,-2.0844,-2.0925,-2.0907,-2.1762,-2.3324,-2.505,-2.4959,-2.4584,-2.4692,-2.4581,-2.4198,-2.3612,-2.3317,-2.3072,-2.2824,-2.2876,-2.3022,-2.3102,-2.3187,-2.3298,-2.3074,-2.3127,-2.3085,-2.3137,-2.3253,-2.3301,-2.3295,-2.343,-2.3504,-2.3383,-2.3295,-2.333,-2.3562,-2.3714,-2.371,-2.3468,-2.3301,-2.3151,-2.2977,-2.2694,-2.2432,-2.2394,-2.2231,-2.2226,-2.2642,-2.2825,-2.3052,-2.336,-2.3562,-2.3678,-2.3804,-2.381,-2.3605,-2.2923,-2.3473,-2.344,-2.1602,-2.1264,-2.0908,-2.0772,-2.0775,-2.0456,-2.0153,-2.0077,-2.0653,-2.1164,-2.1499,-2.1628,-2.1805,-2.1935,-2.1285,-2.0719,-2.0002,-1.9436,-1.879,-1.8151,-1.7787,-1.748,-1.709,-1.7048,-1.6995,-1.7115,-1.7735,-1.8708,-1.9987,-2.0065,-2.0207,-2.0623,-2.1186,-2.1342,-2.131,-2.1992,-2.254,-2.2799,-2.2844,-2.3038,-2.3275,-2.3319,-2.3024,-2.2463,-2.2209,-2.2036,-2.1756,-2.0895,-2.0624,-2.1286,-2.0608,-2.0285,-2.0369,-2.0385,-2.0438,-2.0574,-2.1038,-2.1151,-2.0989,-2.1279,-2.1294,-2.1006,-2.1738,-2.3553,-2.6539,-2.5446,-2.4719,-2.5136,-2.5178,-2.4723,-2.4046,-2.3409,-2.3006,-2.3101,-2.3484,-2.3786,-2.4051,-2.4493,-2.4527,-2.4064,-2.3937,-2.3819,-2.357,-2.3364,-2.3382,-2.3458,-2.3494,-2.3453,-2.3481,-2.3513,-2.3649,-2.3774,-2.3876,-2.3837,-2.3522,-2.3445,-2.3435,-2.3271,-2.2985,-2.2685,-2.2623,-2.2596,-2.2685,-2.2773,-2.2927,-2.3175,-2.3494,-2.3678,-2.3789,-2.3873,-2.393,-2.3689,-2.3467,-2.4172,-2.4231,-2.2044,-2.1793,-2.1841,-2.1396,-2.0673,-2.0616,-2.0288,-1.986,-2.0052,-2.0423,-2.0815,-2.0839,-2.0704,-2.0491,-2.0091,-1.9867,-1.9678,-1.877,-1.8132,-1.782,-1.7303,-1.7137,-1.7325,-1.7058,-1.7002,-1.7154,-1.7421,-1.8104,-1.915,-1.9906,-2.0481,-2.0854,-2.1536,-2.1871,-2.1931,-2.2321,-2.2709,-2.2904,-2.3008,-2.3231,-2.345,-2.364,-2.3606,-2.348,-2.3063,-2.2793,-2.2696,-2.2286,-2.217,-2.2264,-2.1221,-2.0832,-2.1308,-2.1492,-2.1693,-2.1956,-2.2557,-2.2736,-2.2394,-2.288,-2.2522,-2.1166,-2.2986,-2.4597,-2.5852,-2.575,-2.581,-2.6312,-2.5729,-2.5282,-2.5352,-2.4425,-2.3685,-2.3831,-2.4118,-2.4566,-2.5075,-2.5428,-2.5438,-2.5137,-2.485,-2.4361,-2.3845,-2.3588,-2.3584,-2.3594,-2.366,-2.3664,-2.3685,-2.3834,-2.3996,-2.4036,-2.4112,-2.4094,-2.3958,-2.3692,-2.354,-2.3445,-2.3236,-2.3035,-2.2927,-2.2825,-2.2884,-2.3164,-2.3259,-2.3376,-2.3725,-2.3873,-2.3978,-2.3978,-2.4016,-2.3992,-2.3917,-2.4592,-2.4747,-2.2278,-2.2137,-2.2231,-2.1589,-2.0597,-2.0597,-2.0103,-1.9431,-1.9476,-1.9749,-1.9908,-1.9676,-1.9315,-1.8797,-1.821,-1.7952,-1.807,-1.7594,-1.7317,-1.697,-1.6646,-1.6764,-1.7106,-1.7025,-1.7031,-1.7199,-1.7282,-1.7752,-1.8636,-1.9609,-2.0309,-2.0843,-2.158,-2.2027,-2.2209,-2.2593,-2.2862,-2.2864,-2.2993,-2.3103,-2.3164,-2.3193,-2.3412,-2.3671,-2.3378,-2.3288,-2.3513,-2.3451,-2.3358,-2.3117,-2.216,-2.1798,-2.2261,-2.2499,-2.2701,-2.2949,-2.362,-2.3834,-2.3489,-2.4024,-2.4051,-2.3157,-2.4154,-2.4994,-2.4769,-2.5296,-2.5981,-2.6191,-2.5502,-2.5022,-2.5588,-2.498,-2.4504,-2.4825,-2.5198,-2.5629,-2.624,-2.6509,-2.6545,-2.6258,-2.5727,-2.5005,-2.4288,-2.4205,-2.4017,-2.3732,-2.381,-2.3798,-2.3795,-2.3996,-2.419,-2.419,-2.419,-2.419,-2.4095,-2.3899,-2.3774,-2.3667,-2.3468,-2.3301,-2.323,-2.3133,-2.3212,-2.3473,-2.3671,-2.3795,-2.3919,-2.4077,-2.4135,-2.4135,-2.4132,-2.4127,-2.4433,-2.4957,-2.5117,-2.2306,-2.2381,-2.2137,-2.1458,-2.0534,-2.0333,-1.9527,-1.8755,-1.8876,-1.8939,-1.8748,-1.8136,-1.7722,-1.7214,-1.6223,-1.5311,-1.5332,-1.6103,-1.6254,-1.5747,-1.608,-1.6384,-1.6609,-1.6859,-1.7044,-1.7212,-1.7406,-1.7934,-1.8628,-1.9113,-1.9768,-2.0543,-2.1167,-2.1685,-2.206,-2.2586,-2.2891,-2.2757,-2.2662,-2.2559,-2.2225,-2.2123,-2.2492,-2.3297,-2.3044,-2.3274,-2.4321,-2.4125,-2.4099,-2.4147,-2.3619,-2.3199,-2.3301,-2.3412,-2.3398,-2.3602,-2.4115,-2.4307,-2.4211,-2.472,-2.5828,-2.6398,-2.549,-2.4313,-2.371,-2.4155,-2.4795,-2.5022,-2.4366,-2.4007,-2.4962,-2.5213,-2.541,-2.5901,-2.6518,-2.7,-2.7423,-2.7915,-2.8026,-2.7375,-2.6667,-2.5923,-2.5306,-2.5027,-2.4707,-2.4021,-2.3901,-2.3907,-2.3813,-2.3996,-2.4151,-2.4247,-2.4321,-2.4375,-2.4247,-2.4077,-2.4016,-2.3915,-2.3685,-2.3508,-2.3513,-2.3468,-2.3584,-2.3819,-2.3961,-2.4078,-2.4116,-2.4266,-2.4338,-2.4356,-2.4321,-2.4282,-2.4576,-2.4999,-2.5575,-2.2782,-2.2748,-2.2768,-2.2055,-2.0934,-2.0346,-1.9643,-1.8886,-1.8182,-1.7927,-1.7888,-1.688,-1.6384,-1.6191,-1.5225,-1.427,-1.3607,-1.4327,-1.4835,-1.5147,-1.5405,-1.5846,-1.6362,-1.665,-1.6931,-1.7199,-1.7502,-1.7909,-1.8492,-1.9137,-1.9841,-2.0407,-2.1067,-2.1457,-2.165,-2.198,-2.2184,-2.2164,-2.2141,-2.2339,-2.2856,-2.2294,-2.2498,-2.3452,-2.3343,-2.3387,-2.3718,-2.4302,-2.4912,-2.5406,-2.5106,-2.5065,-2.5376,-2.5113,-2.5042,-2.5365,-2.5951,-2.6336,-2.6336,-2.6515,-2.6906,-2.7444,-2.69,-2.5432,-2.3498,-2.3418,-2.4406,-2.5636,-2.5461,-2.5404,-2.6447,-2.725,-2.7273,-2.709,-2.7378,-2.7885,-2.8375,-2.8704,-2.8489,-2.793,-2.7482,-2.6684,-2.571,-2.5514,-2.5294,-2.4187,-2.4263,-2.4451,-2.3961,-2.3878,-2.4173,-2.4478,-2.4561,-2.4561,-2.4392,-2.4284,-2.4192,-2.4096,-2.3878,-2.3753,-2.3774,-2.3837,-2.3959,-2.4079,-2.4229,-2.432,-2.4356,-2.4409,-2.4495,-2.4559,-2.4547,-2.4534,-2.4555,-2.5005,-2.5665,-2.3028,-2.2993,-2.2965,-2.2199,-2.0947,-2.0156,-1.9364,-1.8505,-1.7519,-1.7209,-1.6961,-1.5777,-1.5183,-1.5007,-1.4046,-1.3208,-1.2684,-1.3297,-1.4031,-1.4644,-1.4957,-1.5534,-1.6398,-1.6791,-1.7128,-1.7475,-1.772,-1.8082,-1.8553,-1.9296,-1.9912,-2.0266,-2.0955,-2.1362,-2.1491,-2.2046,-2.2291,-2.224,-2.2324,-2.2499,-2.2664,-2.2258,-2.2445,-2.3328,-2.3451,-2.3783,-2.4425,-2.5032,-2.532,-2.5428,-2.5291,-2.543,-2.5607,-2.5331,-2.5401,-2.5704,-2.6139,-2.6605,-2.7217,-2.6877,-2.7232,-2.7617,-2.713,-2.5782,-2.388,-2.3365,-2.4206,-2.5315,-2.527,-2.5506,-2.6534,-2.7178,-2.7515,-2.7746,-2.8107,-2.8581,-2.9104,-2.9218,-2.903,-2.8587,-2.8356,-2.7552,-2.6728,-2.6385,-2.6055,-2.4835,-2.4726,-2.4802,-2.4148,-2.3837,-2.4211,-2.4591,-2.4837,-2.4749,-2.4528,-2.4444,-2.4391,-2.4248,-2.4097,-2.4039,-2.4019,-2.4096,-2.4229,-2.432,-2.4461,-2.4476,-2.4528,-2.4512,-2.4545,-2.4642,-2.4712,-2.4636,-2.4652,-2.5282,-2.5891,-2.2979,-2.3042,-2.2754,-2.1903,-2.0636,-1.9901,-1.8943,-1.7717,-1.7115,-1.6755,-1.6158,-1.515,-1.4416,-1.4002,-1.3431,-1.2855,-1.2532,-1.354,-1.4289,-1.4657,-1.5074,-1.5828,-1.6778,-1.7253,-1.7625,-1.7922,-1.8163,-1.8489,-1.8959,-1.9568,-1.9884,-2.0284,-2.0865,-2.125,-2.1523,-2.2524,-2.2786,-2.2629,-2.2894,-2.2636,-2.2172,-2.1856,-2.2248,-2.3213,-2.3358,-2.4114,-2.5429,-2.5634,-2.5257,-2.4506,-2.4669,-2.4671,-2.4252,-2.447,-2.4842,-2.4964,-2.5046,-2.5924,-2.6725,-2.6377,-2.6233,-2.7253,-2.6122,-2.4676,-2.4067,-2.3743,-2.3844,-2.4375,-2.431,-2.4577,-2.5436,-2.5886,-2.6534,-2.7744,-2.8558,-2.9175,-2.9349,-2.9386,-2.9251,-2.9209,-2.9166,-2.8765,-2.7669,-2.7602,-2.6881,-2.5801,-2.5421,-2.526,-2.4288,-2.4016,-2.4173,-2.454,-2.4947,-2.4865,-2.4639,-2.4559,-2.4508,-2.4425,-2.4302,-2.4302,-2.4284,-2.4356,-2.4446,-2.4547,-2.461,-2.4642,-2.4673,-2.4689,-2.4716,-2.4814,-2.479,-2.4643,-2.4926,-2.5473,-2.6095,-2.2951,-2.2768,-2.2332,-2.1629,-2.0699,-1.9837,-1.9206,-1.8546,-1.7271,-1.6837,-1.6615,-1.5681,-1.5137,-1.5167,-1.4999,-1.4715,-1.4531,-1.5225,-1.5984,-1.6432,-1.6578,-1.6923,-1.7404,-1.772,-1.7949,-1.823,-1.8815,-1.9237,-1.9406,-2.0145,-2.0559,-2.0559,-2.0845,-2.0991,-2.1085,-2.1735,-2.2086,-2.238,-2.2193,-2.26,-2.2975,-2.2053,-2.1924,-2.2802,-2.3329,-2.3892,-2.4574,-2.491,-2.4883,-2.4436,-2.4889,-2.4993,-2.4576,-2.4843,-2.5025,-2.5135,-2.5367,-2.5579,-2.5852,-2.5946,-2.5873,-2.5507,-2.5393,-2.491,-2.4087,-2.3899,-2.4169,-2.465,-2.4841,-2.492,-2.5459,-2.5981,-2.6632,-2.7211,-2.8363,-2.9237,-2.9295,-2.9388,-2.9386,-2.9323,-2.9181,-2.8706,-2.8254,-2.8172,-2.7912,-2.6701,-2.645,-2.6434,-2.5052,-2.4191,-2.4338,-2.4685,-2.4993,-2.4893,-2.4775,-2.4682,-2.462,-2.4578,-2.4545,-2.4559,-2.4559,-2.4626,-2.4676,-2.4742,-2.4753,-2.4764,-2.4851,-2.4907,-2.4955,-2.493,-2.4975,-2.4917,-2.5101,-2.5527,-2.6197,-2.218,-2.1794,-2.1864,-2.1281,-2.02,-1.9595,-1.9181,-1.8618,-1.7682,-1.7198,-1.7078,-1.6138,-1.5717,-1.5867,-1.5883,-1.5762,-1.5758,-1.6886,-1.7702,-1.8226,-1.8799,-1.8658,-1.8302,-1.8394,-1.8663,-1.8638,-1.9452,-1.9686,-1.9826,-2.0679,-2.1115,-2.1161,-2.1237,-2.148,-2.2045,-2.2378,-2.2833,-2.3333,-2.3253,-2.3517,-2.3687,-2.298,-2.2772,-2.3184,-2.3636,-2.3984,-2.431,-2.4665,-2.4754,-2.4658,-2.4658,-2.4548,-2.4353,-2.4474,-2.4607,-2.4683,-2.4746,-2.4783,-2.4849,-2.5059,-2.4965,-2.4617,-2.4754,-2.4584,-2.4262,-2.4078,-2.4293,-2.4684,-2.4832,-2.4929,-2.5208,-2.5894,-2.634,-2.6581,-2.7586,-2.8329,-2.8386,-2.8666,-2.8891,-2.8964,-2.9111,-2.9142,-2.8544,-2.8913,-2.8262,-2.728,-2.7005,-2.6579,-2.5745,-2.5041,-2.4526,-2.4865,-2.498,-2.4879,-2.4837,-2.4775,-2.4771,-2.4716,-2.479,-2.4799,-2.4828,-2.4847,-2.4851,-2.4884,-2.4884,-2.4912,-2.4961,-2.5,-2.4942,-2.4968,-2.5094,-2.5156,-2.5246,-2.5298,-2.6026,-2.0914,-2.0574,-2.1259,-2.0677,-1.9468,-1.9419,-1.9083,-1.8374,-1.8181,-1.7955,-1.7666,-1.68,-1.6776,-1.655,-1.7098,-1.6762,-1.6892,-1.8659,-1.9377,-2.0108,-2.0752,-2.0772,-1.9244,-1.9505,-1.9517,-1.9351,-1.9956,-2.0087,-2.0243,-2.1034,-2.1577,-2.1708,-2.1877,-2.2513,-2.305,-2.3747,-2.4362,-2.4596,-2.4805,-2.4552,-2.4165,-2.3806,-2.3596,-2.3457,-2.4025,-2.4453,-2.4787,-2.4964,-2.5,-2.5018,-2.4176,-2.3813,-2.3679,-2.3661,-2.3674,-2.3705,-2.3827,-2.3923,-2.3967,-2.4052,-2.4067,-2.4321,-2.419,-2.4095,-2.4321,-2.4248,-2.4228,-2.445,-2.4445,-2.459,-2.4785,-2.5375,-2.5675,-2.5809,-2.6375,-2.6656,-2.6897,-2.7456,-2.8034,-2.835,-2.8988,-2.9214,-2.927,-2.9139,-2.8652,-2.7307,-2.7194,-2.697,-2.6392,-2.5808,-2.5254,-2.4974,-2.4993,-2.4851,-2.4851,-2.487,-2.4874,-2.4883,-2.5012,-2.5041,-2.5046,-2.5053,-2.5043,-2.5031,-2.505,-2.505,-2.5038,-2.5038,-2.4994,-2.5025,-2.5141,-2.513,-2.5101,-2.5101,-2.5538,-1.9818,-1.9952,-1.9852,-1.9433,-1.9058,-1.947,-1.9542,-1.9278,-1.9232,-1.9152,-1.9047,-1.9132,-1.9042,-1.8878,-1.9612,-2.0245,-1.9851,-2.0879,-2.1662,-2.1927,-2.3103,-2.2762,-2.1437,-2.1023,-2.037,-2.0158,-2.0548,-2.0676,-2.0647,-2.1163,-2.1768,-2.2007,-2.2316,-2.2697,-2.3525,-2.4076,-2.4426,-2.4802,-2.4985,-2.4912,-2.4486,-2.4113,-2.3764,-2.3405,-2.4225,-2.491,-2.516,-2.5305,-2.5305,-2.5017,-2.4345,-2.3771,-2.3703,-2.37,-2.3703,-2.371,-2.3774,-2.3855,-2.3878,-2.3999,-2.4115,-2.4266,-2.4303,-2.4321,-2.4394,-2.4375,-2.4357,-2.4445,-2.4478,-2.4578,-2.4742,-2.4851,-2.5051,-2.5182,-2.5264,-2.5383,-2.5374,-2.563,-2.6511,-2.7563,-2.7888,-2.7706,-2.7727,-2.7874,-2.7591,-2.7196,-2.7175,-2.7248,-2.6814,-2.623,-2.5782,-2.516,-2.5087,-2.4994,-2.4968,-2.4981,-2.5031,-2.5072,-2.5184,-2.5274,-2.5264,-2.5236,-2.5215,-2.5214,-2.5222,-2.5212,-2.5171,-2.5201,-2.5212,-2.522,-2.5152,-2.5018,-2.4919,-2.4915,-2.4917,-1.8865,-1.9043,-1.9481,-1.94,-1.9231,-1.9901,-2.0258,-2.0294,-2.0466,-2.0513,-2.0447,-2.0636,-2.0427,-2.0221,-2.1218,-2.1573,-2.178,-2.2731,-2.3385,-2.362,-2.4265,-2.3982,-2.3234,-2.2483,-2.1837,-2.0931,-2.1381,-2.1281,-2.0922,-2.1483,-2.22,-2.2374,-2.2805,-2.3583,-2.4261,-2.468,-2.5167,-2.5539,-2.5731,-2.5628,-2.5335,-2.4854,-2.4196,-2.3695,-2.4236,-2.4737,-2.4837,-2.4912,-2.4986,-2.4875,-2.4469,-2.4041,-2.3939,-2.3939,-2.3981,-2.3999,-2.4097,-2.4098,-2.408,-2.4211,-2.4391,-2.4428,-2.4464,-2.4462,-2.4481,-2.4482,-2.4464,-2.4528,-2.4607,-2.47,-2.4861,-2.4936,-2.493,-2.4888,-2.4879,-2.4851,-2.4865,-2.4942,-2.5323,-2.6616,-2.7162,-2.7414,-2.7457,-2.7182,-2.6963,-2.6821,-2.6692,-2.6705,-2.6015,-2.5546,-2.5614,-2.5288,-2.522,-2.5149,-2.5096,-2.5138,-2.5192,-2.5254,-2.533,-2.5406,-2.5452,-2.5422,-2.5374,-2.5365,-2.5348,-2.535,-2.5321,-2.5378,-2.5348,-2.5281,-2.5129,-2.4888,-2.4639,-2.4446,-2.4474,-1.8248,-1.8429,-1.9668,-1.9917,-1.9755,-2.0594,-2.1077,-2.1272,-2.1595,-2.1777,-2.181,-2.1552,-2.1471,-2.1383,-2.1945,-2.2265,-2.2755,-2.3591,-2.4364,-2.4648,-2.4823,-2.4579,-2.4058,-2.3674,-2.2964,-2.1698,-2.202,-2.1635,-2.1307,-2.1882,-2.2683,-2.3022,-2.3634,-2.4425,-2.525,-2.5684,-2.5842,-2.6162,-2.6539,-2.6495,-2.612,-2.5637,-2.492,-2.419,-2.419,-2.4431,-2.459,-2.4638,-2.4615,-2.4716,-2.4719,-2.4543,-2.4336,-2.4265,-2.4355,-2.4357,-2.4426,-2.4405,-2.4368,-2.4472,-2.4594,-2.4673,-2.4545,-2.453,-2.4566,-2.4549,-2.4564,-2.4654,-2.479,-2.4961,-2.5099,-2.513,-2.5111,-2.5072,-2.4994,-2.4968,-2.4987,-2.5034,-2.5302,-2.5534,-2.6301,-2.6745,-2.6937,-2.6849,-2.6642,-2.6458,-2.632,-2.6082,-2.543,-2.5106,-2.5302,-2.5459,-2.5426,-2.5348,-2.5293,-2.5263,-2.5337,-2.5383,-2.5453,-2.5531,-2.5595,-2.5568,-2.5518,-2.5479,-2.5466,-2.5464,-2.5437,-2.5444,-2.5413,-2.5323,-2.4914,-2.4451,-2.4177,-2.3959,-2.3978,-1.8714,-1.9568,-2.0111,-2.0381,-2.0588,-2.1395,-2.1866,-2.2146,-2.2498,-2.2754,-2.286,-2.3069,-2.2966,-2.2981,-2.3258,-2.3643,-2.3937,-2.4395,-2.4661,-2.4926,-2.5045,-2.4893,-2.4828,-2.4264,-2.3576,-2.2825,-2.2534,-2.2059,-2.1829,-2.2273,-2.3181,-2.4148,-2.4554,-2.5118,-2.5848,-2.6227,-2.628,-2.6436,-2.6858,-2.6771,-2.6286,-2.5807,-2.5183,-2.432,-2.432,-2.4526,-2.4749,-2.4794,-2.4808,-2.479,-2.4837,-2.479,-2.4693,-2.462,-2.4572,-2.4575,-2.4572,-2.4598,-2.4723,-2.462,-2.4607,-2.4629,-2.4564,-2.4429,-2.4464,-2.4528,-2.4676,-2.4804,-2.5006,-2.522,-2.5253,-2.5274,-2.5274,-2.5235,-2.5194,-2.5192,-2.5312,-2.542,-2.5517,-2.56,-2.5848,-2.5992,-2.6223,-2.6331,-2.6111,-2.5948,-2.587,-2.5792,-2.5457,-2.5292,-2.5403,-2.5537,-2.5643,-2.5554,-2.5466,-2.5447,-2.5473,-2.5503,-2.555,-2.5598,-2.5652,-2.5683,-2.5648,-2.5586,-2.5565,-2.5562,-2.5562,-2.549,-2.5154,-2.4844,-2.4393,-2.3909,-2.3489,-2.3114,-2.3088,-1.9902,-2.0603,-2.1177,-2.1593,-2.1936,-2.2521,-2.2905,-2.3128,-2.3406,-2.3551,-2.361,-2.3711,-2.3696,-2.3595,-2.3782,-2.4151,-2.4441,-2.4482,-2.4742,-2.4989,-2.5107,-2.5246,-2.5233,-2.4675,-2.4075,-2.3518,-2.2981,-2.2427,-2.2107,-2.2798,-2.3718,-2.4501,-2.513,-2.5843,-2.6353,-2.6607,-2.6707,-2.6807,-2.7098,-2.7165,-2.6688,-2.6242,-2.5405,-2.4709,-2.4493,-2.4689,-2.4893,-2.4953,-2.4987,-2.5043,-2.5056,-2.5031,-2.4987,-2.4949,-2.4888,-2.4861,-2.4828,-2.4877,-2.5019,-2.4915,-2.4907,-2.4869,-2.4697,-2.4626,-2.4613,-2.4673,-2.4798,-2.4961,-2.5122,-2.5293,-2.5303,-2.5369,-2.5393,-2.5398,-2.5374,-2.5379,-2.5473,-2.5609,-2.5666,-2.5696,-2.5749,-2.576,-2.5659,-2.5661,-2.5505,-2.542,-2.5434,-2.542,-2.5413,-2.546,-2.5521,-2.5585,-2.5684,-2.5629,-2.5571,-2.557,-2.5547,-2.5595,-2.5625,-2.5648,-2.5683,-2.5693,-2.5687,-2.5658,-2.564,-2.5639,-2.5418,-2.527,-2.481,-2.4257,-2.3501,-2.2878,-2.2551,-2.2323,-2.229,-2.1348,-2.1755,-2.2364,-2.283,-2.326,-2.358,-2.3809,-2.3952,-2.412,-2.4162,-2.4151,-2.4094,-2.4009,-2.3909,-2.4078,-2.4385,-2.471,-2.471,-2.5013,-2.5285,-2.5422,-2.554,-2.5314,-2.4882,-2.4163,-2.3586,-2.3407,-2.2957,-2.285,-2.3473,-2.4315,-2.5313,-2.6168,-2.6623,-2.6948,-2.7189,-2.7234,-2.7391,-2.753,-2.7648,-2.7161,-2.6464,-2.5621,-2.4715,-2.466,-2.4775,-2.5019,-2.5087,-2.5157,-2.5243,-2.5244,-2.5234,-2.5224,-2.5253,-2.5252,-2.5209,-2.5168,-2.519,-2.522,-2.5187,-2.5099,-2.5056,-2.4869,-2.4818,-2.4847,-2.4818,-2.4893,-2.5106,-2.5241,-2.5332,-2.536,-2.5448,-2.549,-2.5525,-2.5525,-2.5535,-2.5537,-2.5598,-2.5644,-2.5664,-2.5636,-2.562,-2.5603,-2.5565,-2.5517,-2.5512,-2.5517,-2.5471,-2.5471,-2.558,-2.5632,-2.5648,-2.5681,-2.5659,-2.5615,-2.5644,-2.5634,-2.5642,-2.5642,-2.5661,-2.5677,-2.5689,-2.5666,-2.5644,-2.5673,-2.5623,-2.5364,-2.4844,-2.4252,-2.351,-2.2525,-2.1902,-2.1624,-2.152,-2.1477,-2.2923,-2.3157,-2.3475,-2.3849,-2.4105,-2.4219,-2.4343,-2.4508,-2.4533,-2.4533,-2.4549,-2.4508,-2.4482,-2.4482,-2.4639,-2.4839,-2.5114,-2.5346,-2.561,-2.5811,-2.5931,-2.5791,-2.5313,-2.4546,-2.411,-2.3678,-2.3494,-2.3627,-2.3888,-2.4421,-2.5449,-2.6647,-2.7047,-2.7495,-2.7885,-2.7903,-2.7936,-2.7974,-2.8012,-2.7495,-2.6471,-2.566,-2.5092,-2.4769,-2.4693,-2.4858,-2.513,-2.5224,-2.5293,-2.5369,-2.5374,-2.536,-2.5383,-2.5432,-2.5459,-2.5406,-2.535,-2.5302,-2.5341,-2.5273,-2.519,-2.5091,-2.4874,-2.4746,-2.4861,-2.4987,-2.5099,-2.5261,-2.5351,-2.5387,-2.5401,-2.5511,-2.5556,-2.5595,-2.5619,-2.5624,-2.5613,-2.5566,-2.5627,-2.5644,-2.5619,-2.5664,-2.566,-2.5622,-2.56,-2.56,-2.5597,-2.5559,-2.5539,-2.5637,-2.5673,-2.568,-2.5701,-2.566,-2.5818,-2.58,-2.5761,-2.5737,-2.5836,-2.58,-2.5683,-2.5681,-2.56,-2.5598,-2.5593,-2.5105,-2.4369,-2.3844,-2.3473,-2.2889,-2.209,-2.1386,-2.076,-2.0722,-2.084,-2.4445,-2.409,-2.4302,-2.4523,-2.4686,-2.4751,-2.4879,-2.5059,-2.5029,-2.5052,-2.5075,-2.495,-2.4871,-2.4895,-2.4942,-2.5137,-2.5443,-2.5721,-2.5941,-2.6059,-2.6032,-2.5983,-2.5963,-2.5176,-2.4339,-2.4282,-2.4164,-2.4433,-2.4934,-2.5634,-2.651,-2.7419,-2.795,-2.8294,-2.868,-2.868,-2.8686,-2.8534,-2.8135,-2.7351,-2.6539,-2.5755,-2.5153,-2.4856,-2.4869,-2.5022,-2.5216,-2.5329,-2.5379,-2.5449,-2.5459,-2.5453,-2.5467,-2.548,-2.5499,-2.5499,-2.5499,-2.5468,-2.5459,-2.536,-2.5264,-2.5163,-2.5024,-2.5031,-2.5091,-2.5149,-2.5222,-2.5283,-2.5361,-2.5404,-2.5449,-2.5525,-2.5581,-2.5617,-2.5662,-2.5664,-2.564,-2.5586,-2.5556,-2.5585,-2.5598,-2.5609,-2.5631,-2.5621,-2.5605,-2.5625,-2.5624,-2.5621,-2.5621,-2.5664,-2.5682,-2.564,-2.5679,-2.5681,-2.593,-2.606,-2.5976,-2.6025,-2.6373,-2.623,-2.5798,-2.5664,-2.5527,-2.5195,-2.4902,-2.4258,-2.3397,-2.3143,-2.3045,-2.2435,-2.1725,-2.1077,-2.0529,-2.0537,-2.0657,-2.561,-2.5115,-2.4989,-2.4942,-2.5005,-2.5146,-2.5307,-2.5519,-2.5567,-2.5551,-2.5481,-2.5291,-2.523,-2.5291,-2.5329,-2.5615,-2.5997,-2.6049,-2.6297,-2.632,-2.6249,-2.6422,-2.6446,-2.582,-2.5317,-2.5227,-2.5348,-2.5415,-2.5933,-2.681,-2.7641,-2.8056,-2.8554,-2.8978,-2.9246,-2.9287,-2.9231,-2.88,-2.7956,-2.7214,-2.6559,-2.5774,-2.531,-2.5107,-2.5084,-2.5184,-2.5357,-2.5449,-2.5492,-2.5479,-2.5549,-2.5571,-2.5571,-2.558,-2.5565,-2.5565,-2.558,-2.5556,-2.5518,-2.5464,-2.5385,-2.5303,-2.5255,-2.5235,-2.5321,-2.5331,-2.5341,-2.5359,-2.5367,-2.5434,-2.5479,-2.5521,-2.559,-2.5637,-2.5664,-2.5662,-2.5638,-2.555,-2.5486,-2.5466,-2.5479,-2.5492,-2.5517,-2.5565,-2.559,-2.5626,-2.5637,-2.5646,-2.5642,-2.5634,-2.558,-2.5524,-2.5554,-2.5616,-2.582,-2.6022,-2.6037,-2.6232,-2.6578,-2.64,-2.5807,-2.5488,-2.5354,-2.4924,-2.43,-2.3818,-2.3196,-2.2935,-2.2611,-2.1762,-2.1029,-2.0773,-2.0464,-2.0475,-2.0494,-2.622,-2.6484,-2.5644,-2.5194,-2.5116,-2.5329,-2.5556,-2.5795,-2.6066,-2.603,-2.5799,-2.5577,-2.5503,-2.5556,-2.5997,-2.6264,-2.6488,-2.6889,-2.7132,-2.7352,-2.7477,-2.7203,-2.7073,-2.6774,-2.6262,-2.5541,-2.6081,-2.6465,-2.6741,-2.7896,-2.8648,-2.9066,-2.9153,-2.9512,-2.9631,-2.9564,-2.9377,-2.889,-2.8048,-2.7157,-2.6432,-2.5682,-2.5227,-2.5217,-2.5236,-2.5309,-2.541,-2.5525,-2.5562,-2.5543,-2.56,-2.5655,-2.5651,-2.5666,-2.5633,-2.5648,-2.5618,-2.56,-2.5565,-2.5537,-2.5498,-2.5437,-2.5401,-2.5403,-2.548,-2.5422,-2.5434,-2.5464,-2.5444,-2.5447,-2.5508,-2.5551,-2.5616,-2.5643,-2.5664,-2.5642,-2.5593,-2.5477,-2.5414,-2.5379,-2.536,-2.5374,-2.5335,-2.5364,-2.5466,-2.5507,-2.5496,-2.5493,-2.5468,-2.5451,-2.5421,-2.5402,-2.5428,-2.5486,-2.5622,-2.5906,-2.645,-2.645,-2.6514,-2.6124,-2.5508,-2.5288,-2.4709,-2.4234,-2.3548,-2.3291,-2.2899,-2.2221,-2.1536,-2.0856,-2.0424,-2.0433,-2.0521,-2.0618,-2.0541,-2.6662,-2.672,-2.6422,-2.6286,-2.6166,-2.5959,-2.6068,-2.6367,-2.6487,-2.6436,-2.6229,-2.6142,-2.6193,-2.635,-2.6505,-2.6906,-2.7224,-2.7435,-2.7736,-2.7779,-2.7727,-2.7731,-2.7651,-2.7538,-2.7084,-2.6713,-2.7301,-2.765,-2.7675,-2.8484,-2.8782,-2.9087,-2.9475,-2.9527,-2.9563,-2.95,-2.95,-2.9519,-2.8785,-2.7969,-2.7151,-2.6274,-2.5661,-2.5274,-2.5324,-2.5415,-2.5515,-2.5613,-2.5644,-2.5636,-2.5659,-2.5691,-2.5699,-2.5703,-2.5703,-2.5683,-2.5641,-2.5634,-2.5577,-2.5551,-2.5522,-2.5495,-2.548,-2.5505,-2.5589,-2.5515,-2.548,-2.5492,-2.5515,-2.5508,-2.5548,-2.5579,-2.5625,-2.5659,-2.5646,-2.5609,-2.5517,-2.5379,-2.5226,-2.5141,-2.519,-2.5224,-2.5192,-2.5141,-2.5274,-2.5383,-2.5352,-2.5327,-2.5307,-2.523,-2.5176,-2.5051,-2.5029,-2.5374,-2.553,-2.6204,-2.6936,-2.6702,-2.6409,-2.5812,-2.5156,-2.4028,-2.35,-2.3101,-2.2738,-2.2268,-2.1736,-2.1099,-2.0746,-2.0669,-2.0526,-2.0394,-2.0551,-2.0676,-2.056,-2.7114,-2.7022,-2.7038,-2.6984,-2.6814,-2.6363,-2.6385,-2.6741,-2.6858,-2.6841,-2.6757,-2.679,-2.692,-2.708,-2.7238,-2.7512,-2.7862,-2.8039,-2.8228,-2.8247,-2.8203,-2.8273,-2.8453,-2.8393,-2.8055,-2.7948,-2.8209,-2.8446,-2.8217,-2.8499,-2.8812,-2.914,-2.9349,-2.9109,-2.8984,-2.912,-2.9583,-2.9815,-2.9574,-2.8522,-2.7537,-2.6843,-2.61,-2.5541,-2.5447,-2.5498,-2.5582,-2.5632,-2.5661,-2.5666,-2.5676,-2.5683,-2.5702,-2.5697,-2.5696,-2.5677,-2.5641,-2.5625,-2.556,-2.5532,-2.5517,-2.5538,-2.5503,-2.5576,-2.5613,-2.557,-2.5465,-2.5496,-2.5525,-2.5523,-2.5508,-2.542,-2.5426,-2.5434,-2.5471,-2.5447,-2.5355,-2.5216,-2.5042,-2.4898,-2.4968,-2.5,-2.4987,-2.4917,-2.4949,-2.5083,-2.5154,-2.5133,-2.5122,-2.5026,-2.4862,-2.4709,-2.4539,-2.4992,-2.5512,-2.581,-2.6098,-2.6365,-2.6013,-2.5505,-2.4733,-2.3497,-2.2603,-2.2366,-2.1925,-2.1242,-2.0908,-2.0718,-2.0792,-2.0911,-2.0643,-2.0268,-2.028,-2.0377,-2.0417,-2.7487,-2.7467,-2.7374,-2.7151,-2.6885,-2.6452,-2.6505,-2.6906,-2.7132,-2.7303,-2.7422,-2.7422,-2.7566,-2.7837,-2.8021,-2.8228,-2.8453,-2.8554,-2.8652,-2.8722,-2.8809,-2.8946,-2.9074,-2.905,-2.8873,-2.8652,-2.8946,-2.9122,-2.8624,-2.8836,-2.9055,-2.884,-2.8683,-2.8495,-2.8256,-2.8987,-2.9389,-2.9433,-2.9472,-2.8456,-2.744,-2.6916,-2.632,-2.5736,-2.5574,-2.56,-2.5622,-2.562,-2.5642,-2.5641,-2.5644,-2.5638,-2.5613,-2.5657,-2.5676,-2.5658,-2.558,-2.5496,-2.5429,-2.5458,-2.5513,-2.557,-2.5529,-2.5512,-2.5609,-2.5527,-2.5446,-2.5507,-2.5469,-2.5357,-2.525,-2.5182,-2.5224,-2.5185,-2.5206,-2.5255,-2.5168,-2.5139,-2.4997,-2.4666,-2.467,-2.4727,-2.4741,-2.4708,-2.4678,-2.4752,-2.4888,-2.4902,-2.4836,-2.4742,-2.459,-2.3992,-2.379,-2.4252,-2.4688,-2.4955,-2.526,-2.5634,-2.5507,-2.4824,-2.4006,-2.2823,-2.2124,-2.1731,-2.1499,-2.1179,-2.085,-2.0558,-2.0595,-2.0562,-2.0356,-2.0106,-2.0087,-2.005,-2.0105,-2.7947,-2.8015,-2.8032,-2.793,-2.7724,-2.703,-2.6989,-2.7352,-2.7695,-2.7974,-2.8192,-2.8254,-2.828,-2.841,-2.8511,-2.8718,-2.886,-2.9042,-2.9107,-2.9293,-2.9397,-2.9532,-2.9626,-2.9588,-2.9547,-2.9553,-2.9832,-2.9579,-2.8955,-2.8935,-2.875,-2.8507,-2.8423,-2.852,-2.8875,-2.9367,-2.9606,-3.0039,-2.9693,-2.8827,-2.778,-2.7133,-2.6466,-2.5655,-2.5637,-2.5654,-2.5624,-2.56,-2.5576,-2.5599,-2.5611,-2.5543,-2.5498,-2.5532,-2.5512,-2.5504,-2.542,-2.5432,-2.5383,-2.5411,-2.5488,-2.5529,-2.552,-2.5427,-2.5387,-2.5427,-2.5436,-2.5456,-2.5402,-2.5323,-2.5291,-2.5144,-2.5091,-2.4874,-2.4872,-2.4984,-2.5006,-2.5057,-2.4967,-2.4481,-2.4316,-2.4302,-2.4284,-2.4282,-2.4264,-2.4192,-2.4281,-2.4369,-2.4316,-2.4327,-2.4228,-2.3322,-2.2955,-2.3432,-2.3827,-2.4021,-2.4894,-2.5702,-2.4941,-2.3771,-2.2868,-2.2092,-2.1329,-2.0793,-2.1016,-2.1217,-2.1039,-2.0816,-2.0324,-2.0095,-2.0092,-2.0082,-2.0068,-1.9955,-1.982,-2.8194,-2.81,-2.831,-2.8305,-2.8074,-2.748,-2.7426,-2.784,-2.8183,-2.8453,-2.8694,-2.879,-2.886,-2.8906,-2.8997,-2.9086,-2.9254,-2.9435,-2.9532,-2.9701,-2.9771,-2.9823,-2.9874,-2.9943,-2.9931,-3.0018,-2.98,-2.9463,-2.9099,-2.8601,-2.8133,-2.7932,-2.8383,-2.8878,-2.9267,-2.9466,-2.9636,-2.9904,-2.9513,-2.8791,-2.785,-2.7086,-2.6449,-2.5855,-2.5605,-2.56,-2.5579,-2.5543,-2.5493,-2.5527,-2.5507,-2.5415,-2.5379,-2.5274,-2.5244,-2.5168,-2.5081,-2.5111,-2.512,-2.5215,-2.529,-2.5447,-2.5389,-2.533,-2.5247,-2.5281,-2.5323,-2.5341,-2.5312,-2.5164,-2.5051,-2.4924,-2.4727,-2.4494,-2.4507,-2.4625,-2.4995,-2.5063,-2.4918,-2.4423,-2.4073,-2.4019,-2.3855,-2.3828,-2.3803,-2.3717,-2.3631,-2.3717,-2.3842,-2.3929,-2.3658,-2.2627,-2.1978,-2.224,-2.2659,-2.3031,-2.4099,-2.5633,-2.4511,-2.2851,-2.2312,-2.16,-2.0714,-2.0167,-2.09,-2.1421,-2.1382,-2.1113,-2.0633,-2.0307,-2.0201,-2.0157,-2.0112,-2.0039,-1.9933,-2.8264,-2.7739,-2.8181,-2.8237,-2.7926,-2.777,-2.7956,-2.835,-2.846,-2.8742,-2.9038,-2.906,-2.9191,-2.9454,-2.955,-2.9608,-2.9662,-2.9806,-2.9859,-2.9893,-2.9924,-2.9956,-3.0003,-3.0034,-2.9999,-2.9864,-2.9608,-2.9203,-2.9039,-2.8247,-2.7468,-2.7655,-2.8886,-2.9365,-2.9586,-2.9481,-2.9578,-2.9608,-2.9257,-2.8418,-2.7402,-2.6797,-2.6227,-2.5765,-2.5561,-2.5526,-2.5477,-2.5395,-2.5321,-2.534,-2.5372,-2.5281,-2.5154,-2.4929,-2.4799,-2.4676,-2.4529,-2.4557,-2.4743,-2.4853,-2.5096,-2.5205,-2.4924,-2.5057,-2.5197,-2.5168,-2.5185,-2.5183,-2.513,-2.4848,-2.461,-2.4414,-2.4226,-2.4137,-2.4114,-2.4433,-2.4914,-2.498,-2.4821,-2.4501,-2.4166,-2.3939,-2.3578,-2.3445,-2.3364,-2.3259,-2.3188,-2.32,-2.3346,-2.3613,-2.3084,-2.171,-2.1188,-2.1025,-2.1425,-2.2172,-2.3235,-2.4746,-2.3381,-2.1929,-2.149,-2.1195,-2.0446,-2.0299,-2.1181,-2.1642,-2.1716,-2.1425,-2.0953,-2.0678,-2.0473,-2.044,-2.0457,-2.0504,-2.0516,-2.8276,-2.806,-2.8238,-2.8324,-2.8378,-2.8628,-2.8819,-2.8952,-2.8997,-2.9188,-2.9492,-2.9492,-2.957,-2.9773,-2.979,-2.9839,-2.9921,-2.9969,-3.0019,-3.0049,-3.0075,-3.009,-3.0109,-3.0132,-2.9951,-2.9611,-2.9237,-2.8676,-2.8006,-2.742,-2.8164,-2.8813,-2.9546,-2.9961,-2.981,-2.9528,-2.9396,-2.914,-2.8733,-2.7886,-2.6954,-2.6327,-2.5899,-2.5648,-2.5485,-2.5441,-2.5372,-2.5109,-2.5019,-2.5034,-2.5141,-2.5031,-2.4444,-2.4315,-2.4243,-2.4295,-2.4063,-2.3914,-2.4263,-2.4433,-2.47,-2.4682,-2.3954,-2.3977,-2.4448,-2.4669,-2.4683,-2.4889,-2.481,-2.455,-2.4278,-2.4063,-2.3751,-2.3508,-2.3565,-2.3943,-2.4357,-2.4512,-2.4326,-2.4053,-2.3769,-2.338,-2.307,-2.301,-2.2917,-2.2799,-2.2747,-2.2764,-2.2875,-2.3153,-2.2716,-2.1326,-2.0598,-2.0487,-2.1003,-2.1714,-2.2714,-2.3426,-2.2291,-2.1528,-2.1369,-2.0988,-2.0245,-2.0479,-2.1453,-2.1934,-2.2135,-2.1774,-2.133,-2.1021,-2.0833,-2.0825,-2.0819,-2.0856,-2.0975,-2.8474,-2.8404,-2.8533,-2.8707,-2.8971,-2.9316,-2.9475,-2.9474,-2.9455,-2.957,-2.9755,-2.9737,-2.9808,-2.9926,-2.994,-2.9996,-3.0095,-3.0184,-3.0222,-3.0234,-3.0196,-3.0275,-3.0282,-3.0007,-2.9669,-2.9249,-2.8674,-2.8021,-2.7629,-2.8221,-2.8993,-2.9182,-3.0063,-3.0051,-2.9728,-2.9205,-2.8684,-2.8281,-2.776,-2.7162,-2.647,-2.5842,-2.5648,-2.5505,-2.5395,-2.5318,-2.5158,-2.4826,-2.4691,-2.4691,-2.479,-2.4636,-2.4063,-2.3833,-2.3689,-2.3671,-2.344,-2.3448,-2.3739,-2.3839,-2.4388,-2.4459,-2.3381,-2.2202,-2.2065,-2.2113,-2.34,-2.4376,-2.4332,-2.4217,-2.4008,-2.3735,-2.3239,-2.2762,-2.3039,-2.3363,-2.3604,-2.3877,-2.3708,-2.3431,-2.3078,-2.2702,-2.2517,-2.249,-2.248,-2.2381,-2.2326,-2.2309,-2.2473,-2.2738,-2.2237,-2.117,-2.0495,-2.0079,-2.0728,-2.1444,-2.2321,-2.287,-2.23,-2.1657,-2.1387,-2.1105,-2.0649,-2.1033,-2.1773,-2.2112,-2.2418,-2.2147,-2.1781,-2.1502,-2.1271,-2.1259,-2.1259,-2.1242,-2.1418,-2.885,-2.8748,-2.8934,-2.9214,-2.9589,-2.9803,-2.9905,-2.9921,-2.9853,-2.9891,-2.9924,-2.9857,-2.9905,-3.0041,-3.0075,-3.0151,-3.0244,-3.0355,-3.0405,-3.0355,-3.0152,-3.0159,-2.9962,-2.9608,-2.9,-2.8564,-2.8079,-2.7539,-2.8268,-2.8794,-2.9213,-2.9289,-2.9757,-2.974,-2.9065,-2.8414,-2.7713,-2.7003,-2.6693,-2.6287,-2.5776,-2.543,-2.5374,-2.534,-2.5243,-2.5134,-2.4831,-2.4595,-2.4383,-2.4335,-2.4264,-2.4229,-2.3632,-2.3335,-2.3175,-2.2993,-2.2842,-2.2898,-2.313,-2.3298,-2.3855,-2.4081,-2.3768,-2.1617,-2.0891,-2.1601,-2.3216,-2.3916,-2.3953,-2.3764,-2.3536,-2.3401,-2.3033,-2.2717,-2.2785,-2.2903,-2.2978,-2.3079,-2.2911,-2.2704,-2.2501,-2.2175,-2.2198,-2.2215,-2.2113,-2.2027,-2.1969,-2.194,-2.194,-2.2215,-2.1786,-2.1053,-2.0831,-2.0489,-2.0828,-2.1509,-2.2087,-2.229,-2.1979,-2.1784,-2.1557,-2.1364,-2.1161,-2.1616,-2.2143,-2.2407,-2.2565,-2.2302,-2.2096,-2.1996,-2.1833,-2.1746,-2.1687,-2.1524,-2.1658,-2.9135,-2.9034,-2.9219,-2.9418,-2.9626,-2.9973,-3.0128,-3.0138,-3.0278,-3.0216,-3.0075,-3.0045,-3.0109,-3.0271,-3.0252,-3.0337,-3.0477,-3.0477,-3.0528,-3.0225,-2.9952,-2.962,-2.9399,-2.8723,-2.8129,-2.7485,-2.7089,-2.7273,-2.8067,-2.8849,-2.9448,-2.9524,-2.9508,-2.885,-2.8166,-2.7398,-2.6439,-2.5863,-2.5626,-2.5493,-2.5186,-2.5168,-2.5205,-2.5115,-2.5013,-2.4915,-2.4632,-2.4317,-2.4174,-2.408,-2.3864,-2.3361,-2.2504,-2.2649,-2.25,-2.2247,-2.2395,-2.2392,-2.2439,-2.2777,-2.3362,-2.2894,-2.232,-2.1271,-2.1048,-2.2186,-2.2967,-2.3379,-2.3497,-2.3294,-2.3182,-2.3091,-2.2861,-2.2661,-2.2443,-2.2391,-2.2369,-2.2245,-2.2086,-2.1937,-2.1823,-2.1814,-2.184,-2.1823,-2.1764,-2.1705,-2.1628,-2.1554,-2.137,-2.146,-2.1466,-2.1011,-2.1358,-2.1266,-2.1366,-2.1515,-2.2065,-2.2229,-2.2065,-2.1883,-2.1717,-2.1606,-2.1547,-2.2014,-2.2476,-2.2535,-2.2508,-2.2392,-2.2241,-2.2175,-2.2012,-2.1729,-2.1613,-2.148,-2.1718,-2.9457,-2.94,-2.9661,-2.978,-2.9924,-3.0144,-3.0278,-3.0351,-3.0443,-3.0453,-3.0342,-3.0283,-3.0309,-3.043,-3.0409,-3.0458,-3.0589,-3.0587,-3.0257,-2.9904,-2.9445,-2.9004,-2.8476,-2.777,-2.7266,-2.6715,-2.7112,-2.7553,-2.8172,-2.9041,-2.9698,-2.9225,-2.8577,-2.7896,-2.7139,-2.6023,-2.539,-2.5086,-2.4806,-2.4666,-2.4634,-2.4774,-2.4968,-2.4902,-2.4879,-2.4746,-2.4334,-2.3984,-2.3696,-2.3437,-2.3141,-2.2779,-2.2225,-2.2199,-2.2248,-2.2198,-2.2176,-2.2013,-2.1923,-2.2228,-2.29,-2.2567,-2.1988,-2.1399,-2.0782,-2.1811,-2.2928,-2.3319,-2.3179,-2.3006,-2.3328,-2.3351,-2.2541,-2.2091,-2.1717,-2.149,-2.149,-2.1471,-2.1142,-2.0801,-2.0828,-2.1087,-2.1087,-2.1071,-2.1007,-2.0878,-2.0894,-2.0959,-2.0828,-2.0745,-2.0735,-2.0841,-2.1084,-2.146,-2.1553,-2.1675,-2.1997,-2.2095,-2.2097,-2.2133,-2.2047,-2.1951,-2.2017,-2.2262,-2.2343,-2.2287,-2.2248,-2.218,-2.2065,-2.1911,-2.1782,-2.1632,-2.1491,-2.1295,-2.1311,-2.9626,-2.9664,-3.0018,-3.0132,-3.0117,-3.0287,-3.0404,-3.0498,-3.0533,-3.0587,-3.0599,-3.0462,-3.0489,-3.0495,-3.0443,-3.0501,-3.0425,-3.0204,-2.9862,-2.9247,-2.8788,-2.8212,-2.7468,-2.6687,-2.6331,-2.658,-2.7103,-2.7826,-2.8555,-2.9164,-2.9112,-2.8397,-2.7679,-2.7028,-2.5816,-2.5126,-2.4756,-2.4317,-2.4062,-2.3984,-2.4081,-2.4298,-2.4484,-2.4617,-2.4731,-2.4522,-2.4005,-2.3512,-2.3116,-2.2764,-2.2402,-2.1917,-2.1734,-2.1631,-2.176,-2.1797,-2.1929,-2.1667,-2.1506,-2.1952,-2.2809,-2.3151,-2.2468,-2.1888,-2.1266,-2.159,-2.27,-2.3036,-2.2898,-2.2948,-2.3276,-2.3269,-2.2373,-2.1353,-2.0923,-2.0498,-2.0565,-2.0548,-2.015,-1.9752,-2.005,-2.0357,-2.0376,-2.0342,-2.0258,-2.0139,-2.007,-2.012,-2.0154,-2.0154,-2.0169,-2.0293,-2.0534,-2.0959,-2.1458,-2.1711,-2.1848,-2.2062,-2.2129,-2.232,-2.2371,-2.219,-2.2112,-2.2203,-2.2265,-2.2118,-2.2032,-2.1961,-2.1827,-2.1617,-2.1439,-2.1264,-2.1054,-2.0826,-2.0624,-2.9148,-2.9187,-2.9928,-2.9929,-2.9574,-3.023,-3.0614,-3.0584,-3.069,-3.0678,-3.0547,-3.0585,-3.0625,-3.071,-3.0604,-3.0322,-2.9589,-2.9508,-2.8966,-2.8304,-2.7625,-2.7152,-2.6511,-2.5616,-2.5482,-2.6037,-2.6911,-2.7751,-2.8229,-2.8544,-2.8422,-2.7705,-2.6199,-2.5476,-2.4933,-2.432,-2.3822,-2.3512,-2.3512,-2.3486,-2.3526,-2.366,-2.3678,-2.3925,-2.4302,-2.3964,-2.349,-2.2972,-2.266,-2.233,-2.1853,-2.1214,-2.1004,-2.0996,-2.1113,-2.1218,-2.1376,-2.158,-2.1599,-2.1888,-2.2644,-2.2207,-2.1772,-2.2338,-2.1902,-2.1728,-2.2574,-2.2954,-2.2901,-2.2828,-2.3012,-2.2963,-2.2306,-2.0857,-1.9994,-1.9609,-1.9423,-1.9325,-1.9075,-1.9258,-1.966,-1.9767,-1.9803,-1.9788,-1.9823,-1.9681,-1.9624,-1.9639,-1.9675,-1.9654,-1.9581,-1.9762,-1.9975,-2.0565,-2.1118,-2.1415,-2.1595,-2.1882,-2.2101,-2.2203,-2.2293,-2.2282,-2.2254,-2.2209,-2.2106,-2.1957,-2.184,-2.1708,-2.1417,-2.1214,-2.1036,-2.0846,-2.0634,-2.0357,-2.0111]},{"header":{"parameterUnit":"m.s-1","parameterCategory":1,"la1":31.0,"la2":29.5877,"lo1":-88.7671,"lo2":-86.6584,"dx":0.0162,"dy":0.0185,"nx":115,"ny":88,"refTime":"2022-12-02T18:00:00:Z","depth":0,"parameterNumber":3,"parameterNumberName":"V-component_of_WINDS"},"data":[0.0,0.0,0.0,0.0,0.0,0.0,0.0,0.0,0.0,0.0,0.0,0.0,0.0,0.0,0.0,0.0,0.0,0.0,0.0,0.0,0.0,0.0,0.0,0.0,0.0,0.0,0.0,0.0,0.0,0.0,0.0,0.0,0.0,0.0,0.0,0.0,0.0,0.0,0.0,0.0,0.0,0.0,0.0,0.0,0.0,0.0,0.0,0.0,0.0,0.0,0.0,0.0,0.0,0.0,0.0,0.0,0.0,0.0,0.0,0.0,0.0,0.0,0.0,0.0,0.0,0.0,0.0,0.0,0.0,0.0,0.0,0.0,0.0,0.0,0.0,0.0,0.0,0.0,0.0,0.0,0.0,0.0,0.0,0.0,0.0,0.0,0.0,0.0,0.0,0.0,0.0,0.0,0.0,0.0,0.0,0.0,0.0,0.0,0.0,0.0,0.0,0.0,0.0,0.0,0.0,0.0,0.0,0.0,0.0,0.0,0.0,0.0,0.0,0.0,0.0,0.0,0.0,0.0,0.0,0.0,0.0,0.0,0.0,0.0,0.0,0.0,0.0,0.0,0.0,0.0,0.0,0.0,0.0,0.0,0.0,0.0,0.0,0.0,0.0,0.0,0.0,0.0,0.0,0.0,0.0,0.0,0.0,0.0,0.0,0.0,0.0,0.0,0.0,0.0,0.0,0.0,0.0,0.0,0.0,0.0,0.0,0.0,0.0,0.0,0.0,0.0,0.0,0.0,0.0,0.0,0.0,0.0,0.0,0.0,0.0,0.0,0.0,0.0,0.0,0.0,0.0,0.0,0.0,0.0,0.0,0.0,0.0,0.0,0.0,0.0,0.0,0.0,0.0,0.0,0.0,0.0,0.0,0.0,0.0,0.0,0.0,0.0,0.0,0.0,0.0,0.0,0.0,0.0,0.0,0.0,0.0,0.0,0.0,0.0,0.0,0.0,0.0,0.0,0.0,0.0,0.0,0.0,0.0,0.0,0.0,0.0,0.0,0.0,0.0,0.0,0.0,0.0,0.0,0.0,0.0,0.0,0.0,0.0,0.0,0.0,0.0,0.0,0.0,0.0,0.0,0.0,0.0,0.0,0.0,0.0,0.0,0.0,0.0,0.0,0.0,0.0,0.0,0.0,0.0,0.0,0.0,0.0,0.0,0.0,0.0,0.0,0.0,0.0,0.0,0.0,0.0,0.0,0.0,0.0,0.0,0.0,0.0,0.0,0.0,0.0,0.0,0.0,0.0,0.0,0.0,0.0,0.0,0.0,0.0,0.0,0.0,0.0,0.0,0.0,0.0,0.0,0.0,0.0,0.0,0.0,0.0,0.0,0.0,0.0,0.0,0.0,0.0,0.0,0.0,0.0,0.0,0.0,0.0,0.0,0.0,0.0,0.0,0.0,0.0,0.0,0.0,0.0,0.0,0.0,0.0,0.0,0.0,0.0,0.0,0.0,0.0,0.0,0.0,0.0,0.0,0.0,0.0,0.0,0.0,0.0,0.0,0.0,0.0,0.0,0.0,0.0,0.0,0.0,0.0,0.0,0.0,0.0,0.0,0.0,0.0,0.0,0.0,0.0,0.0,0.0,0.0,0.0,0.0,0.0,0.0,0.0,0.0,0.0,0.0,0.0,0.0,0.0,0.0,0.0,0.0,0.0,0.0,0.0,0.0,0.0,0.0,0.0,0.0,0.0,0.0,0.0,0.0,0.0,0.0,0.0,0.0,0.0,0.0,0.0,0.0,0.0,0.0,0.0,0.0,0.0,0.0,0.0,0.0,0.0,0.0,0.0,0.0,0.0,0.0,0.0,0.0,0.0,0.0,0.0,0.0,0.0,0.0,0.0,0.0,0.0,0.0,0.0,0.0,0.0,0.0,0.0,0.0,0.0,0.0,0.0,0.0,0.0,0.0,0.0,0.0,0.0,0.0,0.0,0.0,0.0,0.0,0.0,0.0,0.0,0.0,0.0,0.0,0.0,0.0,0.0,0.0,0.0,0.0,0.0,0.0,0.0,0.0,0.0,0.0,0.0,0.0,0.0,0.0,0.0,0.0,0.0,0.0,0.0,0.0,0.0,0.0,0.0,0.0,0.0,0.0,0.0,0.0,0.0,0.0,0.0,0.0,0.0,0.0,0.0,0.0,0.0,0.0,0.0,0.0,0.0,0.0,0.0,0.0,0.0,0.0,0.0,0.0,0.0,0.0,0.0,0.0,0.0,0.0,0.0,0.0,0.0,0.0,0.0,0.0,0.0,0.0,0.0,0.0,0.0,0.0,0.0,0.0,0.0,0.0,0.0,0.0,0.0,0.0,0.0,0.0,0.0,0.0,0.0,0.0,0.0,0.0,0.0,0.0,0.0,0.0,0.0,0.0,0.0,0.0,0.0,0.0,0.0,0.0,0.0,0.0,0.0,0.0,0.0,0.0,0.0,0.0,0.0,0.0,0.0,0.0,0.0,0.0,0.0,0.0,0.0,0.0,0.0,0.0,0.0,0.0,0.0,0.0,0.0,0.0,0.0,0.0,0.0,0.0,0.0,0.0,0.0,0.0,0.0,0.0,0.0,0.0,0.0,0.0,0.0,0.0,0.0,0.0,0.0,0.0,0.0,0.0,0.0,0.0,0.0,0.0,0.0,0.0,0.0,0.0,0.0,0.0,0.0,0.0,0.0,0.0,0.0,0.0,0.0,0.0,0.0,0.0,0.0,0.0,0.0,0.0,0.0,0.0,0.0,0.0,0.0,0.0,0.0,0.0,0.0,0.0,0.0,0.0,0.0,0.0,0.0,0.0,0.0,0.0,0.0,0.0,0.0,0.0,0.0,0.0,0.0,0.0,0.0,0.0,0.0,0.0,0.0,0.0,0.0,0.0,0.0,0.0,0.0,0.0,0.0,0.0,0.0,0.0,0.0,0.0,0.0,0.0,0.0,0.0,0.0,0.0,0.0,0.0,0.0,0.0,0.0,0.0,0.0,0.0,0.0,0.0,0.0,0.0,0.0,0.0,0.0,0.0,0.0,0.0,0.0,0.0,0.0,0.0,0.0,0.0,0.0,0.0,0.0,0.0,0.0,0.0,0.0,0.0,0.0,0.0,0.0,0.0,0.0,0.0,0.0,0.0,0.0,0.0,0.0,0.0,0.0,0.0,0.0,0.0,0.0,0.0,0.0,0.0,0.0,0.0,0.0,0.0,0.0,0.0,0.0,0.0,0.0,0.0,0.0,0.0,0.0,0.0,0.0,0.0,0.0,0.0,0.0,0.0,0.0,0.0,0.0,0.0,0.0,0.0,0.0,0.0,0.0,0.0,0.0,0.0,0.0,0.0,0.0,0.0,0.0,0.0,0.0,0.0,0.0,0.0,0.0,0.0,0.0,0.0,0.0,0.0,0.0,0.0,0.0,0.0,0.0,0.0,0.0,0.0,0.0,0.0,0.0,0.0,0.0,0.0,0.0,0.0,0.0,0.0,0.0,0.0,0.0,0.0,0.0,0.0,0.0,0.0,0.0,0.0,0.0,0.0,0.0,0.0,0.0,0.0,0.0,0.0,0.0,0.0,0.0,0.0,0.0,0.0,0.0,0.0,0.0,0.0,0.0,0.0,0.0,0.0,0.0,0.0,0.0,0.0,0.0,0.0,0.0,0.0,0.0,0.0,0.0,0.0,0.0,0.0,0.0,0.0,0.0,0.0,0.0,0.0,0.0,0.0,0.0,0.0,0.0,0.0,0.0,0.0,0.0,0.0,0.0,0.0,0.0,0.0,0.0,0.0,0.0,0.0,0.0,0.0,0.0,0.0,0.0,0.0,0.0,0.0,0.0,0.0,0.0,0.0,0.0,0.0,0.0,0.0,0.0,0.0,0.0,0.0,0.0,0.0,0.0,0.0,0.0,0.0,0.0,0.0,0.0,0.0,0.0,0.0,0.0,0.0,0.0,0.0,0.0,0.0,0.0,0.0,0.0,0.0,0.0,0.0,0.0,0.0,0.0,0.0,0.0,0.0,0.0,0.0,0.0,0.0,0.0,0.0,0.0,0.0,0.0,0.0,0.0,0.0,0.0,0.0,0.0,0.0,0.0,0.0,0.0,0.0,0.0,0.0,0.0,0.0,0.0,0.0,0.0,0.0,0.0,0.0,0.0,0.0,0.0,0.0,0.0,0.0,0.0,0.0,0.0,0.0,0.0,0.0,0.0,0.0,0.0,0.0,0.0,0.0,0.0,0.0,0.0,0.0,0.0,0.0,0.0,0.0,0.0,0.0,0.0,-0.2937,0.0,0.0,0.0,-0.3841,0.0,0.0,0.0,0.0,0.0,0.0,0.0,0.0,0.0,0.0,0.0,0.0,0.0,0.0,0.0,0.0,0.0,0.0,0.0,0.0,0.0,0.0,0.0,0.0,0.0,0.0,0.0,0.0,0.0,0.0,0.0,0.0,0.0,0.0,0.0,0.0,0.0,0.0,0.0,0.0,0.0,0.0,0.0,0.0,0.0,0.0,0.0,0.0,0.0,0.0,0.0,0.0,0.0,0.0,0.0,0.0,0.0,0.0,0.0,0.0,0.0,0.0,0.0,0.0,0.0,0.0,0.0,0.0,0.0,0.0,0.0,0.0,0.0,0.0,0.0,0.0,0.0,0.0,0.0,0.0,0.0,0.0,0.0,0.0,0.0,0.0,0.0,0.0,0.0,0.0,0.0,0.0,0.0,0.0,0.0,0.0,0.0,0.0,0.0,0.0,0.0,0.0,0.0,0.0,0.0,0.0,0.0,0.0,0.0,0.0,-0.3106,-0.3298,-0.3518,-0.367,-0.3694,0.0,0.0,0.0,0.0,0.0,0.0,0.0,0.0,0.0,0.0,0.0,0.0,0.0,0.0,0.0,0.0,0.0,0.0,0.0,0.0,0.0,0.0,0.0,0.0,0.0,0.0,0.0,0.0,0.0,0.0,0.0,0.0,0.0,0.0,0.0,0.0,0.0,0.0,0.0,0.0,0.0,0.0,0.0,0.0,0.0,0.0,0.0,0.0,0.0,0.0,0.0,0.0,0.0,0.0,0.0,0.0,0.0,0.0,0.0,0.0,0.0,0.0,0.0,0.0,0.0,0.0,0.0,0.0,0.0,0.0,0.0,0.0,0.0,0.0,0.0,0.0,0.0,0.0,0.0,0.0,0.0,0.0,0.0,0.0,0.0,0.0,0.0,0.0,0.0,0.0,0.0,0.0,0.0,0.0,0.0,0.0,0.0,0.0,0.0,0.0,0.0,0.0,0.0,0.0,0.0,0.0,0.0,0.0,0.0,0.0,0.0,0.0,-0.4029,-0.4322,-0.4142,0.0,0.0,0.0,0.0,0.0,0.0,0.0,0.0,0.0,0.0,0.0,0.0,0.0,0.0,0.0,0.0,0.0,0.0,0.0,0.0,0.0,0.0,0.0,0.0,0.0,0.0,0.0,0.0,0.0,0.0,0.0,0.0,0.0,0.0,0.0,0.0,0.0,0.0,0.0,0.0,0.0,0.0,0.0,0.0,0.0,0.0,0.0,0.0,0.0,0.0,0.0,0.0,0.0,0.0,0.0,0.0,0.0,0.0,0.0,0.0,0.0,0.0,0.0,0.0,0.0,0.0,0.0,0.0,0.0,0.0,0.0,0.0,0.0,0.0,0.0,0.0,0.0,0.0,0.0,0.0,0.0,0.0,0.0,0.0,0.0,0.0,0.0,0.0,0.0,0.0,0.0,0.0,0.0,0.0,0.0,0.0,0.0,0.0,0.0,0.0,0.0,0.0,0.0,0.0,0.0,0.0,0.0,0.0,0.0,0.0,-0.3201,-0.34,-0.4665,0.0,-0.5628,0.0,0.0,0.0,0.0,0.0,0.0,0.0,0.0,0.0,0.0,0.0,0.0,0.0,0.0,0.0,0.0,0.0,0.0,0.0,0.0,0.0,0.0,0.0,0.0,0.0,0.0,0.0,0.0,0.0,0.0,0.0,0.0,0.0,0.0,0.0,0.0,0.0,0.0,0.0,0.0,0.0,0.0,0.0,0.0,0.0,0.0,0.0,0.0,0.0,0.0,0.0,0.0,0.0,0.0,0.0,0.0,0.0,0.0,0.0,0.0,0.0,0.0,0.0,0.0,0.0,0.0,0.0,0.0,0.0,0.0,0.0,0.0,0.0,0.0,0.0,0.0,0.0,0.0,0.0,0.0,0.0,0.0,0.0,0.0,0.0,0.0,0.0,0.0,0.0,0.0,0.0,0.0,0.0,0.0,0.0,0.0,0.0,0.0,0.0,0.0,0.0,0.0,0.0,0.0,0.0,0.0,0.0,0.0,0.0,0.0,-0.3625,-0.3869,-0.4613,-0.5122,0.0,0.0,0.0,0.0,0.0,0.0,0.0,0.0,0.0,0.0,0.0,0.0,0.0,0.0,0.0,0.0,0.0,0.0,0.0,0.0,0.0,0.0,0.0,0.0,0.0,0.0,0.0,0.0,0.0,0.0,0.0,0.0,0.0,0.0,0.0,0.0,0.0,0.0,0.0,0.0,0.0,0.0,0.0,0.0,0.0,0.0,0.0,0.0,0.0,0.0,0.0,0.0,0.0,0.0,0.0,0.0,0.0,0.0,0.0,0.0,0.0,0.0,0.0,0.0,0.0,0.0,0.0,0.0,0.0,0.0,0.0,0.0,0.0,0.0,0.0,0.0,0.0,0.0,0.0,0.0,0.0,0.0,0.0,0.0,0.0,0.0,0.0,0.0,0.0,0.0,0.0,0.0,0.0,0.0,0.0,0.0,0.0,0.0,0.0,0.0,0.0,0.0,0.0,0.0,0.0,0.0,0.0,0.0,0.0,0.0,-0.3066,-0.3999,-0.4739,-0.5228,-0.5432,-0.534,0.0,0.0,0.0,0.0,0.0,0.0,0.0,0.0,0.0,0.0,0.0,0.0,0.0,0.0,0.0,0.0,0.0,0.0,0.0,0.0,0.0,0.0,0.0,0.0,0.0,0.0,0.0,0.0,0.0,0.0,0.0,0.0,0.0,0.0,0.0,0.0,0.0,0.0,0.0,0.0,0.0,0.0,0.0,0.0,0.0,0.0,0.0,0.0,0.0,0.0,0.0,0.0,0.0,0.0,0.0,0.0,0.0,0.0,0.0,0.0,0.0,0.0,0.0,0.0,0.0,0.0,0.0,0.0,0.0,0.0,0.0,0.0,0.0,0.0,0.0,0.0,0.0,0.0,0.0,0.0,0.0,0.0,0.0,0.0,0.0,0.0,0.0,0.0,0.0,0.0,0.0,0.0,0.0,0.0,0.0,0.0,0.0,0.0,0.0,0.0,0.0,0.0,0.0,0.0,0.0,0.0,0.0,0.0,-0.0977,-0.2435,-0.4197,-0.6175,-0.6959,-0.6981,0.0,0.0,0.0,0.0,0.0,0.0,0.0,0.0,0.0,0.0,0.0,0.0,0.0,0.0,0.0,0.0,0.0,0.0,0.0,0.0,0.0,0.0,0.0,0.0,0.0,0.0,0.0,0.0,0.0,0.0,0.0,0.0,0.0,0.0,0.0,0.0,0.0,0.0,0.0,0.0,0.0,0.0,0.0,0.0,0.0,0.0,0.0,0.0,0.0,0.0,0.0,0.0,0.0,0.0,0.0,0.0,0.0,0.0,0.0,0.0,0.0,0.0,0.0,0.0,0.0,0.0,0.0,0.0,0.0,0.0,0.0,0.0,0.0,0.0,0.0,0.0,0.0,0.0,0.0,0.0,0.0,0.0,0.0,0.0,0.0,0.0,0.0,0.0,0.0,0.0,0.0,0.0,0.0,0.0,0.0,0.0,0.0,0.0,0.0,0.0,0.0,0.0,0.0,0.0,0.0,0.0,0.0,0.0,0.0,-0.11,-0.303,-0.5486,-0.8221,-0.7004,-0.6932,0.0,0.0,0.0,0.0,0.0,0.0,0.0,0.0,0.0,0.0,0.0,0.0,0.0,0.0,0.0,0.0,0.0,0.0,0.0,0.0,0.0,0.0,0.0,0.0,0.0,0.0,0.0,0.0,0.0,0.0,0.0,0.0,0.0,0.0,0.0,0.0,0.0,0.0,0.0,0.0,0.0,0.0,0.0,0.0,0.0,0.0,0.0,0.0,0.0,0.0,0.0,0.0,0.0,0.0,0.0,0.0,0.0,0.0,0.0,0.0,0.0,0.0,0.0,0.0,0.0,0.0,0.0,0.0,0.0,0.0,0.0,0.0,0.0,0.0,0.0,0.0,0.0,0.0,0.0,0.0,0.0,0.0,0.0,0.0,0.0,0.0,0.0,0.0,0.0,0.0,0.0,0.0,0.0,0.0,0.0,0.0,0.0,0.0,0.0,0.0,0.0,0.0,0.0,0.0,0.0,0.0,0.0,0.0,0.0,-0.2705,-0.4765,-0.7081,-0.9449,-0.7659,-0.7193,0.0,0.0,0.0,0.0,0.0,0.0,0.0,0.0,0.0,0.0,0.0,0.0,0.0,0.0,0.0,0.0,0.0,0.0,0.0,0.0,0.0,0.0,0.0,0.0,0.0,0.0,0.0,0.0,0.0,0.0,0.0,0.0,0.0,0.0,0.0,0.0,0.0,0.0,0.0,0.0,0.0,0.0,0.0,0.0,0.0,0.0,0.0,0.0,0.0,0.0,0.0,0.0,0.0,0.0,0.0,0.0,0.0,0.0,0.0,0.0,0.0,0.0,0.0,0.0,0.0,0.0,0.0,0.0,0.0,0.0,0.0,0.0,0.0,0.0,0.0,0.0,0.0,0.0,0.0,0.0,0.0,0.0,0.0,0.0,0.0,0.0,0.0,0.0,0.0,0.0,0.0,0.0,0.0,0.0,0.0,0.0,0.0,0.0,0.0,0.0,0.0,0.0,0.0,0.0,0.0,0.0,0.0,0.0,-0.2721,-0.579,-0.7572,-0.8915,-0.9761,-0.9045,-0.7866,0.0,0.0,0.0,0.0,0.0,0.0,0.0,0.0,0.0,0.0,0.0,0.0,0.0,0.0,0.0,0.0,0.0,0.0,0.0,0.0,0.0,0.0,0.0,0.0,0.0,0.0,0.0,0.0,0.0,0.0,0.0,0.0,0.0,0.0,0.0,0.0,0.0,0.0,0.0,0.0,0.0,0.0,0.0,0.0,0.0,0.0,0.0,0.0,0.0,0.0,0.0,0.0,0.0,0.0,0.0,0.0,0.0,0.0,0.0,0.0,0.0,0.0,0.0,0.0,0.0,0.0,0.0,0.0,0.0,0.0,0.0,0.0,0.0,0.0,0.0,0.0,0.0,0.0,0.0,0.0,0.0,0.0,0.0,0.0,0.0,0.0,0.0,0.0,0.0,0.0,0.0,0.0,0.0,0.0,0.0,0.0,0.0,0.0,0.0,0.0,0.0,0.0,0.0,0.0,0.0,0.0,0.0,0.0,0.0,-0.4152,-0.8137,-1.0491,-1.0803,-0.8742,-0.8144,0.0,0.0,0.0,0.0,0.0,0.0,0.0,0.0,0.0,0.0,0.0,0.0,0.0,0.0,0.0,0.0,0.0,0.0,0.0,0.0,0.0,0.0,0.0,0.0,0.0,0.0,0.0,0.0,0.0,0.0,0.0,0.0,0.0,0.0,0.0,0.0,0.0,0.0,0.0,0.0,0.0,0.0,0.0,0.0,0.0,0.0,0.0,0.0,0.0,0.0,0.0,0.0,0.0,0.0,0.0,0.0,0.0,0.0,0.0,0.0,0.0,0.0,0.0,0.0,0.0,0.0,0.0,0.0,0.0,0.0,0.0,0.0,0.0,0.0,0.0,0.0,0.0,0.0,0.0,0.0,0.0,0.0,0.0,0.0,0.0,0.0,0.0,0.0,0.0,0.0,0.0,0.0,0.0,0.0,0.0,0.0,0.0,0.0,0.0,0.0,0.0,0.0,0.0,0.0,0.0,0.0,0.0,0.0,0.0,-0.5596,-1.0111,-1.2685,-1.2862,-0.9938,-0.8802,-0.9709,0.0,0.0,0.0,0.0,0.0,0.0,0.0,0.0,0.0,0.0,0.0,0.0,0.0,0.0,0.0,0.0,0.0,0.0,0.0,0.0,0.0,0.0,0.0,0.0,0.0,0.0,0.0,0.0,0.0,0.0,0.0,0.0,0.0,0.0,0.0,0.0,0.0,0.0,0.0,0.0,0.0,0.0,0.0,0.0,0.0,0.0,0.0,0.0,0.0,0.0,0.0,0.0,0.0,0.0,0.0,0.0,0.0,0.0,0.0,0.0,0.0,0.0,0.0,0.0,0.0,0.0,0.0,0.0,0.0,0.0,0.0,0.0,0.0,0.0,0.0,0.0,0.0,0.0,0.0,0.0,0.0,0.0,0.0,0.0,0.0,0.0,0.0,0.0,0.0,0.0,0.0,0.0,0.0,0.0,0.0,0.0,0.0,0.0,0.0,0.0,0.0,0.0,0.0,0.0,0.0,0.0,0.0,0.0,-0.9299,-1.3204,-1.5235,-1.5196,-1.2138,-0.9729,0.0,0.0,0.0,0.0,0.0,0.0,0.0,0.0,0.0,0.0,0.0,0.0,0.0,0.0,0.0,0.0,0.0,0.0,0.0,0.0,0.0,0.0,0.0,0.0,0.0,0.0,0.0,0.0,0.0,0.0,0.0,0.0,0.0,0.0,0.0,0.0,0.0,0.0,0.0,0.0,0.0,0.0,0.0,0.0,0.0,0.0,0.0,0.0,0.0,0.0,0.0,0.0,0.0,0.0,0.0,0.0,0.0,0.0,0.0,0.0,0.0,0.0,0.0,0.0,0.0,0.0,0.0,0.0,0.0,0.0,0.0,0.0,0.0,0.0,0.0,0.0,0.0,0.0,0.0,0.0,0.0,0.0,0.0,0.0,0.0,0.0,0.0,0.0,0.0,0.0,0.0,0.0,0.0,0.0,0.0,0.0,0.0,0.0,0.0,0.0,0.0,0.0,0.0,0.0,0.0,0.0,0.0,0.0,0.0,-1.0938,-1.4888,-1.6367,-1.5134,-1.1621,-0.9623,0.0,0.0,0.0,0.0,0.0,0.0,0.0,0.0,0.0,0.0,0.0,0.0,0.0,0.0,0.0,0.0,0.0,0.0,0.0,0.0,0.0,0.0,0.0,0.0,0.0,0.0,0.0,0.0,0.0,0.0,0.0,0.0,0.0,0.0,0.0,0.0,0.0,0.0,0.0,0.0,0.0,0.0,0.0,0.0,0.0,0.0,0.0,0.0,0.0,0.0,0.0,0.0,0.0,0.0,0.0,0.0,0.0,0.0,0.0,0.0,0.0,0.0,0.0,0.0,0.0,0.0,0.0,0.0,0.0,0.0,0.0,0.0,0.0,0.0,0.0,0.0,0.0,0.0,0.0,0.0,0.0,0.0,0.0,0.0,0.0,0.0,0.0,0.0,0.0,0.0,0.0,0.0,0.0,0.0,0.0,0.0,0.0,0.0,0.0,0.0,0.0,0.0,0.0,0.0,0.0,0.0,0.0,0.0,-0.8093,-1.2075,-1.6329,-1.8114,-1.7247,-1.3054,-1.0678,0.0,0.0,0.0,0.0,0.0,0.0,0.0,0.0,0.0,0.0,0.0,0.0,0.0,0.0,0.0,0.0,0.0,0.0,0.0,0.0,0.0,0.0,0.0,0.0,0.0,0.0,0.0,0.0,0.0,0.0,0.0,0.0,0.0,0.0,0.0,0.0,0.0,0.0,0.0,0.0,0.0,0.0,0.0,0.0,0.0,0.0,0.0,0.0,0.0,0.0,0.0,0.0,0.0,0.0,0.0,0.0,0.0,0.0,0.0,0.0,0.0,0.0,0.0,0.0,0.0,0.0,0.0,0.0,0.0,0.0,0.0,0.0,0.0,0.0,0.0,0.0,0.0,0.0,0.0,0.0,0.0,0.0,0.0,0.0,0.0,0.0,0.0,0.0,0.0,0.0,0.0,0.0,0.0,0.0,0.0,0.0,0.0,0.0,0.0,0.0,0.0,0.0,0.0,0.0,0.0,0.0,0.0,0.0,-0.919,-1.3239,-1.7582,-2.0018,-2.0118,-1.5428,-1.2312,0.0,0.0,0.0,0.0,0.0,0.0,0.0,0.0,0.0,0.0,0.0,0.0,0.0,0.0,0.0,0.0,0.0,0.0,0.0,0.0,0.0,0.0,0.0,0.0,0.0,0.0,0.0,0.0,0.0,0.0,0.0,0.0,0.0,0.0,0.0,0.0,0.0,0.0,0.0,0.0,0.0,0.0,0.0,0.0,0.0,0.0,0.0,0.0,0.0,0.0,0.0,0.0,0.0,0.0,0.0,0.0,0.0,0.0,0.0,0.0,0.0,0.0,0.0,0.0,0.0,0.0,0.0,0.0,0.0,0.0,0.0,0.0,0.0,0.0,0.0,0.0,0.0,0.0,0.0,0.0,0.0,0.0,0.0,0.0,0.0,0.0,0.0,0.0,0.0,0.0,0.0,0.0,0.0,0.0,0.0,0.0,0.0,0.0,0.0,0.0,0.0,0.0,0.0,0.0,0.0,0.0,0.0,0.0,-1.1293,-1.5712,-1.8794,-2.0492,-2.0782,-1.6049,-1.3267,0.0,0.0,0.0,0.0,0.0,0.0,0.0,0.0,0.0,0.0,0.0,0.0,0.0,0.0,0.0,0.0,0.0,0.0,0.0,0.0,0.0,0.0,0.0,0.0,0.0,0.0,0.0,0.0,0.0,0.0,0.0,0.0,0.0,0.0,0.0,0.0,0.0,0.0,0.0,0.0,0.0,0.0,0.0,0.0,0.0,0.0,0.0,0.0,-0.9101,0.0,0.0,0.0,0.0,0.0,0.0,0.0,0.0,0.0,0.0,0.0,0.0,0.0,0.0,0.0,0.0,0.0,0.0,0.0,0.0,0.0,0.0,0.0,0.0,0.0,0.0,0.0,0.0,0.0,0.0,0.0,0.0,0.0,0.0,0.0,0.0,0.0,0.0,0.0,0.0,0.0,0.0,0.0,0.0,0.0,0.0,0.0,0.0,0.0,0.0,0.0,0.0,0.0,0.0,0.0,0.0,0.0,0.0,0.0,-1.2086,-1.6383,-1.9282,-2.0763,-2.0669,-1.7588,-1.522,0.0,0.0,0.0,0.0,0.0,0.0,0.0,0.0,0.0,0.0,0.0,0.0,0.0,0.0,0.0,0.0,0.0,0.0,0.0,0.0,0.0,0.0,0.0,0.0,0.0,0.0,0.0,0.0,0.0,0.0,0.0,0.0,0.0,0.0,0.0,0.0,0.0,0.0,0.0,0.0,0.0,0.0,0.0,0.0,0.0,0.0,0.0,0.0,0.0,0.0,0.0,0.0,0.0,0.0,0.0,0.0,0.0,0.0,0.0,0.0,0.0,0.0,0.0,0.0,0.0,0.0,0.0,0.0,0.0,0.0,0.0,0.0,0.0,0.0,0.0,0.0,0.0,0.0,0.0,0.0,0.0,0.0,0.0,0.0,0.0,0.0,0.0,0.0,0.0,0.0,0.0,0.0,0.0,0.0,0.0,0.0,0.0,0.0,0.0,0.0,0.0,0.0,0.0,0.0,0.0,0.0,0.0,-0.9743,-1.2478,-1.6857,-1.952,-2.0731,-2.0499,-1.9169,-1.7214,-1.4618,0.0,0.0,0.0,0.0,0.0,0.0,0.0,0.0,0.0,0.0,0.0,0.0,0.0,0.0,0.0,0.0,0.0,0.0,0.0,0.0,0.0,0.0,0.0,0.0,0.0,0.0,0.0,0.0,0.0,0.0,0.0,0.0,0.0,0.0,0.0,0.0,0.0,0.0,-0.7959,-0.8588,0.0,0.0,0.0,0.0,0.0,0.0,0.0,0.0,-0.971,0.0,0.0,0.0,0.0,0.0,0.0,0.0,0.0,0.0,0.0,0.0,0.0,0.0,0.0,0.0,0.0,0.0,0.0,0.0,0.0,0.0,0.0,0.0,0.0,0.0,0.0,0.0,0.0,0.0,0.0,0.0,0.0,0.0,0.0,0.0,0.0,0.0,0.0,0.0,0.0,0.0,0.0,0.0,0.0,0.0,0.0,0.0,0.0,0.0,0.0,0.0,0.0,0.0,0.0,0.0,0.0,-1.0924,-1.0816,-1.3627,-1.9489,-1.9882,-2.0104,-2.0212,-1.9417,-1.7753,-1.5143,0.0,0.0,0.0,0.0,0.0,0.0,0.0,0.0,0.0,0.0,0.0,0.0,0.0,0.0,0.0,0.0,0.0,0.0,0.0,0.0,0.0,0.0,0.0,0.0,0.0,0.0,0.0,0.0,0.0,0.0,0.0,0.0,0.0,0.0,0.0,0.0,0.0,0.0,0.0,-1.0975,-1.1216,0.0,0.0,0.0,0.0,0.0,0.0,0.0,0.0,-0.809,0.0,0.0,0.0,0.0,0.0,0.0,0.0,0.0,0.0,0.0,0.0,0.0,0.0,0.0,0.0,0.0,0.0,0.0,0.0,0.0,0.0,0.0,0.0,0.0,0.0,0.0,0.0,0.0,0.0,0.0,0.0,0.0,0.0,0.0,0.0,0.0,0.0,0.0,0.0,0.0,0.0,0.0,0.0,0.0,0.0,0.0,0.0,0.0,0.0,0.0,0.0,0.0,0.0,0.0,0.0,-1.1024,-1.2874,-1.5778,-1.9778,-2.0035,-2.0238,-2.0472,-1.9599,-1.801,0.0,0.0,0.0,0.0,0.0,0.0,0.0,0.0,0.0,0.0,0.0,0.0,0.0,0.0,0.0,0.0,0.0,0.0,0.0,0.0,0.0,0.0,0.0,0.0,0.0,0.0,0.0,0.0,0.0,0.0,0.0,0.0,0.0,0.0,0.0,0.0,0.0,0.0,0.0,0.0,-1.1705,-1.2008,-1.3464,0.0,0.0,0.0,0.0,0.0,0.0,-0.9292,-0.8038,0.0,0.0,0.0,0.0,0.0,0.0,0.0,0.0,0.0,0.0,0.0,0.0,0.0,0.0,0.0,0.0,0.0,0.0,0.0,0.0,0.0,0.0,0.0,0.0,0.0,0.0,0.0,0.0,0.0,0.0,0.0,0.0,0.0,0.0,0.0,0.0,0.0,0.0,0.0,0.0,0.0,0.0,0.0,0.0,0.0,0.0,0.0,0.0,0.0,0.0,0.0,0.0,0.0,0.0,0.0,-1.0903,-1.4522,-1.7522,-1.9735,-2.0279,-2.0649,-2.0948,-2.0089,-1.8465,0.0,0.0,0.0,0.0,0.0,0.0,0.0,0.0,0.0,0.0,0.0,0.0,0.0,0.0,0.0,0.0,0.0,0.0,0.0,0.0,0.0,0.0,0.0,0.0,0.0,0.0,0.0,0.0,0.0,0.0,0.0,0.0,0.0,0.0,0.0,0.0,0.0,0.0,0.0,0.0,0.0,-1.2389,-1.2595,-1.2173,0.0,0.0,0.0,0.0,-1.0455,-0.966,0.0,0.0,0.0,0.0,0.0,0.0,0.0,0.0,0.0,0.0,0.0,0.0,0.0,0.0,0.0,0.0,0.0,0.0,0.0,0.0,0.0,0.0,0.0,0.0,0.0,0.0,0.0,0.0,0.0,0.0,0.0,0.0,0.0,0.0,0.0,0.0,0.0,0.0,0.0,0.0,0.0,0.0,0.0,0.0,0.0,0.0,0.0,0.0,0.0,0.0,0.0,0.0,0.0,0.0,0.0,0.0,-1.1351,-1.4513,-1.7648,-2.0578,-2.072,-2.0965,-2.1575,-2.1482,-1.9648,0.0,0.0,0.0,0.0,0.0,0.0,0.0,0.0,0.0,0.0,0.0,0.0,0.0,0.0,0.0,0.0,0.0,0.0,0.0,0.0,0.0,0.0,0.0,0.0,0.0,0.0,0.0,0.0,0.0,0.0,0.0,0.0,0.0,0.0,0.0,0.0,0.0,0.0,0.0,0.0,0.0,-1.2678,-1.2762,-1.227,-1.1739,0.0,0.0,-0.9944,-1.1479,-1.0943,0.0,0.0,0.0,0.0,0.0,0.0,0.0,0.0,0.0,0.0,0.0,0.0,0.0,0.0,0.0,0.0,0.0,0.0,0.0,0.0,0.0,0.0,0.0,0.0,0.0,0.0,0.0,0.0,0.0,0.0,0.0,0.0,0.0,0.0,0.0,0.0,0.0,0.0,0.0,0.0,0.0,0.0,0.0,0.0,0.0,0.0,0.0,0.0,0.0,0.0,0.0,0.0,0.0,0.0,0.0,-1.1231,-1.1263,-1.6222,-1.9278,-2.0128,-2.0076,-2.0553,-2.1689,-2.1689,-1.9821,0.0,0.0,0.0,0.0,0.0,0.0,0.0,0.0,0.0,0.0,0.0,0.0,0.0,0.0,0.0,0.0,0.0,0.0,0.0,0.0,0.0,0.0,0.0,0.0,0.0,0.0,0.0,0.0,0.0,0.0,0.0,0.0,0.0,0.0,0.0,0.0,0.0,0.0,0.0,0.0,0.0,0.0,-1.3505,-1.2807,0.0,0.0,0.0,-1.0548,-1.096,0.0,0.0,0.0,0.0,0.0,0.0,0.0,0.0,0.0,0.0,0.0,0.0,0.0,0.0,0.0,0.0,0.0,0.0,0.0,0.0,0.0,0.0,0.0,0.0,0.0,0.0,0.0,0.0,0.0,0.0,0.0,0.0,0.0,0.0,0.0,0.0,0.0,0.0,0.0,0.0,0.0,0.0,0.0,0.0,0.0,0.0,0.0,0.0,0.0,0.0,0.0,0.0,0.0,0.0,0.0,0.0,0.0,-1.1278,-1.7691,-2.0749,-1.9999,-1.9716,-2.0213,-2.1538,-2.1924,0.0,0.0,0.0,0.0,0.0,0.0,0.0,0.0,0.0,0.0,0.0,0.0,0.0,0.0,0.0,0.0,0.0,0.0,0.0,0.0,0.0,0.0,0.0,0.0,0.0,0.0,0.0,-0.5238,0.0,0.0,0.0,0.0,0.0,0.0,0.0,0.0,0.0,0.0,0.0,0.0,0.0,0.0,-1.2119,-1.3365,-1.3074,-1.2513,0.0,0.0,-1.1265,-1.1016,-1.1144,-1.0802,0.0,0.0,0.0,0.0,0.0,0.0,0.0,0.0,0.0,0.0,0.0,0.0,0.0,0.0,0.0,0.0,0.0,0.0,0.0,0.0,0.0,0.0,0.0,0.0,0.0,0.0,0.0,0.0,0.0,0.0,0.0,0.0,0.0,0.0,0.0,0.0,0.0,0.0,0.0,0.0,0.0,0.0,0.0,0.0,0.0,0.0,0.0,0.0,0.0,0.0,0.0,0.0,0.0,0.0,-1.2986,-1.2174,-1.816,-2.1228,-2.0962,-2.0206,-2.0268,-2.133,-2.255,-2.0507,0.0,0.0,0.0,0.0,0.0,0.0,0.0,0.0,0.0,0.0,0.0,0.0,0.0,0.0,0.0,0.0,0.0,0.0,0.0,0.0,0.0,0.0,0.0,0.0,0.0,0.0,0.0,0.0,0.0,0.0,0.0,0.0,0.0,0.0,0.0,0.0,0.0,0.0,0.0,0.0,0.0,-1.1349,-1.1396,-1.2728,-1.3322,0.0,-1.2074,-1.2153,-1.2518,-1.2224,-1.1975,-1.186,0.0,0.0,0.0,0.0,0.0,0.0,0.0,0.0,0.0,0.0,0.0,0.0,0.0,0.0,0.0,0.0,0.0,0.0,0.0,0.0,0.0,0.0,0.0,0.0,0.0,0.0,0.0,0.0,0.0,0.0,0.0,0.0,0.0,0.0,0.0,0.0,0.0,0.0,0.0,0.0,0.0,0.0,0.0,0.0,0.0,0.0,0.0,0.0,0.0,0.0,0.0,0.0,0.0,-1.2995,-1.1897,-1.8019,-2.0805,-2.0045,-1.9866,-1.9945,-2.0258,-2.1415,-2.0221,0.0,0.0,0.0,0.0,0.0,0.0,0.0,0.0,0.0,0.0,0.0,0.0,0.0,0.0,0.0,0.0,0.0,0.0,0.0,0.0,0.0,0.0,0.0,0.0,0.0,0.0,0.0,0.0,-1.4782,-1.667,-1.8881,0.0,0.0,0.0,0.0,0.0,0.0,0.0,0.0,0.0,0.0,-1.2609,-1.3165,-1.3224,0.0,0.0,-1.2735,-1.2567,-1.2787,-1.1606,-1.0677,-1.0665,-0.935,0.0,0.0,0.0,0.0,0.0,0.0,0.0,0.0,0.0,0.0,0.0,0.0,0.0,0.0,0.0,0.0,0.0,0.0,0.0,0.0,0.0,0.0,0.0,0.0,0.0,0.0,0.0,0.0,0.0,0.0,0.0,0.0,0.0,0.0,0.0,0.0,0.0,0.0,0.0,0.0,0.0,0.0,0.0,0.0,0.0,0.0,0.0,0.0,0.0,0.0,0.0,0.0,-1.289,-1.2199,-1.8047,-2.075,-2.0019,-1.9693,-1.9658,-1.995,-2.0204,-1.9417,0.0,0.0,0.0,0.0,0.0,0.0,0.0,0.0,0.0,0.0,0.0,0.0,0.0,0.0,0.0,0.0,0.0,0.0,0.0,0.0,0.0,0.0,0.0,0.0,0.0,0.0,0.0,0.0,-1.1111,-1.2612,-1.851,0.0,0.0,0.0,0.0,0.0,0.0,0.0,0.0,0.0,0.0,-1.3332,-1.4312,-1.3813,-1.3324,-1.3154,-1.281,-1.2425,-1.2117,-1.0899,-0.9852,-0.9547,0.0,0.0,0.0,0.0,0.0,0.0,0.0,0.0,0.0,0.0,0.0,0.0,0.0,0.0,0.0,0.0,0.0,0.0,0.0,0.0,0.0,0.0,0.0,0.0,0.0,0.0,0.0,0.1002,0.0,0.0,-0.158,0.0,0.0,0.0,0.0,0.0,0.0,0.0,0.0,0.0,0.0,0.0,0.0,0.0,0.0,0.0,0.0,0.0,0.0,0.0,0.0,0.0,0.0,-1.2762,-1.333,-1.8463,-2.1224,-2.1568,-1.9893,-1.9544,-2.0635,-1.9237,-1.8073,-1.7427,0.0,0.0,0.0,0.0,0.0,0.0,0.0,0.0,0.0,0.0,0.0,0.0,0.0,0.0,0.0,0.0,0.0,0.0,0.0,0.0,0.0,0.0,0.0,0.0,0.0,0.0,-1.8437,-0.9213,-0.7362,0.0,0.0,0.0,0.0,0.0,0.0,0.0,0.0,0.0,0.0,-1.347,-1.3124,-1.422,-1.4398,-1.3826,-1.2383,-1.2136,-1.1699,-1.0508,-1.0321,-1.0008,0.0,0.0,0.0,0.0,0.0,0.0,0.0,0.0,0.0,0.0,0.0,0.0,0.0,0.0,0.0,0.0,0.0,0.0,0.0,0.0,0.0,0.0,0.0,0.0,0.0,0.0,0.0,-0.1979,-0.1224,0.0,0.0,0.0,0.0,0.0,0.0,0.0,0.0,0.0,0.0,0.0,-1.4641,-1.6293,0.0,0.0,0.0,0.0,0.0,0.0,0.0,0.0,0.0,0.0,0.0,0.0,-1.4607,-1.5262,-2.0516,-2.279,-2.1657,-2.1059,-2.0336,-1.9504,-2.0489,-2.1377,-2.2083,0.0,0.0,0.0,0.0,0.0,0.0,0.0,0.0,0.0,0.0,0.0,0.0,0.0,0.0,0.0,0.0,0.0,0.0,0.0,0.0,0.0,0.0,0.0,0.0,0.0,-1.0366,0.0,0.0,0.0,0.0,0.0,0.0,0.0,0.0,0.0,0.0,0.0,-1.2831,-1.4606,-1.423,-1.3876,-1.4217,-1.46,-1.4204,0.0,0.0,0.0,0.0,0.0,0.0,0.0,0.0,0.0,0.0,0.0,0.0,0.0,0.0,-0.8335,-0.8219,-0.7587,-0.6614,-0.4965,0.0,0.0,0.0,0.0,0.0,0.0,0.0,0.0,0.0,0.0,0.0,0.0,0.0,0.0,-0.401,0.0,-0.4691,0.0,0.0,0.0,0.0,0.0,0.0,0.0,0.0,-1.5737,-1.7505,-1.7921,-1.9433,-1.9504,0.0,-1.7336,-1.5264,0.0,0.0,0.0,0.0,0.0,0.0,0.0,0.0,-1.5898,-1.7751,-2.2157,-2.3949,-2.2842,-2.2331,-2.1585,-2.0574,-2.1891,-2.2928,-2.3549,-2.0971,-1.8685,0.0,0.0,0.0,0.0,0.0,0.0,0.0,0.0,0.0,0.0,0.0,0.0,0.0,0.0,0.0,0.0,0.0,0.0,0.0,0.0,0.0,0.0,0.0,-0.5424,0.0,0.0,0.0,0.0,0.0,0.0,0.0,0.0,0.0,-1.4853,-1.4144,-1.3741,-1.4783,-1.4599,-1.444,-1.4476,0.0,0.0,0.0,0.0,0.0,0.0,0.0,-1.0172,-1.1712,-0.9907,-0.8548,-0.9475,-0.9776,-0.9681,-0.8925,0.0,0.0,-1.0087,-1.0505,-1.0154,-0.763,-0.9056,-1.0941,-1.157,-1.0846,-1.0573,0.0,0.0,0.0,0.0,0.0,0.0,0.0,0.0,-0.7015,-0.6409,0.0,-0.7227,0.0,0.0,0.0,0.0,0.0,-1.2723,0.0,0.0,-2.1149,-2.2332,-2.0318,-2.1243,-2.1854,-2.1988,-1.962,-1.8527,-1.8542,-1.6469,0.0,0.0,0.0,0.0,0.0,0.0,-1.6725,-2.0856,-2.3382,-2.4741,-2.4976,-2.3584,-2.3058,-2.3566,-2.3247,-2.2636,-2.1659,-1.9914,-1.8835,-1.8608,-0.9537,0.0,0.0,0.0,0.0,0.0,0.0,0.0,0.0,0.0,0.0,0.0,0.0,0.0,0.0,0.0,0.0,0.0,0.0,0.0,0.0,-0.4796,0.0,0.0,0.0,0.0,0.0,0.0,0.0,0.0,0.0,0.0,-1.3208,-1.2729,-1.2943,-1.4576,0.0,0.0,0.0,0.0,-1.5108,-1.5073,-1.5096,-1.4235,-1.1858,-1.1871,-1.2117,-1.2037,0.0,0.0,-1.0706,-1.1085,-1.1013,-0.941,-1.033,-1.1105,-1.0577,-1.0999,-1.0989,-0.9752,-1.1186,-1.2241,-1.1154,-1.129,-1.1905,-1.2454,0.0,0.0,0.0,0.0,-0.5437,-0.6494,-0.8999,-1.0655,-1.0688,-0.9783,-1.2583,0.0,0.0,0.0,0.0,0.0,0.0,-1.7012,-1.9171,-2.1594,-2.2934,-2.3422,-2.3747,-2.3833,-2.3698,-2.2841,-2.2638,-2.303,-2.2362,-1.8078,-1.0564,0.0,0.0,0.0,0.0,-2.0917,-2.2722,-2.5111,-2.5835,-2.4773,-2.3859,-2.3262,-2.3087,-2.2811,-2.2605,-2.2473,-2.1198,-1.9616,-1.765,-1.5131,0.0,0.0,0.0,0.0,0.0,0.0,0.0,0.0,0.0,0.0,0.0,0.0,0.0,0.0,0.0,0.0,0.0,0.0,0.0,-0.925,-1.2214,-1.239,0.0,0.0,0.0,0.0,0.0,0.0,0.0,0.0,0.0,-1.3626,-1.3594,-1.3833,0.0,0.0,-1.4303,-1.4994,-1.5119,-1.5119,-1.5119,-1.5119,0.0,-1.4155,-1.2963,-1.2585,-1.3814,-1.3707,-1.314,-1.2286,-1.2371,-1.225,-1.1239,-1.194,-1.2411,-1.1686,-1.1897,-1.2125,-1.1886,-1.2653,-1.3406,-1.3289,-1.3325,-1.3606,-1.7469,-1.5138,-1.2058,-1.0812,-1.0751,-0.978,-1.0741,-1.3077,-1.4194,-1.4288,-1.3719,-1.6082,-1.5198,-1.1953,-1.3189,0.0,0.0,0.0,-1.9668,-2.2101,-2.3407,-2.4421,-2.5076,-2.4748,-2.4563,-2.4423,-2.3415,-2.351,-2.4575,-2.3948,-2.0346,-1.4084,0.0,0.0,-1.6414,-2.0174,-2.2969,-2.4628,-2.5779,-2.58,-2.4709,-2.396,-2.343,-2.3047,-2.271,-2.2534,-2.2522,-2.1701,-2.0277,-1.828,-1.8493,-1.6192,0.0,0.0,0.0,0.0,0.0,0.0,0.0,0.0,0.0,0.0,0.0,-0.3655,-1.2113,0.0,0.0,0.0,-1.2125,-1.1213,-1.1168,-1.3968,0.0,0.0,0.0,0.0,0.0,0.0,0.0,-1.417,-1.4947,-1.4979,-1.4286,-1.4358,-1.4432,-1.4383,-1.4236,-1.4181,-1.4236,0.0,-1.5119,-1.5119,-1.5119,-1.5119,-1.5096,-1.4086,-1.3572,-1.4417,-1.4025,-1.3478,-1.2939,-1.289,-1.2706,-1.2323,-1.2559,-1.2754,-1.2175,-1.2496,-1.2798,-1.2806,-1.3448,-1.414,-1.4416,-1.4466,-1.4651,-2.1749,-2.1482,-1.6488,-1.4988,-1.5782,-1.4766,-1.5607,-1.765,-1.7776,-1.7434,-1.6969,-1.8407,-1.7421,-1.4755,-1.4792,0.0,-1.6909,-2.0466,-2.3102,-2.4962,-2.6127,-2.6284,-2.5604,-2.4742,-2.4413,-2.4498,-2.2386,-2.2307,-2.3985,-2.277,-2.1316,-1.9907,-2.0904,-2.1628,-2.2023,-2.2166,-2.3618,-2.634,-2.5562,-2.4975,-2.4671,-2.3894,-2.3432,-2.328,-2.275,-2.2312,-2.1967,-2.1469,-2.078,-1.9893,-1.9925,-1.909,-1.7104,0.0,0.0,0.0,0.0,0.0,0.0,0.0,0.0,0.0,0.0,0.0,0.0,0.0,0.0,0.0,-1.3882,0.0,-1.327,-1.1959,0.0,0.0,0.0,-1.1796,-0.5585,-1.0424,-1.4587,-1.5564,0.0,0.0,-1.496,-1.4834,-1.4743,-1.4858,-1.4731,-1.4236,-1.2934,-1.4021,-1.4971,-1.5017,-1.5062,-1.5062,-1.5017,-1.4869,-1.4586,-1.4039,-1.3647,-1.3324,-1.2968,-1.2871,-1.2715,-1.252,-1.252,-1.252,-1.2323,-1.2754,-1.3077,-1.2838,-1.3773,-1.4603,-1.4763,-1.4749,-1.4953,-2.2346,-2.2884,-2.207,-2.1164,-2.0114,-1.9181,-1.9303,-2.0235,-2.1424,-2.1551,-2.1006,-2.2315,-2.2181,-2.085,-2.0616,-2.1455,-2.3156,-2.4215,-2.536,-2.6509,-2.6986,-2.6683,-2.5737,-2.5,-2.4527,-2.4153,-2.3253,-2.3214,-2.3983,-2.3731,-2.3327,-2.2923,-2.3711,-2.3033,-2.0954,-2.3694,-2.5084,-2.492,-2.4605,-2.4093,-2.3448,-2.2838,-2.2436,-2.2265,-2.1682,-2.1224,-2.0813,-2.0548,-2.0317,-2.0177,-1.9538,-1.9059,-1.8718,-1.6999,0.0,0.0,0.0,0.0,0.0,0.0,0.0,0.0,0.0,-0.4283,-1.4299,0.0,-1.497,0.0,-1.4516,-1.4452,-1.2222,-1.3222,0.0,0.0,-1.2167,-1.2128,-1.2013,-1.2365,-1.3111,-1.4552,-1.4824,-1.4744,-1.4593,-1.4651,-1.4662,-1.4512,-1.4419,-1.3714,-1.2109,-1.2926,-1.401,-1.4466,-1.464,-1.4731,-1.4697,-1.4466,-1.4118,-1.3647,-1.3457,-1.3286,-1.2978,-1.3104,-1.3132,-1.2774,-1.2852,-1.2852,-1.2363,-1.2647,-1.288,-1.302,-1.3818,-1.4722,-1.5081,-1.4778,-1.4541,-2.3022,-2.3543,-2.4471,-2.443,-2.363,-2.2508,-2.2295,-2.2737,-2.3044,-2.326,-2.3419,-2.3947,-2.3734,-2.2941,-2.2925,-2.3541,-2.4613,-2.5062,-2.5678,-2.6424,-2.6798,-2.6633,-2.5996,-2.5135,-2.455,-2.4268,-2.35,-2.3294,-2.3628,-2.3692,-2.3692,-2.3613,-2.4361,-2.3791,-2.2032,-2.4081,-2.4479,-2.3035,-2.3102,-2.2951,-2.2556,-2.209,-2.1339,-2.0246,-2.0368,-1.9917,-1.89,-1.9321,-1.9291,-1.8604,-1.7827,-1.7434,-1.7452,-1.5983,-1.4928,0.0,0.0,0.0,0.0,0.0,0.0,0.0,0.0,0.0,0.0,0.0,-1.6922,-1.4548,-1.5332,-1.4978,-1.2528,-1.3745,-1.4349,-1.357,-1.2959,-1.3232,-1.4749,-1.3877,-1.3384,-1.3954,-1.4384,-1.4558,-1.4419,-1.4291,-1.4186,-1.4035,-1.3988,-1.3627,-1.2958,-1.3212,-1.3573,-1.3847,-1.4118,-1.4316,-1.4326,-1.3978,-1.3658,-1.3372,-1.3238,-1.3104,-1.2871,-1.3017,-1.3055,-1.2715,-1.2803,-1.2852,-1.2421,-1.2304,-1.254,-1.3016,-1.3399,-1.3978,-1.464,-1.4507,-1.4305,-2.3598,-2.3811,-2.5033,-2.584,-2.6279,-2.5096,-2.4704,-2.487,-2.3792,-2.3836,-2.4759,-2.436,-2.3777,-2.3191,-2.3503,-2.3805,-2.4113,-2.4789,-2.5244,-2.5563,-2.6151,-2.635,-2.6158,-2.5041,-2.4489,-2.4421,-2.3374,-2.2995,-2.3193,-2.3241,-2.3212,-2.3153,-2.3739,-2.3842,-2.3419,-2.3505,-2.2831,-2.1318,-2.1418,-2.1529,-2.1611,-2.1105,-1.9927,-1.8111,-1.8903,-1.8673,-1.7161,-1.8164,-1.818,-1.6887,-1.6193,-1.5648,-1.5179,-1.4485,-1.3518,0.0,-1.1395,0.0,0.0,0.0,0.0,0.0,0.0,0.0,0.0,-1.6465,-1.7288,-1.5244,-1.6208,-1.6022,-1.3829,-1.4172,-1.4545,-1.4662,-1.4376,-1.4471,-1.5241,-1.4823,-1.4244,-1.3583,-1.3773,-1.401,-1.415,-1.381,-1.3563,-1.3525,-1.3525,-1.3616,-1.4003,-1.3758,-1.3467,-1.3266,-1.3552,-1.3847,-1.3884,-1.361,-1.3286,-1.318,-1.3055,-1.2871,-1.2735,-1.2832,-1.2822,-1.2627,-1.2637,-1.2578,-1.2332,-1.2026,-1.2116,-1.2735,-1.2628,-1.2861,-1.392,-1.416,-1.4041,-2.3552,-2.4232,-2.4922,-2.5967,-2.7108,-2.675,-2.6234,-2.5675,-2.5576,-2.5373,-2.5147,-2.4729,-2.471,-2.4994,-2.4901,-2.5117,-2.5686,-2.597,-2.5913,-2.5579,-2.5928,-2.5921,-2.5508,-2.4562,-2.4163,-2.419,-2.317,-2.2825,-2.3119,-2.3056,-2.294,-2.2721,-2.2746,-2.2255,-2.1278,0.0,0.0,0.0,-2.0283,-1.9731,-1.963,-1.8454,-1.7632,-1.7211,-1.7567,0.0,-1.772,-1.7949,-1.8212,-1.8417,-1.8016,0.0,0.0,0.0,0.0,0.0,0.0,0.0,0.0,0.0,0.0,0.0,-1.6499,-1.7064,-1.5943,-1.614,-1.6682,-1.7481,-1.673,-1.6083,-1.5942,-1.5696,-1.5362,-1.5037,-1.4722,-1.4665,-1.5096,-1.4362,-1.3573,-1.3113,-1.3392,-1.3536,-1.3248,-1.3238,-1.3228,-1.3055,-1.3017,-1.3113,-1.3334,-1.3324,-1.3314,-1.3467,-1.3409,-1.3362,-1.3505,-1.3238,-1.2968,-1.2822,-1.2871,-1.2832,-1.2783,-1.2832,-1.2891,-1.2832,-1.2646,-1.24,-1.2085,-1.1778,-1.1619,-1.1669,-1.1619,-1.2098,-1.3779,-1.392,-1.3728,-2.3807,0.0,-2.5002,-2.5816,0.0,-2.6684,-2.6525,-2.6243,-2.6541,-2.6192,-2.5317,-2.4918,-2.5111,-2.5701,-2.5462,-2.5617,-2.6059,-2.6165,-2.5958,-2.5508,-2.568,-2.5696,-2.5476,-2.4786,-2.4463,-2.4497,-2.3392,-2.2943,-2.3076,-2.2718,-2.2449,-2.222,-2.2524,-2.2534,-2.2297,-2.2817,-2.2476,-2.1215,-2.0444,-1.9997,-1.9906,-1.8933,-1.7884,-1.6822,-1.7427,0.0,0.0,0.0,0.0,0.0,0.0,0.0,0.0,0.0,0.0,-1.7639,-1.7909,-1.7949,-1.7747,-1.8016,-1.7489,-1.5957,-1.6921,-1.7397,-1.6819,-1.6624,-1.6824,-1.7558,-1.6747,-1.6098,-1.5903,-1.5499,-1.4971,-1.4247,-1.4118,-1.4176,-1.4269,-1.3752,-1.3238,-1.2978,-1.3113,-1.3162,-1.2929,-1.2861,-1.2803,-1.2725,-1.2686,-1.2725,-1.2813,-1.2949,-1.3094,-1.3152,-1.3045,-1.2997,-1.3045,-1.2968,-1.2881,-1.2832,-1.2832,-1.2881,-1.2832,-1.2881,-1.2881,-1.2774,-1.2627,-1.2431,-1.2135,-1.1828,-1.1628,-1.1678,-1.1728,-1.2017,-1.3122,-1.3131,-1.3001,-2.3916,-2.4479,-2.4984,-2.5518,-2.6089,-2.6366,-2.6615,-2.6808,0.0,0.0,0.0,-2.4974,-2.5208,-2.5801,-2.5617,-2.5686,-2.6009,-2.6034,-2.5815,-2.5432,-2.5524,-2.5616,-2.5567,-2.5092,-2.4853,-2.4872,-2.3751,-2.3245,-2.3257,-2.258,-2.2208,-2.2165,-2.2534,-2.3079,-2.3736,-2.4319,-2.3541,-2.1535,-2.0843,-2.0443,-2.0285,-1.9531,-1.8268,-1.6483,-1.7483,-1.7367,-1.6048,-1.7287,-1.7226,-1.5543,-1.5716,-1.5329,-1.4201,-1.5008,-1.5998,-1.7014,-1.7666,-1.8043,-1.8123,-1.7787,-1.7107,-1.612,-1.6343,-1.6637,-1.6892,-1.7073,-1.7102,-1.6951,-1.6625,-1.6064,-1.5276,-1.4824,-1.419,-1.3304,-1.3324,-1.343,-1.343,-1.319,-1.2949,-1.2822,-1.2774,-1.2832,-1.2725,-1.2578,-1.2431,-1.2382,-1.2382,-1.2372,-1.2431,-1.2627,-1.2774,-1.2676,-1.2627,-1.2676,-1.2725,-1.2774,-1.2881,-1.2881,-1.2881,-1.2929,-1.2929,-1.292,-1.2861,-1.2754,-1.2598,-1.2461,-1.2323,-1.1877,-1.1678,-1.1828,-1.1756,-1.1809,-1.2055,-1.2155,-1.2339,-2.3554,-2.4634,-2.4502,-2.5322,-2.6694,-2.7106,-2.7439,-2.768,-2.6614,-2.571,-2.5045,-2.4686,-2.4937,-2.5559,-2.5659,-2.5785,-2.6009,-2.6294,-2.6069,-2.5432,-2.5524,-2.5616,-2.5567,-2.4875,-2.4677,-2.482,-2.4066,-2.3818,-2.3929,-2.3183,-2.2977,-2.3161,-2.2486,-2.2325,-2.2796,-2.34,-2.3284,-2.2488,-2.0494,-1.9102,-1.8309,-1.7217,-1.6484,-1.6212,-1.6745,-1.7042,-1.7116,-1.7247,-1.7383,-1.7472,-1.7157,-1.6996,-1.6983,-1.6647,-1.6801,-1.7449,-1.8002,-1.8175,-1.7963,-1.7812,-1.7542,-1.6997,-1.6278,-1.5836,-1.5768,-1.6527,-1.6993,-1.6841,-1.6355,-1.5844,-1.5231,-1.456,-1.3884,-1.3266,-1.289,-1.2813,-1.2968,-1.2813,-1.2559,-1.2323,-1.2431,-1.248,-1.2274,-1.2234,-1.2126,-1.2026,-1.2026,-1.2017,-1.2076,-1.2332,-1.248,-1.2372,-1.2372,-1.2421,-1.2627,-1.2725,-1.2783,-1.2881,-1.2891,-1.292,-1.2958,-1.3007,-1.3045,-1.3035,-1.2627,-1.2391,-1.2471,-1.1669,-1.1226,-1.1158,-1.0814,-1.0564,-1.0808,-1.1318,-1.2001,-2.3912,-2.4879,-2.4871,-2.5321,-2.6211,-2.6935,-2.7502,-2.776,-2.7019,-2.6088,-2.5176,-2.443,-2.4545,-2.517,-2.5114,-2.533,-2.5811,-2.6018,-2.5895,-2.5556,-2.5578,-2.5389,-2.5033,-2.5065,-2.4814,-2.437,-2.4051,-2.3926,-2.3861,-2.301,-2.2713,-2.3032,-2.2734,-2.2847,-2.3286,-2.3488,-2.3198,-2.2345,-2.1205,-2.0415,-2.0035,-1.9003,-1.8383,-1.8152,-1.8303,-1.8207,-1.7962,-1.7855,-1.7868,-1.8003,-1.7774,-1.7625,-1.7393,-1.7352,-1.7323,-1.724,-1.7666,-1.7801,-1.7419,-1.6928,-1.6574,-1.6439,-1.6003,-1.557,-1.5334,-1.5856,-1.6095,-1.6008,-1.5768,-1.5322,-1.4652,-1.4201,-1.3695,-1.289,-1.2706,-1.2559,-1.248,-1.2372,-1.2264,-1.2126,-1.2175,-1.2224,-1.2126,-1.2076,-1.2026,-1.1927,-1.1828,-1.1769,-1.1769,-1.1968,-1.2166,-1.2166,-1.2224,-1.2332,-1.248,-1.2627,-1.2725,-1.2881,-1.2891,-1.2968,-1.3045,-1.3132,-1.3055,-1.2958,-1.2548,-1.2252,-1.2157,-1.166,-1.1217,-1.0905,-1.0956,-1.0813,-1.0788,-1.1085,-1.1593,-2.3979,-2.4719,-2.4775,-2.5013,-2.5465,-2.6493,-2.718,-2.7504,-2.7334,-2.6642,-2.563,-2.45,-2.4323,-2.4834,-2.4595,-2.4739,-2.5211,-2.5436,-2.5496,-2.5426,-2.5271,-2.4901,-2.4418,-2.4767,-2.4435,-2.3674,-2.3774,-2.3777,-2.3545,-2.2832,-2.2401,-2.2408,-2.2882,-2.3288,-2.348,-2.3432,-2.2994,-2.2207,-2.188,-2.1662,-2.141,-2.0711,-2.0133,-1.9662,-1.9474,-1.9045,-1.8323,-1.8135,-1.7989,-1.7909,-1.8003,-1.7774,-1.7212,-1.7461,-1.7461,-1.7002,-1.7269,-1.7269,-1.6808,-1.6032,-1.5647,-1.5792,-1.5614,-1.5289,-1.4834,-1.5017,-1.5177,-1.5097,-1.5028,-1.464,-1.3967,-1.3732,-1.3409,-1.2618,-1.2461,-1.2363,-1.2126,-1.2076,-1.2076,-1.2076,-1.2076,-1.2076,-1.2076,-1.2026,-1.1877,-1.1728,-1.1678,-1.1678,-1.1678,-1.166,-1.1769,-1.1877,-1.2026,-1.2126,-1.2274,-1.2323,-1.2529,-1.2774,-1.2881,-1.2958,-1.3084,-1.3132,-1.2997,-1.2813,-1.2382,-1.1986,-1.1719,-1.1368,-1.1116,-1.0854,-1.0856,-1.0963,-1.0853,-1.0785,-1.11,-2.3068,-2.3493,-2.345,-2.3851,-2.4834,-2.5876,-2.6581,-2.7069,-2.7005,-2.6927,-2.6559,-2.5213,-2.4627,-2.4582,-2.4187,-2.4046,-2.4158,-2.4513,-2.4798,-2.4831,-2.4248,-2.3916,-2.3759,-2.3168,-2.2742,-2.2667,-2.3103,-2.3328,-2.3295,-2.306,-2.247,-2.1749,-2.2596,-2.2805,-2.2395,-2.251,-2.2606,-2.2608,-2.22,-2.1454,-2.0415,-2.0114,-1.9565,-1.8835,-1.8708,-1.8311,-1.7706,-1.7393,-1.7323,-1.7323,-1.7652,-1.7584,-1.7044,-1.696,-1.7002,-1.696,-1.685,-1.657,-1.6126,-1.568,-1.5525,-1.5703,-1.5198,-1.4523,-1.3852,-1.4091,-1.4376,-1.4432,-1.4183,-1.3826,-1.3362,-1.3132,-1.291,-1.252,-1.2274,-1.2126,-1.2126,-1.2076,-1.2076,-1.2076,-1.2076,-1.2076,-1.2026,-1.1769,-1.1469,-1.1326,-1.1318,-1.1427,-1.1477,-1.1427,-1.1318,-1.1368,-1.1368,-1.1619,-1.2026,-1.1977,-1.2126,-1.2578,-1.2822,-1.292,-1.2997,-1.3084,-1.3025,-1.255,-1.2166,-1.1828,-1.1326,-1.0879,-1.0522,-1.0474,-1.0298,-0.9954,-1.036,-1.0432,-1.0496,-2.2934,-2.3406,-2.3377,-2.3881,-2.4657,-2.4957,-2.5771,-2.6957,-2.6844,-2.6992,-2.7199,-2.6087,-2.5319,-2.4796,-2.4115,-2.4,-2.4353,-2.4231,-2.4436,-2.4808,-2.4162,-2.355,-2.3067,-2.2727,-2.2145,-2.1485,-2.2039,-2.2515,-2.2843,-2.308,-2.2786,-2.2178,-2.2552,-2.2457,-2.2048,-2.2076,-2.2016,-2.1827,-2.1554,-2.1056,-2.0543,-2.0597,-2.0452,-2.0028,-1.9539,-1.8875,-1.81,-1.777,-1.7454,-1.7141,-1.724,-1.7183,-1.6918,-1.6491,-1.6349,-1.6491,-1.6132,-1.5812,-1.5611,-1.5367,-1.5255,-1.5379,-1.4978,-1.4321,-1.3471,-1.3698,-1.3967,-1.4033,-1.4155,-1.4023,-1.3412,-1.3213,-1.2916,-1.2389,-1.2175,-1.2085,-1.2076,-1.2085,-1.2076,-1.2076,-1.2076,-1.1977,-1.1728,-1.1326,-1.1124,-1.1074,-1.1015,-1.0863,-1.1074,-1.1226,-1.1108,-1.0744,-1.049,-1.06,-1.1158,-1.1519,-1.1669,-1.1977,-1.2529,-1.292,-1.292,-1.3094,-1.2977,-1.2403,-1.2017,-1.1569,-1.1023,-1.0675,-1.0316,-1.0167,-1.0041,-0.9811,-0.9923,-1.0254,-1.0515,-2.2709,-2.3068,-2.329,-2.3688,-2.4149,-2.4328,-2.5213,-2.6488,-2.6773,-2.7197,-2.7527,-2.6782,-2.6075,-2.5398,-2.4334,-2.4053,-2.4253,-2.4064,-2.4164,-2.4422,-2.3693,-2.2907,-2.2152,-2.1741,-2.1159,-2.0482,-2.095,-2.1588,-2.223,-2.2673,-2.2657,-2.2267,-2.2285,-2.21,-2.1666,-2.1602,-2.1423,-2.1082,-2.0934,-2.0772,-2.056,-2.0772,-2.0753,-2.0442,-1.9873,-1.9153,-1.8265,-1.7638,-1.7194,-1.6822,-1.6683,-1.6577,-1.6534,-1.6057,-1.5836,-1.5925,-1.539,-1.5108,-1.522,-1.5006,-1.4926,-1.5051,-1.4679,-1.4084,-1.346,-1.3341,-1.3418,-1.3547,-1.3907,-1.383,-1.3359,-1.3125,-1.2723,-1.2072,-1.21,-1.2241,-1.209,-1.2264,-1.2388,-1.2269,-1.2168,-1.1826,-1.1285,-1.0905,-1.0804,-1.0863,-1.0616,-1.0403,-1.0718,-1.0863,-1.0694,-1.0123,-0.9762,-0.9821,-1.0387,-1.0804,-1.1167,-1.1519,-1.2067,-1.2627,-1.2735,-1.29,-1.2832,-1.2166,-1.1819,-1.1368,-1.0769,-1.0368,-1.0051,-0.9799,-0.9681,-0.9717,-0.973,-1.0328,-1.0498,-2.1983,-2.231,-2.2618,-2.2768,-2.2872,-2.4164,-2.4998,-2.5582,-2.6915,-2.7458,-2.7271,-2.7069,-2.6927,-2.6492,-2.4921,-2.3939,-2.3627,-2.3894,-2.3836,-2.3443,-2.2562,-2.1683,-2.0918,-1.9961,-1.9465,-1.9515,-1.9958,-2.0686,-2.1527,-2.1801,-2.1669,-2.1355,-2.1843,-2.1718,-2.1033,-2.1145,-2.1019,-2.0709,-2.066,-2.0472,-2.0233,-2.0182,-1.9926,-1.9441,-1.9137,-1.8738,-1.7855,-1.6621,-1.6113,-1.6407,-1.6101,-1.5848,-1.5772,-1.5784,-1.5683,-1.5504,-1.4868,-1.4673,-1.4971,-1.4625,-1.4499,-1.4846,-1.4185,-1.3462,-1.3304,-1.2826,-1.2663,-1.2877,-1.3177,-1.3077,-1.2853,-1.2512,-1.2104,-1.1707,-1.216,-1.2382,-1.2123,-1.2547,-1.2904,-1.2527,-1.2131,-1.1489,-1.0494,-1.0525,-1.0533,-1.0506,-1.0522,-1.0565,-1.0454,-1.0285,-0.9917,-0.9666,-0.9465,-0.951,-1.0167,-1.0438,-1.0557,-1.0913,-1.146,-1.2126,-1.2283,-1.2332,-1.2126,-1.1918,-1.1619,-1.1116,-1.0522,-1.0051,-0.9732,-0.9524,-0.9487,-0.9511,-0.9541,-1.0136,-1.0348,-2.1568,-2.1793,-2.1746,-2.2156,-2.2859,-2.3302,-2.4178,-2.5305,-2.5898,-2.6377,-2.6641,-2.6672,-2.6381,-2.5877,-2.5372,-2.4976,-2.4628,-2.4025,-2.363,-2.3328,-2.2147,-2.1257,-2.0647,-1.9797,-1.9302,-1.922,-1.9348,-1.9757,-2.0357,-2.1068,-2.1302,-2.1129,-2.1442,-2.1493,-2.1179,-2.0997,-2.0809,-2.0623,-2.0536,-2.0283,-1.994,-1.9836,-1.9633,-1.9356,-1.9611,-1.9295,-1.8215,-1.7727,-1.7243,-1.6701,-1.5846,-1.5485,-1.5695,-1.5543,-1.5261,-1.4949,-1.486,-1.4836,-1.4893,-1.4576,-1.4556,-1.4958,-1.4224,-1.3355,-1.2889,-1.2698,-1.2798,-1.3191,-1.2828,-1.2674,-1.2709,-1.2378,-1.1938,-1.1688,-1.1633,-1.1783,-1.1759,-1.1925,-1.1997,-1.1856,-1.1456,-1.0783,-1.0306,-1.0012,-1.0072,-1.0198,-1.0043,-0.9984,-0.9932,-0.9569,-0.9211,-0.9106,-0.9015,-0.9008,-0.9256,-0.9814,-1.0174,-1.0438,-1.0897,-1.136,-1.1619,-1.1819,-1.166,-1.1049,-1.0846,-1.0592,-0.9888,-0.9524,-0.9204,-0.9204,-0.9159,-0.933,-0.9361,-0.9936,-1.0124,-2.1326,-2.1471,-2.1375,-2.1969,-2.2875,-2.2875,-2.3747,-2.5095,-2.5381,-2.5737,-2.6181,-2.6112,-2.5748,-2.5403,-2.5179,-2.5052,-2.4871,-2.4106,-2.351,-2.3038,-2.189,-2.0981,-2.0296,-1.9671,-1.925,-1.9101,-1.9026,-1.9204,-1.9553,-2.0217,-2.0487,-2.0393,-2.084,-2.0994,-2.0801,-2.0703,-2.0495,-2.0139,-1.9812,-1.9472,-1.9095,-1.8781,-1.879,-1.8998,-1.9357,-1.9282,-1.8537,-1.8076,-1.7522,-1.6795,-1.5953,-1.562,-1.5879,-1.5608,-1.5312,-1.5046,-1.4831,-1.4821,-1.482,-1.4435,-1.4238,-1.4541,-1.3945,-1.315,-1.2215,-1.2338,-1.2672,-1.2774,-1.2715,-1.2408,-1.2136,-1.1915,-1.1688,-1.151,-1.1351,-1.1344,-1.1409,-1.1526,-1.1542,-1.1417,-1.0921,-1.0421,-1.006,-0.9903,-0.9948,-1.0074,-0.9681,-0.9555,-0.9614,-0.9211,-0.8804,-0.8804,-0.8804,-0.8804,-0.8949,-0.9354,-0.9666,-0.9925,-1.0387,-1.0804,-1.0956,-1.1158,-1.0947,-1.0328,-0.9865,-0.9614,-0.9302,-0.8942,-0.8784,-0.8784,-0.8962,-0.9141,-0.9379,-0.9705,-0.9831,-2.1353,-2.1331,-2.1471,-2.2123,-2.2905,-2.3084,-2.3794,-2.4776,-2.5393,-2.5711,-2.5923,-2.5425,-2.5192,-2.5164,-2.4395,-2.3918,-2.4066,-2.41,-2.343,-2.2282,-2.1631,-2.0783,-1.9794,-1.9479,-1.9265,-1.9116,-1.8912,-1.8981,-1.929,-1.928,-1.9257,-1.9409,-1.9999,-2.0046,-1.9603,-1.9982,-1.9811,-1.9095,-1.8598,-1.8105,-1.7521,-1.7207,-1.7337,-1.7957,-1.8248,-1.843,-1.8578,-1.7368,-1.6796,-1.683,-1.6461,-1.6244,-1.6165,-1.5866,-1.5782,-1.5474,-1.485,-1.4533,-1.4692,-1.4057,-1.3661,-1.3669,-1.334,-1.2724,-1.1757,-1.1781,-1.1893,-1.1734,-1.1884,-1.1904,-1.1114,-1.1028,-1.1114,-1.1061,-1.1256,-1.1322,-1.1219,-1.1563,-1.1752,-1.113,-1.0639,-1.0342,-1.0096,-1.0111,-1.0171,-0.9888,-0.9717,-0.9598,-0.9621,-0.9211,-0.891,-0.8646,-0.8374,-0.8156,-0.8527,-0.8942,-0.9159,-0.942,-0.9932,-1.0344,-1.0285,-1.0387,-1.0072,-0.9503,-0.9138,-0.8883,-0.8778,-0.8415,-0.8143,-0.815,-0.8493,-0.8778,-0.8884,-0.9037,-0.9562,-2.2097,-2.216,-2.2083,-2.2249,-2.2646,-2.3098,-2.3724,-2.4282,-2.4571,-2.4902,-2.5194,-2.4446,-2.4405,-2.4814,-2.4365,-2.3986,-2.3808,-2.361,-2.3063,-2.2247,-2.1399,-2.0559,-1.9848,-1.9581,-1.9391,-1.9101,-1.8851,-1.8627,-1.8492,-1.8561,-1.8502,-1.8375,-1.8721,-1.89,-1.8738,-1.8773,-1.8532,-1.8189,-1.7533,-1.7375,-1.7697,-1.6953,-1.6877,-1.7592,-1.767,-1.7385,-1.6762,-1.7255,-1.7201,-1.6499,-1.6776,-1.659,-1.578,-1.5314,-1.4825,-1.4424,-1.4459,-1.4448,-1.4448,-1.395,-1.3488,-1.3459,-1.3412,-1.268,-1.1524,-1.1422,-1.1576,-1.1615,-1.1336,-1.0783,-1.082,-1.0597,-1.0538,-1.0739,-1.0647,-1.0634,-1.0609,-1.0732,-1.0581,-1.0235,-1.0207,-1.011,-0.9869,-1.005,-1.0284,-0.9895,-0.9864,-0.9817,-0.962,-0.9406,-0.8679,-0.7777,-0.7509,-0.7509,-0.8043,-0.8362,-0.8567,-0.889,-0.9406,-0.9718,-0.9666,-0.951,-0.9197,-0.8823,-0.8461,-0.8196,-0.815,-0.799,-0.7723,-0.745,-0.7622,-0.7794,-0.7919,-0.8427,-0.9088,-2.2433,-2.2497,-2.2469,-2.2491,-2.2661,-2.329,-2.3701,-2.4008,-2.4112,-2.4238,-2.4223,-2.3612,-2.3605,-2.4017,-2.3846,-2.3585,-2.3361,-2.3265,-2.2784,-2.202,-2.1262,-2.0429,-1.9717,-1.9487,-1.9191,-1.8822,-1.8592,-1.824,-1.776,-1.7681,-1.7462,-1.7232,-1.7505,-1.7688,-1.7716,-1.7932,-1.7971,-1.7533,-1.7363,-1.7264,-1.7079,-1.6546,-1.6457,-1.6871,-1.6497,-1.6118,-1.5786,-1.6178,-1.6053,-1.5659,-1.588,-1.5507,-1.471,-1.4405,-1.408,-1.3811,-1.3825,-1.4072,-1.4168,-1.3547,-1.3135,-1.3099,-1.2941,-1.2091,-1.0946,-1.071,-1.1031,-1.0942,-1.0597,-1.0176,-1.0119,-0.9959,-0.9947,-1.0167,-1.0091,-0.9981,-1.0021,-0.9989,-0.9996,-0.9843,-0.9972,-0.996,-0.9993,-1.0128,-1.0329,-0.9908,-0.9865,-0.9832,-0.9573,-0.951,-0.8455,-0.7343,-0.6539,-0.6864,-0.7616,-0.7883,-0.7984,-0.8408,-0.883,-0.8988,-0.904,-0.889,-0.858,-0.8196,-0.783,-0.7717,-0.7616,-0.767,-0.7563,-0.7241,-0.6853,-0.7122,-0.7478,-0.8275,-0.8915,-2.2483,-2.2446,-2.2655,-2.278,-2.2918,-2.3508,-2.3814,-2.3943,-2.3994,-2.3818,-2.3401,-2.2997,-2.2959,-2.2962,-2.303,-2.2954,-2.2843,-2.3102,-2.2646,-2.173,-2.1036,-2.035,-1.9472,-1.9078,-1.8736,-1.8397,-1.8242,-1.7855,-1.7297,-1.6935,-1.6318,-1.6134,-1.6375,-1.6453,-1.6515,-1.7519,-1.7563,-1.6898,-1.7488,-1.7213,-1.6035,-1.5806,-1.5796,-1.588,-1.5025,-1.4777,-1.5054,-1.4063,-1.3571,-1.4077,-1.4028,-1.3746,-1.3374,-1.3424,-1.3558,-1.3414,-1.3177,-1.3352,-1.3544,-1.2794,-1.2094,-1.1921,-1.163,-1.0794,-0.9724,-0.9895,-1.006,-0.9848,-1.0007,-0.9868,-0.9321,-0.9167,-0.9266,-0.935,-0.9625,-0.9691,-0.9536,-0.9548,-0.9646,-0.9773,-0.9901,-1.0045,-1.0208,-1.0389,-1.0251,-0.9904,-0.9695,-0.957,-0.9323,-0.9159,-0.862,-0.7444,-0.6105,-0.6431,-0.7182,-0.745,-0.7551,-0.7877,-0.8249,-0.8249,-0.8302,-0.815,-0.8002,-0.7622,-0.7348,-0.7241,-0.7133,-0.7079,-0.6912,-0.6475,-0.6411,-0.6661,-0.703,-0.7666,-0.8103,-2.2456,-2.2669,-2.3126,-2.3093,-2.2888,-2.3537,-2.393,-2.3952,-2.3447,-2.3496,-2.351,-2.271,-2.2654,-2.3243,-2.3096,-2.3209,-2.3255,-2.3112,-2.2617,-2.1806,-2.1029,-1.999,-1.8993,-1.8592,-1.8425,-1.823,-1.8249,-1.786,-1.6944,-1.6829,-1.6353,-1.5492,-1.5566,-1.5533,-1.5602,-1.6527,-1.6417,-1.5744,-1.6273,-1.6344,-1.557,-1.5015,-1.4858,-1.4878,-1.4226,-1.3656,-1.3273,-1.2015,-1.1935,-1.2993,-1.2887,-1.2597,-1.2253,-1.259,-1.2751,-1.2532,-1.2236,-1.2201,-1.24,-1.1688,-1.0519,-0.941,-1.0195,-1.0191,-0.9246,-0.9354,-0.952,-0.9524,-0.9785,-0.9691,-0.9141,-0.9073,-0.904,-0.8973,-0.9284,-0.95,-0.9448,-0.9478,-0.9548,-0.974,-0.9977,-1.0095,-1.0144,-1.0254,-1.0228,-0.9784,-0.9562,-0.9491,-0.9118,-0.8685,-0.8143,-0.702,-0.6,-0.6322,-0.6696,-0.6961,-0.7176,-0.7456,-0.7563,-0.745,-0.745,-0.7295,-0.7192,-0.7036,-0.6923,-0.681,-0.6485,-0.6268,-0.5991,-0.5928,-0.5823,-0.5982,-0.5968,-0.6365,-0.6897,-2.218,-2.2178,-2.3141,-2.3123,-2.2732,-2.3561,-2.3899,-2.3723,-2.3359,-2.3136,-2.3079,-2.2315,-2.2136,-2.2556,-2.2474,-2.2511,-2.2609,-2.2613,-2.2056,-2.106,-2.0071,-1.9153,-1.8462,-1.8314,-1.8181,-1.7842,-1.806,-1.757,-1.6784,-1.6671,-1.6276,-1.573,-1.5429,-1.5392,-1.5508,-1.6184,-1.6287,-1.5738,-1.6131,-1.6162,-1.5163,-1.471,-1.4161,-1.3861,-1.3237,-1.2552,-1.1595,-1.0917,-1.0956,-1.1498,-1.1498,-1.1317,-1.1227,-1.1477,-1.1606,-1.1444,-1.1212,-1.1034,-1.0934,-1.0444,-0.9521,-0.8536,-0.9194,-0.9314,-0.8891,-0.8883,-0.9143,-0.9045,-0.9038,-0.8767,-0.8496,-0.8413,-0.8431,-0.8445,-0.883,-0.9136,-0.9086,-0.9107,-0.9109,-0.9202,-0.9319,-0.9539,-0.9482,-0.9674,-0.9525,-0.926,-0.9036,-0.8893,-0.8739,-0.8257,-0.7557,-0.6431,-0.6055,-0.6376,-0.6539,-0.6696,-0.6637,-0.6912,-0.6642,-0.6529,-0.6421,-0.6426,-0.6485,-0.6436,-0.6436,-0.6327,-0.605,-0.5887,-0.6046,-0.5937,-0.5563,-0.5462,-0.5597,-0.5724,-0.6128,-2.1563,-2.1212,-2.2798,-2.3065,-2.2594,-2.3453,-2.3777,-2.3517,-2.3271,-2.2878,-2.2309,-2.1796,-2.1667,-2.1471,-2.1787,-2.1455,-2.1427,-2.1847,-2.1054,-2.0108,-1.9099,-1.8377,-1.8024,-1.8031,-1.7728,-1.7271,-1.7501,-1.708,-1.6465,-1.6286,-1.6185,-1.5844,-1.5677,-1.5691,-1.5842,-1.6551,-1.6587,-1.6203,-1.6418,-1.602,-1.4881,-1.4304,-1.3623,-1.267,-1.2044,-1.1338,-1.0586,-1.0213,-1.0228,-1.0235,-1.0076,-1.0231,-1.0296,-1.0288,-1.0355,-1.043,-1.0298,-0.9971,-0.9501,-0.9657,-0.9299,-0.8434,-0.8804,-0.8949,-0.8374,-0.8468,-0.8639,-0.8419,-0.7943,-0.7812,-0.7578,-0.7516,-0.7605,-0.7768,-0.819,-0.8404,-0.8352,-0.8394,-0.8304,-0.8129,-0.8312,-0.8446,-0.8531,-0.8562,-0.8487,-0.8414,-0.8249,-0.8181,-0.8069,-0.7706,-0.6944,-0.5996,-0.6,-0.6485,-0.6485,-0.649,-0.6317,-0.6204,-0.566,-0.5437,-0.5324,-0.5382,-0.5609,-0.5664,-0.5668,-0.5668,-0.5723,-0.5723,-0.5828,-0.5778,-0.5344,-0.5399,-0.5622,-0.5795,-0.6072,-1.9818,-2.0482,-2.2048,-2.2753,-2.2813,-2.3411,-2.3706,-2.3595,-2.2718,-2.2325,-2.2105,-2.172,-2.1618,-2.1813,-2.1685,-2.1901,-2.1758,-2.1433,-2.0556,-1.94,-1.9045,-1.8351,-1.775,-1.7485,-1.7017,-1.6691,-1.6863,-1.652,-1.5987,-1.602,-1.5961,-1.5697,-1.5699,-1.5527,-1.5942,-1.6624,-1.6631,-1.603,-1.6071,-1.5491,-1.4423,-1.3504,-1.2635,-1.1669,-1.0849,-1.0191,-0.9721,-0.9336,-0.9336,-0.9603,-0.9713,-0.9725,-0.994,-0.9999,-0.994,-0.9821,-0.9666,-0.9517,-0.9406,-0.9093,-0.8837,-0.8533,-0.8427,-0.8374,-0.8221,-0.8215,-0.8209,-0.7943,-0.7777,-0.7456,-0.7036,-0.7009,-0.6947,-0.6984,-0.7125,-0.7279,-0.7096,-0.6748,-0.6856,-0.7385,-0.7603,-0.7749,-0.782,-0.773,-0.7652,-0.7542,-0.7472,-0.7429,-0.731,-0.7151,-0.6309,-0.5348,-0.5504,-0.5828,-0.5937,-0.5882,-0.5664,-0.5386,-0.4838,-0.4343,-0.4284,-0.445,-0.4673,-0.4787,-0.4846,-0.4901,-0.5007,-0.4956,-0.4901,-0.4959,-0.5003,-0.4976,-0.507,-0.5467,-0.5638,-1.9114,-2.0244,-2.1541,-2.2317,-2.2617,-2.2994,-2.3201,-2.304,-2.2334,-2.1998,-2.1926,-2.1369,-2.1245,-2.1495,-2.1125,-2.1015,-2.0941,-2.0377,-1.9623,-1.8873,-1.8619,-1.8154,-1.7588,-1.7252,-1.6908,-1.6575,-1.6856,-1.6477,-1.5982,-1.6115,-1.6427,-1.6256,-1.6192,-1.6513,-1.6596,-1.6883,-1.6579,-1.6036,-1.5614,-1.4946,-1.3756,-1.2869,-1.1606,-1.055,-0.9669,-0.9126,-0.8734,-0.8517,-0.836,-0.8384,-0.8485,-0.8869,-0.9249,-0.9249,-0.9086,-0.9093,-0.883,-0.8771,-0.8705,-0.8396,-0.7984,-0.7996,-0.7949,-0.7889,-0.7895,-0.7955,-0.7949,-0.7616,-0.7289,-0.6966,-0.6372,-0.5987,-0.5928,-0.6263,-0.6376,-0.6485,-0.6431,-0.6046,-0.5788,-0.6267,-0.6333,-0.6455,-0.6529,-0.6588,-0.666,-0.6501,-0.6285,-0.6227,-0.6667,-0.6369,-0.5561,-0.4916,-0.4959,-0.5117,-0.5277,-0.5171,-0.4897,-0.4567,-0.4125,-0.3627,-0.3294,-0.3516,-0.3849,-0.3904,-0.4015,-0.4128,-0.4181,-0.4076,-0.4015,-0.4061,-0.4149,-0.4165,-0.4345,-0.4641,-0.4702,-1.8897,-2.02,-2.1184,-2.1831,-2.2134,-2.2376,-2.2406,-2.2221,-2.188,-2.1588,-2.1527,-2.0813,-2.0644,-2.065,-2.0197,-1.9785,-1.952,-1.9189,-1.878,-1.8405,-1.8201,-1.794,-1.756,-1.7358,-1.707,-1.68,-1.6668,-1.6303,-1.6056,-1.6266,-1.6329,-1.6727,-1.7014,-1.6944,-1.7192,-1.7,-1.6543,-1.6032,-1.54,-1.4686,-1.3525,-1.2573,-1.116,-0.9468,-0.8804,-0.8234,-0.7812,-0.7591,-0.7467,-0.6912,-0.6972,-0.7503,-0.8025,-0.8237,-0.8031,-0.8209,-0.7937,-0.7812,-0.78,-0.7599,-0.7402,-0.7133,-0.7563,-0.7676,-0.7628,-0.7681,-0.7568,-0.7128,-0.6642,-0.605,-0.5449,-0.5113,-0.5109,-0.5386,-0.5828,-0.5937,-0.5769,-0.5378,-0.4632,-0.4445,-0.4815,-0.5199,-0.5236,-0.528,-0.542,-0.5443,-0.5235,-0.5129,-0.558,-0.5508,-0.4632,-0.3805,-0.363,-0.4015,-0.4233,-0.4171,-0.3956,-0.3511,-0.3125,-0.2796,-0.2352,-0.2631,-0.2907,-0.3072,-0.3183,-0.3352,-0.3405,-0.335,-0.3289,-0.3222,-0.3335,-0.3545,-0.3667,-0.3795,-0.3798,-1.8878,-2.0175,-2.1008,-2.129,-2.1226,-2.1583,-2.1582,-2.1293,-2.0979,-2.0759,-2.0584,-2.0142,-2.0052,-2.0065,-1.9864,-1.9403,-1.904,-1.8804,-1.8583,-1.8193,-1.803,-1.7838,-1.7628,-1.7308,-1.6894,-1.6432,-1.6,-1.559,-1.5643,-1.5523,-1.5857,-1.6135,-1.6407,-1.6546,-1.6388,-1.6151,-1.6026,-1.5806,-1.5118,-1.4384,-1.3756,-1.2448,-1.0754,-0.8732,-0.8196,-0.7557,-0.6864,-0.6701,-0.6647,-0.6642,-0.6539,-0.6642,-0.6848,-0.7176,-0.7337,-0.7396,-0.7337,-0.7111,-0.674,-0.7176,-0.7289,-0.7354,-0.7568,-0.8055,-0.7949,-0.7616,-0.7192,-0.6588,-0.5773,-0.4959,-0.468,-0.4457,-0.4343,-0.4563,-0.4783,-0.4897,-0.4236,-0.3234,-0.2345,-0.2296,-0.3116,-0.3942,-0.3978,-0.4053,-0.4311,-0.4342,-0.4213,-0.4085,-0.4317,-0.4119,-0.3514,-0.274,-0.2018,-0.2573,-0.3183,-0.3012,-0.279,-0.2287,-0.1955,-0.1846,-0.1625,-0.174,-0.1962,-0.2238,-0.2462,-0.2687,-0.2687,-0.2623,-0.2644,-0.2611,-0.2779,-0.2883,-0.2936,-0.2941,-0.3142,-1.8722,-2.0247,-2.0273,-2.0402,-2.0636,-2.0637,-2.0534,-2.0283,-1.9991,-1.985,-1.9811,-1.972,-1.9708,-1.9798,-1.9604,-1.921,-1.8839,-1.8786,-1.8476,-1.8073,-1.7909,-1.7678,-1.7423,-1.6959,-1.6315,-1.5566,-1.4924,-1.4985,-1.5623,-1.5378,-1.5476,-1.6063,-1.6242,-1.5992,-1.5678,-1.5439,-1.5264,-1.5089,-1.456,-1.4141,-1.3745,-1.2167,-1.0007,-0.8448,-0.7664,-0.7079,-0.6322,-0.6164,-0.5941,-0.5609,-0.5555,-0.5664,-0.5769,-0.5932,-0.6263,-0.6372,-0.6421,-0.6145,-0.5719,-0.6154,-0.6268,-0.6258,-0.6907,-0.7295,-0.7408,-0.7133,-0.6761,-0.605,-0.534,-0.4574,-0.4519,-0.4132,-0.3852,-0.3683,-0.3849,-0.368,-0.2959,-0.1679,-0.0952,-0.0617,-0.1631,-0.248,-0.2697,-0.2867,-0.3188,-0.3234,-0.3123,-0.3234,-0.3289,-0.2901,-0.2514,-0.2014,-0.1402,-0.168,-0.2181,-0.1956,-0.173,-0.1229,-0.1007,-0.0896,-0.1009,-0.1234,-0.1346,-0.1513,-0.1793,-0.2074,-0.1889,-0.1767,-0.1898,-0.1962,-0.185,-0.1801,-0.1973,-0.21,-0.2244,-1.8639,-2.0287,-1.9613,-1.9672,-2.0042,-1.9786,-1.954,-1.9396,-1.9186,-1.9133,-1.921,-1.9251,-1.9356,-1.9448,-1.9239,-1.8881,-1.8452,-1.8452,-1.8007,-1.7623,-1.739,-1.7146,-1.6675,-1.6158,-1.5542,-1.4738,-1.4134,-1.4345,-1.5124,-1.4954,-1.5268,-1.5436,-1.5646,-1.5293,-1.4632,-1.4305,-1.4177,-1.3957,-1.3726,-1.3485,-1.2738,-1.1233,-0.9325,-0.7674,-0.7246,-0.6696,-0.5719,-0.5504,-0.5175,-0.4736,-0.4622,-0.4677,-0.4732,-0.468,-0.4794,-0.5014,-0.512,-0.5011,-0.4959,-0.5124,-0.5449,-0.5555,-0.6258,-0.6534,-0.6426,-0.6534,-0.6322,-0.5508,-0.4849,-0.4353,-0.4187,-0.3747,-0.3299,-0.3021,-0.2852,-0.2571,-0.2122,-0.1174,-0.0056,-0.0056,-0.0671,-0.1119,-0.1454,-0.2012,-0.2345,-0.24,-0.2345,-0.2621,-0.2621,-0.2069,-0.1624,-0.1344,-0.1065,-0.112,-0.123,-0.1008,-0.0727,-0.0336,-0.0336,-0.0392,-0.056,-0.0841,-0.0952,-0.1008,-0.1233,-0.1455,-0.1163,-0.0976,-0.1112,-0.1078,-0.0787,-0.0717,-0.085,-0.0987,-0.1079,-1.8896,-2.0041,-1.9698,-1.9399,-1.9174,-1.9093,-1.8934,-1.8721,-1.8655,-1.8655,-1.8667,-1.8721,-1.8786,-1.8786,-1.8483,-1.8213,-1.7831,-1.7501,-1.7112,-1.6842,-1.644,-1.6038,-1.5512,-1.4968,-1.4558,-1.3947,-1.3564,-1.3918,-1.4282,-1.4029,-1.4034,-1.4243,-1.4155,-1.3708,-1.2708,-1.2716,-1.2879,-1.2749,-1.2618,-1.2098,-1.1168,-1.0368,-0.9009,-0.7632,-0.6848,-0.614,-0.5113,-0.4732,-0.4346,-0.4132,-0.3849,-0.3677,-0.3511,-0.3292,-0.3239,-0.3627,-0.4128,-0.4632,-0.4411,-0.4684,-0.5011,-0.5391,-0.6317,-0.6804,-0.6372,-0.5769,-0.5449,-0.4853,-0.4356,-0.4021,-0.3796,-0.3132,-0.2742,-0.2352,-0.2073,-0.2017,-0.1623,-0.0056,0.0951,0.1008,0.0559,0.0,-0.0448,-0.1063,-0.151,-0.151,-0.1566,-0.1843,-0.1842,-0.1175,-0.0728,-0.0448,-0.0336,-0.0448,-0.0338,-0.0113,0.0169,0.0505,0.0451,0.0225,-0.0112,-0.0336,-0.0503,-0.0614,-0.0782,-0.0767,-0.0532,-0.0416,-0.041,-0.025,0.0,0.014,0.0226,0.009,-0.0091,-1.8089,-1.9162,-1.8987,-1.8732,-1.8518,-1.8398,-1.8159,-1.7875,-1.8018,-1.7952,-1.7886,-1.8127,-1.8236,-1.817,-1.8038,-1.7765,-1.7324,-1.6944,-1.6606,-1.6126,-1.5719,-1.5305,-1.4914,-1.4244,-1.37,-1.3115,-1.2713,-1.2449,-1.2842,-1.3061,-1.3145,-1.3152,-1.2517,-1.172,-1.0795,-1.0795,-1.0725,-1.0739,-1.08,-1.0499,-0.9659,-0.9184,-0.8355,-0.6544,-0.6258,-0.5433,-0.456,-0.4012,-0.368,-0.3463,-0.3239,-0.3125,-0.3014,-0.2903,-0.2905,-0.2905,-0.3074,-0.3466,-0.3805,-0.4187,-0.4512,-0.4948,-0.5605,-0.5664,-0.5391,-0.5117,-0.4846,-0.4629,-0.4301,-0.391,-0.3463,-0.3021,-0.2294,-0.1847,-0.1457,-0.1008,-0.0503,0.1005,0.2124,0.2014,0.1846,0.1342,0.0839,0.0447,0.0056,-0.0112,-0.0224,-0.0447,-0.0447,-0.0056,0.028,0.0503,0.0504,0.0392,0.0622,0.0853,0.1021,0.125,0.1324,0.1031,0.0394,0.0112,0.0111,0.0055,0.0054,0.0106,0.0204,0.0252,0.0302,0.0539,0.0759,0.0828,0.0851,0.0627,0.0541,-1.7356,-1.8331,-1.8239,-1.8205,-1.8084,-1.7854,-1.7556,-1.7213,-1.7245,-1.7234,-1.7268,-1.7545,-1.7667,-1.7545,-1.749,-1.7034,-1.6482,-1.6436,-1.6036,-1.5504,-1.5003,-1.4495,-1.3914,-1.3298,-1.2692,-1.2168,-1.182,-1.1582,-1.1478,-1.1518,-1.1662,-1.1982,-1.0961,-0.9907,-0.9151,-0.8954,-0.8867,-0.8943,-0.9083,-0.8711,-0.8057,-0.7818,-0.696,-0.6028,-0.5332,-0.4838,-0.3959,-0.3463,-0.313,-0.3072,-0.2629,-0.2406,-0.2181,-0.2069,-0.2012,-0.2012,-0.2069,-0.2348,-0.2907,-0.3352,-0.3907,-0.4291,-0.4453,-0.4563,-0.4181,-0.4239,-0.4298,-0.4073,-0.4018,-0.3574,-0.3072,-0.2514,-0.1677,-0.1175,-0.1008,-0.0336,0.0559,0.1955,0.3016,0.3183,0.3072,0.2792,0.2345,0.2012,0.1677,0.1399,0.1175,0.0952,0.1064,0.1231,0.1509,0.1785,0.1619,0.1567,0.1749,0.1934,0.1992,0.2007,0.2092,0.1846,0.1296,0.1001,0.0941,0.0925,0.0902,0.1196,0.147,0.1252,0.1086,0.1236,0.1378,0.1407,0.1341,0.1163,0.1164,-1.7109,-1.7948,-1.779,-1.7888,-1.7998,-1.749,-1.7157,-1.6832,-1.6446,-1.6503,-1.6754,-1.709,-1.7202,-1.7157,-1.6482,-1.6016,-1.5603,-1.4982,-1.4579,-1.4163,-1.37,-1.3195,-1.2696,-1.2131,-1.1555,-1.1106,-1.0937,-1.0827,-1.0399,-0.981,-0.9725,-0.9585,-0.9122,-0.8254,-0.7663,-0.7371,-0.7393,-0.7404,-0.7384,-0.7087,-0.6529,-0.6225,-0.5593,-0.5073,-0.445,-0.4009,-0.3741,-0.3021,-0.2687,-0.2685,-0.2071,-0.1569,-0.1288,-0.0952,-0.0783,-0.0896,-0.1174,-0.151,-0.2012,-0.274,-0.3244,-0.3688,-0.3796,-0.3514,-0.2903,-0.3516,-0.3574,-0.3352,-0.335,-0.3012,-0.2232,-0.1339,-0.0671,-0.028,-0.0112,0.0336,0.1285,0.2565,0.3572,0.419,0.4187,0.3849,0.3843,0.3508,0.2845,0.2456,0.2567,0.2399,0.2452,0.2619,0.2896,0.3063,0.2841,0.2847,0.3033,0.3124,0.3014,0.2838,0.2787,0.2573,0.2232,0.2046,0.1674,0.1748,0.175,0.2243,0.2609,0.2336,0.2121,0.2054,0.2057,0.1967,0.2066,0.2076,0.2068,-1.7397,-1.777,-1.7655,-1.7647,-1.7649,-1.6938,-1.6368,-1.5921,-1.5758,-1.5806,-1.6073,-1.6177,-1.613,-1.5911,-1.569,-1.4991,-1.4323,-1.3828,-1.3304,-1.2659,-1.2056,-1.17,-1.1383,-1.1196,-1.0805,-1.0523,-1.0412,-0.9859,-0.9126,-0.8505,-0.7511,-0.7185,-0.7076,-0.6681,-0.6149,-0.5868,-0.5868,-0.5872,-0.5856,-0.5754,-0.5462,-0.5465,-0.5046,-0.4343,-0.3785,-0.3121,-0.2569,-0.1903,-0.1737,-0.1568,-0.112,-0.0785,-0.0449,0.0056,0.0112,-0.0056,-0.0392,-0.0727,-0.1564,-0.2404,-0.336,-0.3697,-0.3524,-0.285,-0.1958,-0.2569,-0.2903,-0.2792,-0.2569,-0.2232,-0.1395,-0.0614,0.0,0.0504,0.0952,0.1342,0.212,0.3398,0.4391,0.5058,0.5011,0.4732,0.4897,0.5058,0.4229,0.3511,0.3732,0.3898,0.3895,0.3883,0.41,0.4136,0.3908,0.3849,0.3987,0.3975,0.3966,0.3812,0.3653,0.3398,0.3144,0.2525,0.2315,0.2377,0.2641,0.308,0.3346,0.3247,0.3101,0.2951,0.2702,0.2504,0.266,0.2906,0.3027,-1.7273,-1.7381,-1.7391,-1.744,-1.7414,-1.6634,-1.5853,-1.5284,-1.5118,-1.5108,-1.5138,-1.508,-1.4845,-1.4551,-1.4255,-1.3717,-1.2992,-1.2557,-1.2128,-1.1628,-1.111,-1.0712,-1.0567,-1.0334,-1.0004,-0.9897,-0.9439,-0.8765,-0.8025,-0.7437,-0.6387,-0.5467,-0.4845,-0.4741,-0.4655,-0.4417,-0.4223,-0.4389,-0.442,-0.4454,-0.4177,-0.4312,-0.4134,-0.3363,-0.2843,-0.2343,-0.1789,-0.1287,-0.1064,-0.0952,-0.0616,-0.0112,0.028,0.0561,0.0617,0.056,0.0392,0.0112,-0.0558,-0.2178,-0.3246,-0.3532,-0.3357,-0.235,-0.1623,-0.1956,-0.2676,-0.1615,-0.1449,-0.1114,-0.0056,0.1221,0.1778,0.2393,0.2621,0.3012,0.3282,0.422,0.5152,0.5977,0.5764,0.5714,0.5769,0.5982,0.576,0.5046,0.4889,0.4999,0.5054,0.5035,0.5058,0.5027,0.4881,0.4801,0.4786,0.4784,0.4837,0.5006,0.4763,0.4383,0.4028,0.3459,0.3227,0.3492,0.3767,0.4033,0.4111,0.4168,0.3994,0.3781,0.3501,0.3255,0.3303,0.3547,0.3876,-1.6598,-1.6668,-1.6857,-1.7214,-1.7376,-1.6529,-1.569,-1.4991,-1.4579,-1.4213,-1.3897,-1.3897,-1.352,-1.2907,-1.2549,-1.2128,-1.164,-1.1392,-1.1142,-1.0739,-1.0273,-1.0179,-0.9869,-0.9509,-0.9035,-0.8419,-0.8028,-0.7599,-0.6938,-0.5998,-0.5058,-0.431,-0.3585,-0.3184,-0.3032,-0.2791,-0.2895,-0.3223,-0.3228,-0.2991,-0.2945,-0.3067,-0.2766,-0.2308,-0.19,-0.151,-0.1063,-0.0503,-0.0336,-0.0448,-0.0168,0.0559,0.1623,0.1176,0.1177,0.1513,0.1509,0.1895,0.2449,-0.0722,-0.2176,-0.28,-0.2627,-0.1672,-0.1342,-0.1729,-0.1779,-0.0167,0.0,0.083,0.2265,0.3539,0.3657,0.4045,0.4275,0.434,0.4608,0.5631,0.6698,0.7365,0.7074,0.6799,0.6745,0.6794,0.6902,0.6632,0.6263,0.6209,0.6308,0.6284,0.6245,0.5982,0.5821,0.5655,0.5586,0.5647,0.5716,0.5918,0.5772,0.5333,0.5048,0.4695,0.4602,0.4669,0.4815,0.4987,0.5102,0.5221,0.4992,0.4794,0.4373,0.4136,0.4132,0.4308,0.4688,-1.5731,-1.5609,-1.5619,-1.5802,-1.5926,-1.5527,-1.4883,-1.4163,-1.3433,-1.2749,-1.2258,-1.2066,-1.2004,-1.1695,-1.1447,-1.1024,-1.0647,-1.0142,-0.9952,-0.9518,-0.9128,-0.8748,-0.8495,-0.8415,-0.8055,-0.7574,-0.7093,-0.6355,-0.5497,-0.4712,-0.3977,-0.3248,-0.2299,-0.2057,-0.2273,-0.2247,-0.22,-0.243,-0.2337,-0.2142,-0.2247,-0.2255,-0.2025,-0.1569,-0.1175,-0.0728,-0.0168,0.0503,0.0726,0.0559,0.0838,0.1786,0.2736,0.2402,0.24,0.2681,0.2728,0.2617,0.2892,0.1387,0.0056,-0.0947,-0.117,-0.0388,-0.0443,0.0333,0.0833,0.1278,0.1554,0.2327,0.3161,0.3926,0.4368,0.5287,0.5571,0.5425,0.5773,0.7422,0.8658,0.9031,0.8971,0.8606,0.8421,0.8125,0.8119,0.833,0.8066,0.7859,0.796,0.767,0.7465,0.7019,0.6745,0.6498,0.6385,0.6493,0.6554,0.6707,0.645,0.5982,0.5808,0.5765,0.5516,0.5329,0.5631,0.5934,0.6132,0.6265,0.6069,0.581,0.5384,0.4868,0.4587,0.4975,0.5636,-1.4912,-1.4628,-1.4816,-1.4656,-1.4381,-1.4381,-1.3974,-1.313,-1.2328,-1.164,-1.1087,-1.0836,-1.0647,-1.0521,-1.0268,-1.0015,-0.9576,-0.9069,-0.8818,-0.8376,-0.8047,-0.7852,-0.7657,-0.7466,-0.7186,-0.6724,-0.6063,-0.5328,-0.4154,-0.3765,-0.2895,-0.177,-0.0929,-0.0693,-0.0766,-0.0643,-0.0841,-0.1044,-0.1031,-0.1005,-0.1094,-0.1123,-0.0924,-0.0451,0.0,0.0503,0.1173,0.1786,0.2399,0.2233,0.2456,0.3121,0.368,0.4229,0.4168,0.4268,0.4648,0.4484,0.4429,0.4106,0.2658,0.1055,0.1442,0.1438,0.1157,0.1602,0.2104,0.2552,0.2996,0.3929,0.47,0.5241,0.5936,0.6908,0.7143,0.6945,0.7761,0.9371,1.0068,1.0493,1.0467,1.0196,0.9881,0.9688,0.9436,0.9703,0.9909,0.9703,0.9392,0.8947,0.8494,0.8013,0.7621,0.7334,0.7308,0.7428,0.7483,0.7471,0.7202,0.6823,0.6715,0.6707,0.6333,0.6118,0.659,0.7012,0.731,0.7373,0.7206,0.6893,0.6466,0.5875,0.5154,0.5793,0.6718,-1.4092,-1.383,-1.4514,-1.3925,-1.2948,-1.3097,-1.274,-1.1888,-1.1571,-1.0961,-1.0212,-1.0148,-0.9767,-0.9075,-0.8894,-0.863,-0.8296,-0.7917,-0.7792,-0.7661,-0.7461,-0.733,-0.7134,-0.7003,-0.6445,-0.5737,-0.4955,-0.3974,-0.286,-0.2285,-0.1319,-0.0302,0.0252,0.0769,0.1162,0.1352,0.0839,0.0323,0.0191,0.0124,0.0,0.0117,0.0401,0.09,0.1507,0.2009,0.2565,0.3118,0.3671,0.3674,0.3453,0.4061,0.4889,0.61,0.6298,0.6612,0.7208,0.7042,0.6514,0.6081,0.5277,0.3655,0.295,0.3299,0.3429,0.3202,0.3372,0.3932,0.4488,0.5851,0.6999,0.7522,0.8047,0.8547,0.8896,0.9379,1.0129,1.0927,1.1377,1.1556,1.1397,1.1099,1.0621,1.0438,1.0525,1.0846,1.0998,1.088,1.0517,0.9902,0.9444,0.8882,0.8507,0.8176,0.8171,0.818,0.8342,0.834,0.8165,0.7819,0.7769,0.761,0.7442,0.7388,0.7762,0.8092,0.8445,0.8493,0.8306,0.7989,0.7705,0.6988,0.6303,0.716,0.803,-1.2886,-1.2936,-1.3018,-1.2685,-1.1973,-1.1205,-1.0703,-1.0395,-1.0268,-0.9837,-0.9017,-0.9017,-0.8759,-0.8117,-0.8052,-0.7717,-0.7391,-0.7195,-0.7068,-0.6937,-0.6736,-0.6671,-0.64,-0.5994,-0.5484,-0.469,-0.3719,-0.2761,-0.1836,-0.1077,-0.0061,0.0943,0.1613,0.2424,0.3002,0.343,0.2378,0.1527,0.1443,0.1157,0.1,0.1034,0.1414,0.1962,0.2679,0.3067,0.3453,0.471,0.5261,0.5093,0.5058,0.5664,0.7357,0.79,0.7994,0.7835,0.8462,0.8763,0.8059,0.7528,0.6676,0.604,0.5972,0.6201,0.5926,0.5582,0.5247,0.5404,0.5842,0.6924,0.7888,0.8521,0.9356,1.01,1.0553,1.1229,1.1946,1.2422,1.2867,1.2588,1.2373,1.1849,1.1377,1.141,1.1551,1.1868,1.1968,1.185,1.1592,1.0981,1.0532,1.0001,0.9387,0.9015,0.8753,0.8718,0.9004,0.9169,0.9063,0.8862,0.8633,0.8533,0.8489,0.864,0.8941,0.931,0.9682,0.9581,0.933,0.9304,0.9004,0.8203,0.7784,0.8799,0.9504,-1.1794,-1.1911,-1.16,-1.1163,-1.0401,-0.9384,-0.8871,-0.8941,-0.9005,-0.8689,-0.8182,-0.8247,-0.7987,-0.7531,-0.7396,-0.6994,-0.6465,-0.5935,-0.5738,-0.5672,-0.5665,-0.5338,-0.5067,-0.4686,-0.417,-0.3462,-0.2572,-0.1591,-0.0663,0.0308,0.1329,0.2361,0.3027,0.3823,0.4443,0.4756,0.4159,0.316,0.249,0.2138,0.1967,0.1977,0.2413,0.285,0.3569,0.3953,0.4549,0.619,0.6558,0.6558,0.6642,0.7122,0.858,0.9089,0.9511,0.9504,1.001,0.9893,0.9172,0.8854,0.734,0.6668,0.8165,1.006,1.0172,1.0019,0.8229,0.7105,0.7323,0.7694,0.8443,0.929,1.0468,1.1598,1.225,1.2884,1.3491,1.3994,1.3896,1.3596,1.319,1.2584,1.2353,1.2403,1.2461,1.2598,1.2696,1.2686,1.2393,1.19,1.1637,1.1315,1.0499,0.9847,0.9666,0.9604,0.9938,1.0242,1.0222,0.9984,0.9634,0.9452,0.9465,0.9752,1.0153,1.0488,1.0753,1.0504,1.0273,1.0314,1.0432,0.9913,0.9913,1.0882,1.1388,-1.0787,-1.0892,-1.0388,-0.9633,-0.8484,-0.7777,-0.7456,-0.7391,-0.7582,-0.7591,-0.7461,-0.7722,-0.7456,-0.6798,-0.6461,-0.5997,-0.5401,-0.474,-0.4408,-0.4199,-0.4103,-0.3904,-0.3745,-0.3243,-0.2856,-0.2248,-0.1226,0.006,0.0864,0.1761,0.2684,0.3921,0.4381,0.511,0.6046,0.6104,0.5638,0.4883,0.387,0.3228,0.3222,0.3461,0.3849,0.4184,0.4736,0.5285,0.6249,0.7052,0.7688,0.7966,0.8178,0.8283,0.9548,1.0635,1.1116,1.1401,1.1828,1.1416,1.0847,1.0434,0.8978,0.8233,0.8651,1.2044,1.3118,1.1667,0.938,0.8352,0.8365,0.8885,0.9629,1.0726,1.1926,1.2918,1.3691,1.4173,1.4568,1.4774,1.4456,1.4049,1.352,1.2997,1.288,1.289,1.3025,1.317,1.3266,1.3314,1.3314,1.289,1.2578,1.2401,1.1966,1.1299,1.0958,1.096,1.1072,1.1235,1.1199,1.098,1.0514,1.042,1.0435,1.0836,1.1222,1.1478,1.1684,1.1425,1.1441,1.1757,1.1731,1.1563,1.1959,1.2679,1.2758,-0.9748,-0.9926,-0.9494,-0.8994,-0.8355,-0.692,-0.6404,-0.6544,-0.5543,-0.5873,-0.6736,-0.6868,-0.64,-0.5474,-0.513,-0.4602,-0.3877,-0.3203,-0.3276,-0.2977,-0.2752,-0.2266,-0.2572,-0.1631,-0.1413,-0.09,0.0236,0.1967,0.3136,0.367,0.4335,0.6141,0.6407,0.6661,0.7547,0.747,0.6899,0.6389,0.5505,0.4782,0.4725,0.4608,0.4728,0.5281,0.5832,0.6154,0.7063,0.8019,0.8442,0.8764,0.928,1.034,1.2092,1.3076,1.3253,1.3105,1.3657,1.3322,1.2695,1.2367,1.1711,1.1855,1.2628,1.4079,1.413,1.1859,1.0406,0.9804,0.9673,1.025,1.1057,1.2278,1.3332,1.4229,1.4996,1.5317,1.559,1.5289,1.4967,1.4451,1.3836,1.3631,1.3515,1.3505,1.36,1.3695,1.3779,1.3931,1.4212,1.4003,1.3414,1.3257,1.3476,1.3032,1.2523,1.1987,1.1918,1.1819,1.167,1.1513,1.1366,1.1368,1.1396,1.189,1.2267,1.2363,1.2412,1.254,1.2648,1.2803,1.2773,1.2482,1.2987,1.3684,1.3637,-0.8726,-0.8849,-0.8156,-0.7632,-0.7046,-0.6133,-0.5543,-0.5011,-0.4414,-0.4348,-0.4942,-0.5408,-0.514,-0.3939,-0.3465,-0.3,-0.2139,-0.1068,-0.0991,-0.1044,-0.0707,-0.0127,0.0124,0.0424,0.1012,0.1517,0.2491,0.3934,0.5221,0.5251,0.5773,0.7354,0.7524,0.7868,0.8687,0.833,0.8066,0.7729,0.6879,0.6725,0.6543,0.6234,0.5764,0.6209,0.6376,0.6804,0.7906,0.8967,0.9755,1.0312,1.0914,1.2888,1.4296,1.4974,1.5006,1.5185,1.5456,1.5485,1.4579,1.4435,1.4942,1.551,1.5041,1.5835,1.6979,1.492,1.2579,1.1882,1.1683,1.2104,1.3266,1.445,1.492,1.5612,1.5997,1.6268,1.6268,1.6033,1.5788,1.5462,1.4994,1.4697,1.4628,1.4617,1.4709,1.4824,1.4835,1.4744,1.4994,1.5142,1.4519,1.4124,1.4356,1.4003,1.3273,1.2768,1.2445,1.231,1.2186,1.208,1.2033,1.2168,1.233,1.2531,1.2706,1.2803,1.291,1.3065,1.3258,1.3362,1.3348,1.3256,1.3956,1.4567,1.4578,-0.7524,-0.7534,-0.6724,-0.5994,-0.5446,-0.5272,-0.4544,-0.3542,-0.3411,-0.2878,-0.2274,-0.3336,-0.3272,-0.2601,-0.1662,-0.1265,-0.0531,0.0791,0.1108,0.1341,0.2139,0.1973,0.2464,0.3336,0.3642,0.3972,0.4657,0.5472,0.6461,0.6332,0.6654,0.7742,0.8265,0.8587,0.8952,0.9145,0.9133,0.8911,0.8639,0.8967,0.8587,0.7953,0.7427,0.7117,0.6858,0.7439,0.8797,1.0041,1.115,1.185,1.2482,1.4233,1.5574,1.608,1.6397,1.6575,1.6979,1.6551,1.5986,1.6467,1.7661,1.8333,1.724,1.7255,1.8405,1.7718,1.5384,1.4255,1.4032,1.4063,1.5188,1.6142,1.6555,1.6608,1.6867,1.72,1.7028,1.6863,1.661,1.6355,1.602,1.5691,1.5635,1.568,1.5756,1.5876,1.5964,1.5932,1.5888,1.5888,1.5616,1.5292,1.5264,1.4744,1.3935,1.3501,1.3127,1.2802,1.2648,1.2628,1.2657,1.2619,1.2638,1.2754,1.292,1.3094,1.3238,1.3392,1.3573,1.3905,1.3856,1.3875,1.4538,1.5131,1.5471,-0.6129,-0.5938,-0.5817,-0.5277,-0.442,-0.3645,-0.3015,-0.2474,-0.1407,-0.0602,-0.0133,0.02,-0.0067,-0.0871,0.0267,0.0794,0.1098,0.2452,0.2598,0.2539,0.3392,0.3394,0.3903,0.527,0.5883,0.6251,0.6461,0.6727,0.7762,0.7648,0.8016,0.9405,0.9277,0.9716,1.0391,1.0386,1.0112,1.0041,1.0041,1.0151,1.0108,0.974,0.9747,0.9124,0.8249,0.902,1.0092,1.1266,1.1922,1.257,1.3457,1.4923,1.5972,1.6776,1.7097,1.7647,1.8096,1.8188,1.8044,1.8124,1.9169,1.982,1.8926,1.8744,1.9634,2.0086,1.8118,1.6754,1.626,1.5543,1.6339,1.7461,1.7983,1.7501,1.7457,1.7889,1.8033,1.7708,1.7402,1.6964,1.6497,1.6367,1.6324,1.6312,1.6269,1.6441,1.6539,1.6552,1.6509,1.6565,1.665,1.6436,1.6175,1.5287,1.4446,1.4107,1.3758,1.3409,1.3084,1.2949,1.2871,1.2929,1.2978,1.3017,1.3152,1.3324,1.3515,1.3763,1.4176,1.4444,1.4323,1.4461,1.5129,1.5691,1.6069]}]]